     2              OBSERVATION DATA    GPS                 RINEX VERSION / TYPE
teqc 1997Sep10 19971024 17:16:36UTC                         PGM / RUN BY / DATE
                                                            COMMENT
Original Marker Name: SEVAINE                               COMMENT
Campaign Name: SCEC/UCLA Landers 1992 245-278               COMMENT
4-Character Station Name: SANS                              COMMENT
6-Character Antenna Code: TRMSST                            COMMENT
Vertical Measurement Point: TGP                             COMMENT
Vertical Offset to Rinex Ref. Point: 0.0629                 COMMENT
Radial Measurement Point: NGP                               COMMENT
Radial Offset to Rinex Ref. Point: 0.2334                   COMMENT
Antenna Height from Field Measurement: 1.3300 m             COMMENT
Original XYZ: -2439055.9397 -4684549.7434 3566805.8857      COMMENT
New XYZ position is based on association with SCEC monument COMMENT
E1D0R5U2+0011. Position of that monument is believed to be  COMMENT
valid to within 1 m horizontally; vertical accuracy         COMMENT
should be no worse than 3-times this value.                 COMMENT
                                                            COMMENT
Revised Rinex header created by UCSD GPS archive for        COMMENT
GSAC on 13-Apr-1999 (1999:103) 23:01:34 GMT                 COMMENT
For assistance contact dagnew@ucsd.edu or hjohnson@ucsd.edu COMMENT
                                                            COMMENT
SEVAINE                                                     MARKER NAME
unknown UNIV CALIF LOS ANGELES                              OBSERVER / AGENCY
1051 TRIMBLE 4000 SST NP 4.64 / SP 4.20                     REC # / TYPE / VERS
271 TR 4000SST L1/L2 GEO                                    ANT # / TYPE
 -2439059.0000 -4684554.0000  3566809.0000                  APPROX POSITION XYZ
        1.2465        0.0000        0.0000                  ANTENNA: DELTA H/E/N
     1     1     0                                          WAVELENGTH FACT L1/2
     3    C1    L1    L2                                    # / TYPES OF OBSERV
     0                                                      INTERVAL
  1992     9    17    18    23   30.000000                  TIME OF FIRST OBS
  1992     9    17    23    59   30.000000                  TIME OF LAST OBS
     0                                                      # OF SATELLITES
                                                            END OF HEADER
 92  9 17 18 23 30.0000000  0  5G20G16G24G17G 3
  20773555.469          -0.60717
  21378913.828          -0.22317
  23013591.3364         -0.59256
  23988332.0944         -0.81055
  23255345.8444         -0.23056
 92  9 17 18 25  0.0000000  0  5G20G16G24G17G 3
  20747877.7584    -134935.33947    -69567.03463
  21352710.4224    -137701.10447    -71011.28363
  23040690.531      142404.480 6     74099.68321
  23919906.5234    -359565.24145   -186560.70361
  23203049.1884    -274825.07746   -142682.63261
 92  9 17 18 25 30.0000000  0  5G20G16G24G17G 3
  20739574.1254    -178550.79947   -103553.11363
  21344235.7114    -182257.85347   -105730.81963
  23049787.2114     190189.84046    111334.97561
  23897211.9144    -478835.30545   -279498.38661
  23185657.1564    -366215.18846   -213895.68261
 92  9 17 18 26  0.0000000  0  5G20G16G24G17G 3
  20731422.0474    -221431.78448   -136966.86763
  21335891.3284    -226090.30547   -139885.97163
  23058917.156      238182.844 6    148732.07121
  23874577.0554    -597760.00345   -372166.92961
  23168298.4534    -457444.72746   -284983.63461
 92  9 17 18 26 30.0000000  0  5G20G16G24G17G 3
  20723399.5704    -263558.95547   -169793.23464
  21327694.4454    -269179.21647   -173461.74063
  23068093.000      286400.763 6    186304.43621
  23852021.531     -716320.454 5   -464551.61921
  23150973.4224    -548495.41046   -355932.21861
 92  9 17 18 27  0.0000000  0  5G20G16G24G17G 3
  20715514.4144    -305003.21348   -202087.46864
  21319622.7274    -311595.54347   -206513.41763
  23077298.2424     334770.11746    223994.80261
  23829513.6094    -834587.35945   -556707.61161
  23133666.1334    -639438.75646   -426797.14461
 92  9 17 18 27 30.0000000  0  5G20G16G24G17G 3
  20707767.2814    -345732.19547   -233824.34464
  21311681.2344    -353308.22647   -239016.79863
  23086538.594      383321.531 6    261827.03821
  23807071.977     -952528.087 5   -648609.40621
  23116387.2194    -730243.16946   -497553.81861
 92  9 17 18 28  0.0000000  0  5G20G16G24G17G 3
  20700151.2584    -385735.34448   -264995.63464
  21303884.4844    -394306.10347   -270963.20363
  23095812.141      432063.394 6    299807.65221
  23784690.516    -1070131.901 5   -740248.67121
  23099135.2894    -820898.82046   -568194.58161
 92  9 17 18 28 30.0000000  0  5G20G16G24G17G 3
  20692679.7194    -425009.22148   -295598.66164
  21296218.2814    -434586.17147   -302350.26863
  23105123.6644     480997.03446    337937.71761
  23762382.813    -1187395.511 5   -831622.87321
  23081912.891     -911403.230 6   -638717.47421
 92  9 17 18 29  0.0000000  0  5G20G16G24G17G 3
  20685340.7194    -463576.12347   -325650.80464
  21288682.1644    -474170.22647   -333194.98463
  23114466.6644     530098.84246    376198.81461
  23740118.7504   -1304341.08345   -922749.25061
  23064716.133    -1001778.673 6   -709139.89421
 92  9 17 18 29 30.0000000  0  5G20G16G24G17G 3
  20678131.2734    -501446.70347   -355160.35263
  21281285.3754    -513069.52747   -363506.13363
  23123838.922      579355.913 6    414580.89921
  23717928.8444   -1420979.11545  -1013635.99961
  23047539.5554   -1092036.93446   -779470.96861
 92  9 17 18 30  0.0000000  0  5G20G16G24G17G 3
  20671054.1254    -538647.09947   -384147.67964
  21274006.4144    -551310.33247   -393304.16663
  23133237.6564     628739.66446    453061.67761
  23695785.6254   -1537335.66345  -1104303.36561
  23030378.8914   -1182204.60846   -849731.49661
 92  9 17 18 30 30.0000000  0  5G20G16G24G17G 3
  20664106.4304    -575169.37547   -412606.60764
  21266853.1884    -588885.37547   -422583.43063
  23142663.2504     678256.28946    491646.01661
  23673696.102    -1653402.788 5  -1194745.25721
  23013241.0394   -1272274.45146   -919915.76361
 92  9 17 18 31  0.0000000  0  5G20G16G24G17G 3
  20657271.4844    -611063.36047   -440575.95763
  21259824.0234    -625844.13047   -451382.46163
  23152097.359      727854.179 6    530293.68121
  23651658.555    -1769229.892 5  -1285000.06221
  22996110.0704   -1362296.76546   -990063.04861
 92  9 17 18 31 30.0000000  0  5G20G16G24G17G 3
  20650564.8524    -646316.36048   -468045.82663
  21252911.7504    -662173.95547   -479691.41763
  23161553.3834     777543.85146    569012.87061
  23629662.2114   -1884804.29145  -1375057.96061
  22978991.7584   -1452259.28746  -1060163.70461
 92  9 17 18 32  0.0000000  0  5G20G16G24G17G 3
  20643986.1884    -680912.30448   -495003.71763
  21246115.4774    -697859.36747   -507498.23263
  23171030.891      827339.716 6    607814.79721
  23607722.3134   -2000109.66445  -1464906.25561
  22961885.9614   -1542146.50846  -1130205.69161
 92  9 17 18 32 30.0000000  0  5G20G16G24G17G 3
  20637524.5784    -714845.99947   -521445.57463
  21239451.0704    -732895.58247   -534799.18063
  23180527.195      877245.436 6    646702.33221
  23585834.0784   -2115140.59845  -1554540.69661
  22944796.813    -1631953.737 6  -1200185.32821
 92  9 17 18 33  0.0000000  0  5G20G16G24G17G 3
  20631188.6954    -748130.13847   -547381.27163
  21232908.0394    -767295.68247   -561604.46263
  23190042.4614     927246.18446    685663.90661
  23563991.453    -2229909.949 5  -1643971.28821
  22927719.3284   -1721694.08046  -1270112.88761
 92  9 17 18 33 30.0000000  0  5G20G16G24G17G 3
  20624977.8984    -780780.22947   -572822.91263
  21226476.4304    -801075.86747   -587926.68863
  23199573.688      977324.916 6    724686.25821
  23542194.914    -2344432.883 5  -1733209.89621
  22910650.1884   -1811383.47646  -1340000.71161
 92  9 17 18 34  0.0000000  0  5G20G16G24G17G 3
  20618887.6644    -812789.43847   -597765.16663
  21220164.563     -834228.750 7   -613760.11023
  23209118.258     1027487.031 6    763773.56321
  23520454.414    -2458701.516 5  -1822250.31821
  22893594.3364   -1901015.11546  -1409843.55261
 92  9 17 18 34 30.0000000  0  5G20G16G24G17G 3
  20612919.6884    -844140.19248   -622194.33563
  21213980.1804    -866737.35047   -639091.48263
  23218682.0004    1077747.97746    802937.88361
  23498759.1644   -2572698.45445  -1911079.04961
  22876553.8984   -1990572.08746  -1479628.20461
 92  9 17 18 35  0.0000000  0  5G20G16G24G17G 3
  20607074.3674    -874852.11347   -646125.70763
  21207916.9694    -898621.03247   -663935.92663
  23228262.9614    1128086.72446    842162.81861
  23477113.9844   -2686443.16145  -1999711.22761
  22859522.6804   -2080074.28046  -1549370.15861
 92  9 17 18 35 30.0000000  0  5G20G16G24G17G 3
  20601355.5704    -904909.48247   -669547.04763
  21201970.3674    -929864.84047   -688281.75463
  23237857.6804    1178517.18046    881459.22061
  23455528.0234   -2799919.66745  -2088134.43061
  22842505.336    -2169506.035 6  -1619057.24921
 92  9 17 18 36  0.0000000  0  5G20G16G24G17G 3
  20595760.1024    -934329.99947   -692472.13163
  21196139.4144    -960486.60247   -712142.87963
  23247467.500     1229020.636 6    920812.51621
  23433975.055    -2913145.330 5  -2176362.16321
  22825494.2894   -2258885.11546  -1688703.27161
 92  9 17 18 36 30.0000000  0  5G20G16G24G17G 3
  20590285.9144    -963090.87647   -714883.21763
  21190437.2034    -990463.69447   -735501.65063
  23257095.281     1279618.079 6    960239.04221
  23412480.8134   -3026096.62845  -2264376.11261
  22808499.7114   -2348189.12646  -1758290.80561
 92  9 17 18 37  0.0000000  0  5G20G16G24G17G 3
  20584928.2974    -991223.42147   -736804.69063
  21184851.8834   -1019827.68447   -758382.69463
  23266739.2664    1330277.21546    999713.65861
  23391033.9924   -3138805.32245  -2352201.00961
  22791514.4694   -2437449.36546  -1827844.24161
 92  9 17 18 37 30.0000000  0  5G20G16G24G17G 3
  20579701.7584   -1018697.97548   -758213.44563
  21179386.3364   -1048548.75547   -780762.74763
  23276395.3984    1381025.97246   1039258.07961
  23369632.117    -3251240.103 5  -2439812.46421
  22774544.3284   -2526636.19846  -1897340.47161
 92  9 17 18 38  0.0000000  0  5G20G16G24G17G 3
  20574595.3444   -1045544.26348   -779132.63963
  21174037.0864   -1076656.90247   -802665.21163
  23286061.633     1431833.349 6   1078848.17921
  23348294.2814   -3363430.93245  -2527233.83561
  22757580.5784   -2615779.24846  -1966802.59361
 92  9 17 18 38 30.0000000  0  5G20G16G24G17G 3
  20569606.5394   -1071760.74247   -799561.07363
  21168800.6414   -1104150.69047   -824088.93963
  23295741.875     1482699.491 6   1118484.06421
  23326988.180    -3475375.723 5  -2614463.48721
  22740627.6174   -2704876.92446  -2036229.34661
 92  9 17 18 39  0.0000000  0  5G20G16G24G17G 3
  20564737.8364   -1097352.65347   -819502.83063
  21163684.7504   -1131035.99847   -845038.53763
  23305430.039     1533617.471 6   1158160.39621
  23305731.7344   -3587079.35945  -2701505.21961
  22723678.4844   -2793935.16046  -2105625.37461
 92  9 17 18 39 30.0000000  0  5G20G16G24G17G 3
  20559983.8054   -1122316.60147   -838955.27463
  21158687.1884   -1157309.79347   -865511.63163
  23315130.820     1584589.270 6   1197878.61321
  23284520.2504   -3698537.93645  -2788355.98461
  22706738.1884   -2882949.92146  -2174987.51661
 92  9 17 18 40  0.0000000  0  5G20G16G24G17G 3
  20555356.0394   -1146626.84247   -857898.32863
  21153810.1564   -1182946.36547   -885488.18763
  23324845.523     1635639.846 6   1237658.24021
  23263363.8984   -3809725.15445  -2874995.32561
  22689812.445    -2971895.355 6  -2244295.64021
 92  9 17 18 40 30.0000000  0  5G20G16G24G17G 3
  20550852.1804   -1170300.38647   -876345.24863
  21149052.0554   -1207962.95947   -904981.63963
  23334571.5004    1686750.52746   1277484.66961
  23242253.813    -3920657.911 5  -2961436.37921
  22672896.1174   -3060788.89246  -2313563.33261
 92  9 17 18 41  0.0000000  0  5G20G16G24G17G 3
  20546462.5084   -1193370.01847   -894321.59763
  21144402.7424   -1232392.86947   -924017.94363
  23344303.672     1737887.513 6   1317331.60821
  23221190.102    -4031368.424 5  -3047704.26621
  22655985.0004   -3149662.88646  -2382815.80161
 92  9 17 18 41 30.0000000  0  5G20G16G24G17G 3
  20542192.1024   -1215821.60548   -911816.34763
  21139866.1564   -1256222.12547   -942586.19263
  23354041.8204    1789064.00146   1357209.33461
  23200163.531    -4141841.635 5  -3133787.24321
  22639079.1334   -3238502.76346  -2452041.66861
 92  9 17 18 42  0.0000000  0  5G20G16G24G17G 3
  20538041.8754   -1237638.53947   -928816.57363
  21135446.2194   -1279434.00247   -960673.38463
  23363790.258     1840295.472 6   1397129.90721
  23179190.594    -4252060.248 5  -3219671.83021
  22622184.078    -3327291.444 6  -2521227.65821
 92  9 17 18 42 30.0000000  0  5G20G16G24G17G 3
  20534009.6804   -1258830.92947   -945330.14063
  21131145.8364   -1302038.05347   -978286.93863
  23373548.1334    1891570.75246   1437084.60961
  23158264.766    -4362034.035 6  -3305365.67321
  22605295.0164   -3416039.07046  -2590381.65661
 92  9 17 18 43  0.0000000  0  5G20G16G24G17G 3
  20530097.3834   -1279396.11747   -961354.96963
  21126958.6334   -1324032.86847   -995425.75363
  23383315.9304    1942891.82146   1477075.00761
  23137382.367    -4471759.621 5  -3390866.07021
  22588415.9454   -3504742.59446  -2659501.27661
 92  9 17 18 43 30.0000000  0  5G20G16G24G17G 3
  20526303.0164   -1299334.92347   -976891.71363
  21122888.1094   -1345420.00847  -1012091.06663
  23393087.070     1994256.593 6   1517099.44321
  23116546.0944   -4581237.60845  -3476173.52861
  22571543.9924   -3593402.80346  -2728587.15161
 92  9 17 18 44  0.0000000  0  5G20G16G24G17G 3
  20522624.6724   -1318660.85347   -991950.89163
  21118931.3984   -1366212.74747  -1028293.21363
  23402870.1094    2045650.18146   1557146.34761
  23095762.703    -4690480.622 5  -3561297.91121
  22554680.4224   -3682032.66746  -2797649.39761
 92  9 17 18 44 30.0000000  0  5G20G16G24G17G 3
  20519063.6334   -1337371.02647  -1006530.26263
  21115088.6334   -1386408.25647  -1044029.97963
  23412655.1334    2097074.70146   1597217.32761
  23075017.0004   -4799484.96945  -3646236.31861
  22537819.1414   -3770628.90746  -2866685.42061
 92  9 17 18 45  0.0000000  0  5G20G16G24G17G 3
  20515617.6564   -1355474.96447  -1020637.24563
  21111358.5084   -1406016.36347  -1059309.01963
  23422445.7734    2148519.66246   1637304.25461
  23054318.133    -4908259.674 5  -3730995.78321
  22520964.4384   -3859200.63846  -2935702.35461
 92  9 17 18 45 30.0000000  0  5G20G16G24G17G 3
  20512292.9924   -1372952.55648  -1034256.15463
  21107742.1564   -1425017.01647  -1074114.73363
  23432239.2734    2200004.40846   1677422.16961
  23033665.719    -5016783.762 5  -3815559.94621
  22504118.7894   -3947727.03846  -3004683.96661
 92  9 17 18 45 59.9990000  0  5G20G16G24G17G 3
  20509083.5654   -1389813.24247  -1047394.37263
  21104241.245    -1443419.853 7  -1088454.62723
  23442044.9334    2251516.56846   1717561.44561
  23013061.120    -5125063.111 5  -3899933.41621
  22487281.0974   -4036214.77046  -3073635.44761
 92  9 17 18 46 29.9990000  0  5G20G16G24G17G 3
  20505992.7764   -1406054.09847  -1060049.59663
  21100853.6594   -1461221.86447  -1102326.33163
  23451853.0584    2303062.48646   1757727.04561
  22992505.065    -5233100.259 6  -3984118.16421
  22470448.0264   -4124665.23046  -3142557.87561
 92  9 17 18 46 59.9990000  0  5G20G16G24G17G 3
  20503017.8554   -1421686.52747  -1072230.72663
  21097576.9174   -1478435.54047  -1115739.59163
  23461667.2694    2354627.74946   1797907.72461
  22971987.581    -5340902.645 5  -4068119.98421
  22453622.7614   -4213086.99046  -3211457.92861
 92  9 17 18 47 29.9990000  0  5G20G16G24G17G 3
  20500163.3704   -1436702.40747  -1083931.43563
  21094414.5814   -1495052.16947  -1128687.62363
  23471482.292     2406219.992 6   1838109.41121
  22951522.1364   -5448461.39746  -4151931.94061
  22436804.5894   -4301470.97346  -3280328.57561
 92  9 17 18 47 59.9990000  0  5G20G16G24G17G 3
  20497423.667    -1451090.609 7  -1095143.03523
  21091368.6674   -1511061.08447  -1141162.11663
  23481307.534     2457849.854 6   1878340.40921
  22931103.7374   -5555764.00646  -4235544.33361
  22419995.9804   -4389805.08446  -3349160.34761
 92  9 17 18 48 29.9990000  0  5G20G16G24G17G 3
  20494803.3784   -1464866.05247  -1105877.16463
  21088435.5734   -1526477.11947  -1153174.62463
  23491136.0584    2509501.99546   1918588.75461
  22910729.206    -5662824.810 6  -4318968.28221
  22403193.2614   -4478103.67046  -3417964.44761
 92  9 17 18 48 59.9990000  0  5G20G16G24G17G 3
  20492298.987    -1478029.181 7  -1116134.16923
  21085615.526    -1541300.841 7  -1164725.59123
  23500969.8154    2561174.83046   1958853.23361
  22890405.237    -5769643.506 6  -4402203.60221
  22386395.9954   -4566366.52646  -3486740.70161
 92  9 17 18 49 29.9990000  0  5G20G16G24G17G 3
  20489909.2694   -1490580.56248  -1125914.48463
  21082907.0734   -1555533.96947  -1175816.35063
  23510807.5894    2612867.03746   1999132.81461
  22870123.370    -5876220.100 6  -4485250.25521
  22369605.5034   -4654593.74246  -3555489.17461
 92  9 17 18 49 59.9990000  0  5G20G16G24G17G 3
  20487634.167    -1502523.975 7  -1135221.06623
  21080313.1284   -1569180.20147  -1186449.78063
  23520645.2924    2664574.51546   2039424.28061
  22849885.565    -5982557.393 6  -4568110.43321
  22352823.6204   -4742788.07646  -3624212.04061
 92  9 17 18 50 29.9990000  0  5G20G16G24G17G 3
  20485480.417    -1513842.672 7  -1144040.85624
  21077832.808    -1582222.850 7  -1196612.90323
  23530491.980     2716313.799 6   2079740.52221
  22829698.472    -6088637.260 6  -4650770.03721
  22336051.6284   -4830931.67246  -3692895.35461
 92  9 17 18 50 59.9990000  0  5G20G16G24G17G 3
  20483441.4954   -1524549.50448  -1152383.85963
  21075462.5654   -1594674.30447  -1206315.34463
  23540341.003     2768071.604 6   2120071.22921
  22809558.183    -6194471.851 6  -4733238.49821
  22319284.472    -4919036.573 6  -3761548.52021
 92  9 17 18 51 29.9990000  0  5G20G16G24G17G 3
  20481520.7224   -1534654.16047  -1160257.64064
  21073202.1514   -1606544.59447  -1215564.93663
  23550191.7534    2819837.79246   2160408.45361
  22789467.245    -6300069.868 6  -4815522.64321
  22302523.3084   -5007111.27346  -3830178.16361
 92  9 17 18 51 59.9990000  0  5G20G16G24G17G 3
  20479712.9254   -1544150.66447  -1167657.53864
  21071052.2374   -1617828.46847  -1224357.57663
  23560045.940     2871617.780 5   2200756.43021
  22769414.878    -6405424.689 6  -4897617.27321
  22285771.815    -5095149.220 6  -3898779.17421
 92  9 17 18 52 29.9990000  0  5G20G16G24G17G 3
  20478024.1594   -1553039.85647  -1174584.20063
  21069015.0264   -1628526.72847  -1232693.89663
  23569900.9564    2923410.25045   2241114.16761
  22749413.690    -6510535.724 6  -4979521.94321
  22269026.4014   -5183150.09246  -3967351.27661
 92  9 17 18 52 59.9990000  0  5G20G16G24G17G 3
  20476446.308    -1561320.565 7  -1181036.72223
  21067093.964    -1638638.435 7  -1240573.16623
  23579759.7304    2975216.34846   2281482.49561
  22729459.5114   -6615401.35646  -5061235.38161
  22252287.3084   -5271111.53346  -4035892.64661
 92  9 17 18 53 29.9990000  0  5G20G16G24G17G 3
  20474983.933    -1568988.116 7  -1187011.45823
  21065286.3624   -1648159.60747  -1247992.27163
  23589621.6124    3027040.06546   2321864.53461
  22709553.589    -6720015.919 6  -5142753.18621
  22235556.3234   -5359028.11246  -4104399.06961
 92  9 17 18 53 59.9990000  0  5G20G16G24G17G 3
  20473644.9254   -1576034.07847  -1192501.84563
  21063585.2844   -1657081.63447  -1254944.51763
  23599490.5504    3078889.64446   2362266.76261
  22689698.901    -6824369.568 6  -5224067.67821
  22218838.5734   -5446890.19646  -4172863.02461
 92  9 17 18 54 29.9990000  0  5G20G16G24G17G 3
  20472425.3154   -1582459.53347  -1197508.70763
  21061996.8234   -1665405.12047  -1261430.36163
  23609360.675     3130764.149 5   2402688.37721
  22669888.019    -6928462.375 6  -5305178.92221
  22202128.5344   -5534697.82446  -4241284.53761
 92  9 17 18 54 59.9990000  0  5G20G16G24G17G 3
  20471320.042    -1588270.713 7  -1202036.92523
  21060528.0264   -1673136.82347  -1267455.07863
  23619236.4724    3182657.10245   2443124.37061
  22650126.3784   -7032299.87646  -5386091.22061
  22185428.573    -5622455.946 6  -4309667.48121
 92  9 17 18 55 29.9990000  0  5G20G16G24G17G 3
  20470323.4484   -1593487.72847  -1206102.15263
  21059170.2614   -1680297.77447  -1273035.05963
  23629110.7304    3234547.55045   2483558.43061
  22630412.839    -7135900.825 6  -5466819.20021
  22168733.9874   -5710183.40946  -4378026.54461
 92  9 17 18 55 59.9990000  0  5G20G16G24G17G 3
  20469444.9094   -1598111.88047  -1209705.40763
  21057913.0894   -1686888.60647  -1278170.78763
  23638982.1364    3286434.42345   2523989.68961
  22610743.300    -7239265.590 6  -5547363.12721
  22152047.5344   -5797880.37746  -4446361.84161
 92  9 17 18 56 29.9990000  0  5G20G16G24G17G 3
  20468687.3234   -1602113.64147  -1212823.68863
  21056768.769    -1692880.121 7  -1282839.50923
  23648863.128     3338347.284 5   2564441.19421
  22591124.511    -7342363.403 6  -5627699.04721
  22135369.3314   -5885515.84946  -4514649.20761
 92  9 17 18 56 59.9990000  0  5G20G16G24G17G 3
  20468038.4014   -1605500.24547  -1215462.61763
  21055746.4644   -1698279.95847  -1287047.19463
  23658744.644     3390279.262 6   2604907.59321
  22571555.7144   -7445199.93346  -5707831.37761
  22118703.4564   -5973095.57246  -4582893.14661
 92  9 17 18 57 29.9990000  0  5G20G16G24G17G 3
  20467507.456    -1608286.623 7  -1217633.84523
  21054829.167    -1703103.402 7  -1290805.75023
  23668628.9724    3442214.98446   2645376.93961
  22552031.206    -7547789.502 6  -5787771.26121
  22102045.7304   -6060633.39246  -4651104.42761
 92  9 17 18 57 59.9990000  0  5G20G16G24G17G 3
  20467095.4174   -1610474.25147  -1219338.50964
  21054015.7534   -1707351.71747  -1294116.12763
  23678513.159     3494153.179 6   2685848.18821
  22532557.448    -7650132.171 6  -5867518.76921
  22085396.2844   -6148129.26546  -4719283.02361
 92  9 17 18 58 29.9990000  0  5G20G16G24G17G 3
  20466793.0584   -1612055.52647  -1220570.69063
  21053322.597    -1711017.126 7  -1296972.31423
  23688399.284     3546101.445 6   2726327.30121
  22513130.714    -7752218.742 6  -5947066.69421
  22068755.3004   -6235573.92346  -4787421.71261
 92  9 17 18 58 59.9990000  0  5G20G16G24G17G 3
  20466603.4954   -1613047.07047  -1221343.34463
  21052732.5584   -1714116.55547  -1299387.46763
  23698279.3624    3598043.51045   2766801.58461
  22493747.362    -7854064.698 6  -6026427.15721
  22052121.8004   -6322982.14246  -4855531.99961
 92  9 17 18 59 29.9990000  0  5G20G16G24G17G 3
  20466530.292    -1613454.215 7
  21052245.7374   -1716655.14547  -1301365.61363
  23708164.9404    3649973.81545   2807266.70461
  22474415.503    -7955675.090 6  -6105604.04921
  22035496.9334   -6410358.59546  -4923617.54261
 92  9 17 18 59 59.9990000  0  5G20G16G24G17G 3
  20466560.4874   -1613266.13247
  21051877.7694   -1718622.68547  -1302898.77163
  23718046.3864    3701903.38345   2847731.24061
  22455126.206    -8057037.175 6  -6184587.45521
  22018876.8474   -6497690.50546  -4991668.36761
 92  9 17 19  0 29.9990000  0  5G20G16G24G17G 3
  20466714.2064   -1612476.57147  -1220898.86763
  21051607.917    -1720013.657 7  -1303982.66923
  23727926.667     3753838.784 5   2888200.28721
  22435884.917    -8158143.375 6  -6263371.46721
  22002269.5654   -6584969.97146  -5059678.34861
 92  9 17 19  0 59.9990000  0  5G20G16G24G17G 3
  20466974.9484   -1611101.46447  -1219827.38163
  21051452.1444   -1720844.12047  -1304629.78963
  23737809.1124    3805764.12446   2928661.52061
  22416690.6124   -8259008.43946  -6341967.59761
  21985667.8784   -6672211.34846  -5127658.62561
 92  9 17 19  1 29.9990000  0  5G20G16G24G17G 3
  20467347.6904   -1609133.24247  -1218293.71663
  21051398.8314   -1721106.16747
  23747691.120     3857687.383 5   2969121.12621
  22397546.472    -8359623.577 6  -6420368.96721
  21969074.5894   -6759405.42146  -5195602.05661
 92  9 17 19  1 59.9990000  0  5G20G16G24G17G 3
  20467834.776    -1606571.075 7  -1216297.25323
  21051462.065    -1720798.996 7
  23757571.4954    3909609.66745   3009580.00061
  22378450.0344   -8459986.50446  -6498573.82261
  21952488.4404   -6846549.88746  -5263506.83361
 92  9 17 19  2 29.9990000  0  5G20G16G24G17G 3
  20468434.120    -1603411.454 7  -1213835.23423
  21051627.2374   -1719919.52847  -1303909.38663
  23767448.7374    3961534.62845   3050040.93961
  22359400.6594   -8560092.15946  -6576578.18761
  21935918.9404   -6933638.96646  -5331368.44661
 92  9 17 19  2 59.9990000  0  5G20G16G24G17G 3
  20469150.7064   -1599657.56247  -1210910.14863
  21051903.0194   -1718470.80747  -1302780.52863
  23777331.855     4013459.884 5   3090502.09221
  22340394.589    -8659942.425 6  -6654383.54921
  21919356.4174   -7020674.45046  -5399188.30461
 92  9 17 19  3 29.9990000  0  5G20G16G24G17G 3
  20469981.597    -1595289.162 7  -1207506.23023
  21052290.9094   -1716432.83747  -1301192.52163
  23787217.4484    4065405.94045   3130979.47361
  22321449.6754   -8759515.58046  -6731973.01561
  21902807.1674   -7107634.03846  -5466949.01561
 92  9 17 19  3 59.9990000  0  5G20G16G24G17G 3
  20470923.769    -1590345.999 7  -1203654.44023
  21052784.003    -1713845.625 7  -1299176.53623
  23797098.948     4117333.107 5   3171442.13621
  22302544.190    -8858850.574 6  -6809376.87021
  21886269.4804   -7194556.14346  -5534680.51561
 92  9 17 19  4 29.9990000  0  5G20G16G24G17G 3
  20471975.761    -1584813.998 7  -1199343.81523
  21053381.6984   -1710694.92247  -1296721.46063
  23806980.5264    4169256.10345   3211901.53861
  22283693.0114   -8957931.62146  -6886582.84761
  21869735.4094   -7281424.36446  -5602370.02261
 92  9 17 19  4 59.9990000  0  5G20G16G24G17G 3
  20473135.3474   -1578712.51347  -1194589.43563
  21054088.2764   -1706999.85447  -1293842.20663
  23816854.495     4221156.552 5   3252343.37321
  22264878.5894   -9056776.26346  -6963604.61361
  21853214.5654   -7368255.98946  -5670031.02461
 92  9 17 19  5 29.9990000  0  5G20G16G24G17G 3
  20474404.8704   -1572066.93747  -1189411.08764
  21054886.6364   -1702786.14447  -1290558.81163
  23826723.8624    4273009.22945   3292747.98661
  22246110.003    -9155409.034 6  -7040461.28421
  21836693.0034   -7455074.59646  -5737681.88861
 92  9 17 19  5 59.9990000  0  5G20G16G24G17G 3
  20475775.1834   -1564833.04547  -1183774.31563
  21055799.3474   -1698010.18647  -1286837.30763
  23836589.3394    4324858.82845   3333150.21061
  22227394.612    -9253783.842 6  -7117116.94621
  21820184.2844   -7541834.34646  -5805286.88561
 92  9 17 19  6 29.9990000  0  5G20G16G24G17G 3
  20477267.097    -1557017.560 7  -1177684.35823
  21056810.3864   -1692678.76047  -1282682.96363
  23846457.5504    4376699.33345   3373545.35961
  22208720.2454   -9351905.90046  -7193575.67561
  21803681.0734   -7628539.51046  -5872849.34661
 92  9 17 19  6 59.9990000  0  5G20G16G24G17G 3
  20478861.3624   -1548627.47147  -1171146.64463
  21057930.5654   -1686798.25347  -1278100.76763
  23856314.2764    4428524.83845   3413928.79161
  22190093.940    -9449780.342 6  -7269841.42621
  21787192.4564   -7715194.59546  -5940372.79261
 92  9 17 19  7 29.9990000  0  5G20G16G24G17G 3
  20480567.198    -1539658.224 7  -1164157.64223
  21059157.2924   -1680364.53147  -1273087.49163
  23866177.9564    4480340.27845   3454304.39061
  22171518.886    -9547401.217 6  -7345909.61121
  21770713.745    -7801793.354 6  -6007852.31921
 92  9 17 19  7 59.9990000  0  5G20G16G24G17G 3
  20482388.6834   -1530105.29247  -1156713.82863
  21060482.9484   -1673373.68947  -1267640.10463
  23876036.3474    4532150.43145   3494675.86261
  22152990.8624   -9644763.13946  -7421776.03061
  21754248.2764   -7888329.32147  -6075282.94761
 92  9 17 19  8 29.9990000  0  5G20G16G24G17G 3
  20484312.8554   -1519977.74647  -1148822.26363
  21061919.0264   -1665834.76447  -1261765.63563
  23885891.8084    4583947.42445   3535037.08161
  22134511.7924   -9741873.20046  -7497446.19561
  21737789.9014   -7974809.27247  -6142669.91861
 92  9 17 19  8 59.9990000  0  5G20G16G24G17G 3
  20486350.558    -1509264.452 7  -1140474.26823
  21063462.9014   -1657735.42347  -1255454.48063
  23895750.2924    4635743.19745   3575397.37061
  22116082.6364   -9838718.25646  -7572909.85461
  21721345.8084   -8061219.51746  -6210002.56761
 92  9 17 19  9 29.9990000  0  5G20G16G24G17G 3
  20488503.831    -1497966.369 7  -1131670.58923
  21065107.245    -1649077.299 7  -1248707.90423
  23905602.448     4687537.221 5   3615756.26221
  22097704.878    -9935298.036 6  -7648166.80821
  21704917.2374   -8147558.72746  -6277279.86961
 92  9 17 19  9 59.9990000  0  4G20G16G17G 3
  20490763.870    -1486101.526 7  -1122425.28423
  21066857.4804   -1639879.75047  -1241541.00763
  22079373.065   -10031629.029 6  -7723229.88921
  21688498.4254   -8233843.20247  -6344514.52061
 92  9 17 19 10 29.9990000  0  4G20G16G17G 3
  20493133.542    -1473631.873 7  -1112708.69723
  21068719.292    -1630104.097 7  -1233923.63423
  22061096.8004  -10127671.09546  -7798067.84361
  21672095.8554   -8320032.36047  -6411674.88861
 92  9 17 19 10 59.9990000  0  4G20G16G17G 3
  20495611.9094   -1460601.93547  -1102555.52763
  21070683.6594   -1619794.84347  -1225890.46763
  22042867.2454  -10223467.67746  -7872714.51361
  21655704.9404   -8406168.23746  -6478793.76261
 92  9 17 19 11 29.9990000  0  4G20G16G17G 3
  20498201.136    -1447009.749 7  -1091964.24323
  21072744.0974   -1608949.56147  -1217439.61263
  22024686.1054  -10319014.74946  -7947166.75161
  21639324.3864   -8492246.76246  -6545867.92361
 92  9 17 19 11 59.9990000  0  4G20G16G17G 3
  20500899.019    -1432836.102 7  -1080919.87023
  21074912.823    -1597549.765 7  -1208556.68323
  22006556.5894  -10414291.74846  -8021408.55761
  21622959.3154   -8578246.28946  -6612880.52761
 92  9 17 19 12 29.9980000  0  4G20G16G17G 3
  20503701.100    -1418094.042 7  -1069432.57723
  21077184.5614   -1585608.32447  -1199251.67563
  21988473.029   -10509306.467 6  -8095445.96021
  21606608.4594   -8664174.04447  -6679837.21161
 92  9 17 19 12 59.9980000  0  4G20G16G17G 3
  20506615.561    -1402779.263 7  -1057499.00523
  21079563.2564   -1573121.28647  -1189521.53663
  21970444.678   -10604060.055 6  -8169279.90721
  21590269.3654   -8750029.78246  -6746737.78861
 92  9 17 19 13 29.9980000  0  4G20G16G17G 3
  20509633.959    -1386911.096 7  -1045134.22623
  21082041.912    -1560107.643 7  -1179381.06623
  21952458.7174  -10698566.16946  -8242921.00961
  21573944.8264   -8835826.91946  -6813592.68061
 92  9 17 19 13 59.9980000  0  4G20G16G17G 3
  20512759.990    -1370488.875 7  -1032337.72023
  21084618.6544   -1546566.45147  -1168829.49663
  21934521.693   -10792822.372 6  -8316367.37721
  21557629.2324   -8921562.28046  -6880399.44361
 92  9 17 19 14 29.9980000  0  4G20G16G17G 3
  20515995.006    -1353499.115 7  -1019098.97323
  21087296.373    -1532484.374 7  -1157856.46923
  21916637.006   -10886813.297 6  -8389607.03321
  21541331.0144   -9007219.57647  -6947145.36661
 92  9 17 19 14 59.9980000  0  4G20G16G17G 3
  20519335.717    -1335942.577 7  -1005418.58123
  21090077.1314   -1517862.60047  -1146462.89863
  21898801.8034  -10980538.56346  -8462639.70161
  21525044.9044   -9092797.17047  -7013829.19461
 92  9 17 19 15 29.9980000  0  4G20G16G17G 3
  20522786.326    -1317824.949 7   -991300.97523
  21092960.686    -1502706.640 7  -1134653.07923
  21881015.3504  -11074001.65146  -8535468.05561
  21508774.4434   -9178298.07947  -7080453.26861
 92  9 17 19 15 59.9980000  0  4G20G16G17G 3
  20526336.4754   -1299163.77047   -976759.82563
  21095942.2954   -1487033.56247  -1122440.31963
  21863277.1234  -11167217.84646  -8608104.03161
  21492514.1394   -9263736.94347  -7147028.99761
 92  9 17 19 16 29.9980000  0  4G20G16G17G 3
  20529996.365    -1279942.938 7   -961782.58923
  21099025.7174   -1470828.01647  -1109812.64163
  21845589.0294  -11260169.68146  -8680534.01761
  21476272.2094   -9349094.97547  -7213541.73861
 92  9 17 19 16 59.9980000  0  4G20G16G17G 3
  20533756.5764   -1260163.56747   -946370.11763
  21102212.240    -1454090.952 7  -1096770.79523
  21827949.9124  -11352856.39846  -8752757.40361
  21460045.7174   -9434370.64447  -7279990.30161
 92  9 17 19 17 29.9980000  0  4G20G16G17G 3
  20537626.240    -1239830.028 7   -930525.83423
  21105496.0064   -1436826.76447  -1083318.20563
  21810364.037   -11445280.400 6  -8824776.09621
  21443834.037    -9519565.486 7  -7346375.88621
 92  9 17 19 17 59.9980000  0  4G20G16G17G 3
  20541601.4754   -1218955.56747   -914260.04963
  21108880.3424   -1419048.82647  -1069465.28063
  21792825.7324  -11537453.31946  -8896599.13361
  21427634.3344   -9604690.04047  -7412706.70061
 92  9 17 19 18 29.9980000  0  4G20G16G17G 3
  20545676.1074   -1197535.94947   -897569.46363
  21112361.748    -1400752.241 7  -1055208.23123
  21775332.4754  -11629368.89946  -8968221.64561
  21411452.6234   -9689737.10447  -7478977.13161
 92  9 17 19 18 59.9980000  0  4G20G16G17G 3
  20549857.3034   -1175555.24347   -880441.66863
  21115944.3264   -1381921.46047  -1040534.91763
  21757893.404   -11721009.326 6  -9039629.73821
  21395284.4434   -9774687.86647  -7545172.52761
 92  9 17 19 19 29.9980000  0  4G20G16G17G 3
  20554143.529    -1153026.824 7   -862887.09023
  21119628.701    -1362569.880 7  -1025455.78423
  21740506.943   -11812386.094 6  -9110832.39421
  21379134.4594   -9859552.77847  -7611301.03261
 92  9 17 19 19 59.9980000  0  4G20G16G17G 3
  20558532.100    -1129969.684 7   -844920.51223
  21123405.693    -1342716.817 7  -1009985.89323
  21723164.420   -11903516.105 6  -9181842.76621
  21362998.0764   -9944348.00446  -7677375.22161
 92  9 17 19 20 29.9980000  0  4G20G16G17G 3
  20563021.318    -1106373.237 7   -826533.70323
  21127283.951    -1322350.887 7   -994116.36223
  21705872.4904         -0.78256
  21346878.4674  -10029059.82647  -7743384.43761
 92  9 17 19 20 59.9980000  0  4G20G16G17G 3
  20567609.787    -1082248.102 7   -807734.92523
  21131255.5144   -1301483.39447   -977855.99663
  21688626.2794     -90620.79146        -0.03871
  21330773.1864  -10113695.78047  -7809334.52461
 92  9 17 19 21 29.9980000  0  4G20G16G17G 3
  20572303.654    -1057578.666 7   -788512.02223
  21135325.912    -1280098.303 7   -961192.31923
  21671435.592     -180972.363 6    -70403.83521
  21314685.7404  -10198237.29347  -7875211.02961
 92  9 17 19 21 59.9980000  0  4G20G16G17G 3
  20577098.7794   -1032387.24847   -768882.37763
  21139486.475    -1258218.675 7   -944143.29123
  21654287.2874    -271076.42946   -140614.78761
  21298612.3574  -10282703.89847  -7941029.15561
 92  9 17 19 22 29.9980000  0  4G20G16G17G 3
  20581996.467    -1006668.548 7   -748841.86423
  21143744.037    -1235838.764 7   -926704.43223
  21637191.201     -360925.333 6   -210626.88721
  21282554.4284  -10367086.85047  -8006782.10361
 92  9 17 19 22 59.9980000  0  4G20G16G17G 3
  20586986.529     -980439.642 7   -728403.78623
  21148093.865    -1212975.514 7   -908888.93523
  21620139.7724    -450534.16846   -280451.94061
  21266509.8424  -10451400.14847  -8072480.78261
 92  9 17 19 23 29.9980000  0  4G20G16G17G 3
  20592081.084     -953670.506 7   -707544.75923
  21152544.928    -1189599.110 7   -890673.58623
  21603139.5224    -539870.94446   -350064.99161
  21250485.4754  -10535610.37847  -8138099.13961
 92  9 17 19 23 59.9980000  0  4G20G16G17G 3
  20597271.850     -926372.751 7   -686273.80723
  21157091.678    -1165720.658 7   -872067.03223
  21586191.631     -628944.765 6   -419473.14021
  21234479.0374  -10619726.05947  -8203643.83461
 92  9 17 19 24 29.9980000  0  4G20G16G17G 3
  20602567.170     -898548.984 7   -664592.98423
  21161727.482    -1141342.989 7   -853071.48123
  21569286.529     -717756.166 6   -488676.80621
  21218490.4594  -10703746.59247  -8269114.37861
 92  9 17 19 24 59.9980000  0  4G20G16G17G 3
  20607960.412     -870220.937 7   -642519.21823
  21166456.170    -1116487.098 7   -833703.27823
  21552434.0684    -806325.43046   -557691.79661
  21202516.3504  -10787690.57447  -8334525.25961
 92  9 17 19 25 29.9980000  0  4G20G16G17G 3
  20613444.928     -841394.096 7   -620056.77823
  21171277.8504   -1091158.74447   -813966.92863
  21535626.2724    -894655.39946   -626520.32561
  21186556.5614  -10871559.81647  -8399877.92061
 92  9 17 19 25 59.9980000  0  4G20G16G17G 3
  20619025.154     -812059.148 7   -597198.40023
  21176191.014    -1065348.805 7   -793855.32023
  21518865.4514    -982734.77446   -695153.57961
  21170612.9434  -10955341.87847  -8465162.64761
 92  9 17 19 26 29.9980000  0  4G20G16G17G 3
  20624704.857     -782228.350 7   -573953.65823
  21181188.092    -1039069.806 7   -773378.21323
  21502150.256    -1070574.163 6   -763599.82821
  21154688.2874  -11039045.83947  -8530386.50761
 92  9 17 19 26 59.9980000  0  4G20G16G17G 3
  20630476.037     -751899.824 7   -550321.07023
  21186279.7564   -1012318.77647   -752533.27763
  21485479.3344   -1158168.76846   -831855.34661
  21138773.0224  -11122666.21347  -8595545.24261
 92  9 17 19 27 29.9980000  0  5G20G16G26G17G 3
  20636335.740     -721094.335 7   -526316.82323
  21191458.1234    -985116.79547   -731336.95663
  23602014.9754         -0.88955
  21468853.272    -1245537.105 6   -899934.54021
  21122874.2564  -11206220.09947  -8660652.16161
 92  9 17 19 27 59.9980000  0  5G20G16G26G17G 3
  20642295.076     -689795.663 7   -501928.27923
  21196721.0764    -957447.87547   -709776.78063
  23582600.459     -102028.115 5
  21452275.584    -1332661.407 6   -967823.59221
  21106989.0684  -11289688.14647  -8725692.19861
 92  9 17 19 28 29.9980000  0  6G20G16G26G17G 3G23
  20648346.186     -657996.646 7   -477149.85723
  21202077.154     -929304.763 7   -687847.11423
  23563206.959     -203942.560 5
  21435741.9364   -1419532.64846  -1035515.45161
  21091124.4904  -11373059.77647  -8790657.09661
  23674314.7724         -0.98253
 92  9 17 19 28 59.9980000  0  6G20G16G26G17G 3G23
  20654490.014     -625693.251 7   -451978.41123
  21207524.6544    -900683.09447   -665544.54063
  23543836.631     -305734.550 5        -0.34231
  21419257.5684   -1506143.84646  -1103004.66261
  21075280.3184  -11456327.30047  -8855540.88261
  23648507.3424    -135629.52443
 92  9 17 19 29 29.9980000  0  6G20G16G26G17G 3G23
  20660737.7644    -592882.42447   -426411.54863
  21213061.7794    -871579.38647   -642866.35063
  23524487.818     -407396.341 5    -79217.19721
  21402830.147    -1592489.970 6  -1170287.31821
  21059456.5294  -11539484.05947  -8920338.34561
  23622723.756     -271131.974 3
 92  9 17 19 29 59.9980000  0  6G20G16G26G17G 3G23
  20667067.982     -559591.478 7   -400470.59223
  21218689.365     -842021.178 7   -619834.01223
  23505164.1004    -508949.27345   -158349.21861
  21386444.4514   -1678596.02346  -1237382.94261
  21043649.2484  -11622553.82347  -8985068.01962
  23596953.3344    -406531.04543        -0.14671
 92  9 17 19 30 29.9980000  0  6G20G16G26G17G 3G23
  20673500.662     -525807.797 7   -374145.68223
  21224397.9984    -811996.27747   -596438.01063
  23485862.795     -610375.822 5   -237382.73221
  21370106.9204   -1764447.99546  -1304280.54761
  21027859.6934  -11705520.69647  -9049717.51962
  23571216.2564    -541809.71744   -105411.92661
 92  9 17 19 30 59.9980000  0  6G20G16G26G17G 3G23
  20680020.482     -491540.638 7   -347444.03223
  21230203.6314    -781513.48647   -572685.21662
  23466587.9594    -711679.91045   -316320.87561
  21353817.9824   -1850051.98646  -1370984.92662
  21012089.0454  -11788390.00347  -9114290.99061
  23545495.8504    -676972.65744   -210733.54461
 92  9 17 19 31 29.9980000  0  6G20G16G26G17G 3G23
  20686637.0144    -456778.61647   -320356.76563
  21236089.381     -750560.437 7   -548565.99122
  23447333.6704    -812844.80345   -395150.51561
  21337581.264    -1935394.135 7  -1437485.27422
  20996342.4754  -11871146.60847  -9178776.63661
  23519796.061     -812004.041 4   -315952.69621
 92  9 17 19 31 59.9980000  0  6G20G16G26G17G 3G23
  20693345.209     -421521.149 7   -292883.44923
  21242071.5684    -719136.73547   -524080.02162
  23428110.740     -913863.974 5   -473866.62621
  21321389.3264   -2020471.76646  -1503779.51262
  20980618.0144  -11953786.01147  -9243170.97061
  23494127.959     -946898.303 4   -421065.00921
 92  9 17 19 32 29.9980000  0  6G20G16G26G17G 3G23
  20700146.8264    -385777.38847   -265031.19663
  21248138.889     -687251.883 7   -499234.72322
  23408916.4984   -1014742.11245   -552472.83661
  21305249.9984   -2105292.28246  -1569873.39562
  20964910.4594  -12036314.13047  -9307478.58862
  23468482.4514   -1081660.47944   -526074.39461
 92  9 17 19 32 59.9980000  0  6G20G16G26G17G 3G23
  20707039.006     -349556.807 7   -236807.41023
  21254292.748     -654915.009 7   -474037.18822
  23389743.4514   -1115483.02945   -630972.12061
  21289153.834    -2189862.433 6  -1635772.19022
  20949227.4284  -12118736.75247  -9371703.99061
  23442866.3814   -1216295.11544   -630984.37361
 92  9 17 19 33 29.9980000  0  6G20G16G26G17G 3G23
  20714024.732     -312849.572 7   -208204.40023
  21260532.920     -622116.300 7   -448479.78423
  23370604.2644   -1216071.66645   -709352.74661
  21273110.1074   -2274170.57146  -1701466.82162
  20933567.4594  -12201040.05947  -9435836.43261
  23417269.2564   -1350787.88844   -735783.83461
 92  9 17 19 33 59.9980000  0  6G20G16G26G17G 3G23
  20721099.076     -275665.349 7   -179229.70723
  21266863.428     -588865.386 7   -422570.01923
  23351492.756    -1316511.918 5   -787617.75321
  21257118.311    -2358223.470 6  -1766962.56822
  20917925.7794  -12283229.73347  -9499880.31962
  23391705.5614   -1485143.99044   -840476.76861
 92  9 17 19 34 29.9980000  0  6G20G16G26G17G 3G23
  20728264.990     -238023.265 7   -149898.24423
  21273270.0294    -555180.75947   -396322.28062
  23332403.232    -1416817.429 5   -865777.78421
  21241170.3114   -2442037.92446  -1832272.51762
  20902301.5764  -12365321.24347  -9563847.71161
  23366161.4674   -1619377.62243   -945074.26961
 92  9 17 19 34 59.9980000  0  6G20G16G26G17G 3G23
  20735511.725     -199920.417 7   -120207.74822
  21279764.6474    -521059.04047   -369733.95362
  23313341.412    -1516979.945 5   -943826.38321
  21225266.9204   -2525608.75546  -1897392.62162
  20886701.7094  -12447307.91347  -9627733.41762
  23340645.7794   -1753481.18144  -1049570.42461
 92  9 17 19 35 29.9980000  0  6G20G16G26G17G 3G23
  20742855.459     -161348.265 7    -90151.56723
  21286341.631     -486491.988 7   -342798.61622
  23294313.2874   -1616985.53045  -1021752.65661
  21209412.342    -2608925.184 6  -1962314.49622
  20871121.717   -12529177.091 7  -9691527.56222
  23315149.514    -1887441.468 4  -1153954.98321
 92  9 17 19 35 59.9980000  0  6G20G16G26G17G 3G23
  20750282.068     -122315.923 7    -59736.79523
  21293002.834     -451488.851 7   -315523.47722
  23275309.7794   -1716838.13945  -1099559.76761
  21193601.0844   -2691994.12846  -2027043.52762
  20855565.2644  -12610934.33747  -9755234.49162
  23289685.131    -2021263.142 4  -1258231.47921
 92  9 17 19 36 29.9980000  0  6G20G16G26G17G 3G23
  20757796.397      -82822.513 7    -28962.74122
  21299749.5684    -416048.41347   -287907.58062
  23256336.467    -1816531.032 5  -1177242.40921
  21177843.0144   -2774812.42746  -2091577.24262
  20840032.4284  -12692574.84647  -9818850.46462
  23264246.3264   -2154940.70744  -1362395.72461
 92  9 17 19 36 59.9980000  0  6G20G16G26G17G 3G23
  20765403.889      -42858.542 7      2177.98522
  21306574.928     -380160.575 7   -259943.06623
  23237400.240    -1916049.986 5  -1254789.54521
  21162130.404    -2857368.233 6  -2155906.42422
  20824518.6474  -12774085.39647  -9882365.16562
  23238835.1154   -2288460.51644  -1466437.07461
 92  9 17 19 37 29.9980000  0  6G20G16G26G17G 3G23
  20773093.123       -2443.401 7     33670.26323
  21313488.0144    -343844.85047   -231645.14162
  23218495.568    -2015408.001 5  -1332211.25221
  21146468.4754   -2939677.82546  -2220043.74962
  20809029.045   -12855480.950 7  -9945790.24922
  23213456.123    -2421836.418 4  -1570366.23521
 92  9 17 19 37 59.9980000  0  6G20G16G26G17G 3G23
  20780871.022       38440.778 7     65528.02723
  21320484.693     -307083.486 7   -202999.95522
  23199619.8734   -2114581.97145  -1409489.55061
  21130856.3654   -3021721.42247  -2283973.80462
  20793565.0454  -12936739.45247 -10009108.55661
  23188103.904    -2555045.474 5  -1674165.36921
 92  9 17 19 38 29.9980000  0  6G20G16G26G17G 3G23
  20788741.4204      79769.10447     97731.89462
  21327557.248     -269900.390 7   -174026.15122
  23180782.7954   -2213591.08345  -1486639.39861
  21115291.7094   -3103521.50847  -2347714.11262
  20778124.9754  -13017882.18047 -10072336.63562
  23162787.600    -2688108.257 5  -1777850.54221
 92  9 17 19 38 59.9980000  0  6G20G16G26G17G 3G23
  20796688.545      121551.205 7    130289.33022
  21334716.022     -232286.264 7   -144716.48322
  23161974.8734   -2312420.42745  -1563649.16061
  21099775.889    -3185066.403 7  -2411255.56322
  20762707.4204  -13098895.52047 -10135463.90962
  23137492.834    -2821010.937 5  -1881410.95621
 92  9 17 19 39 29.9970000  0  6G20G16G26G17G 3G23
  20804725.157      163795.619 7    163207.02322
  21341959.868     -194232.346 7   -115064.12122
  23143205.345    -2411051.236 5  -1640504.21621
  21084306.728    -3266340.825 7  -2474586.25922
  20747320.9704  -13179762.58647 -10198477.20062
  23112238.6734   -2953734.19345  -1984831.55261
 92  9 17 19 39 59.9970000  0  6G20G16G26G17G 3G23
  20812854.673      206502.985 7    196485.45222
  21349283.485     -155737.935 7    -85068.50922
  23124476.9154   -2509486.24145  -1717206.72861
  21068892.6964   -3347349.59047  -2537709.94962
  20731960.3844  -13260486.90447 -10261379.25062
  23087010.642    -3086283.747 5  -2088116.81521
 92  9 17 19 40 29.9970000  0  6G20G16G26G17G 3G23
  20821070.079      249669.917 7    230121.98822
  21356689.899     -116805.557 7    -54731.62422
  23105780.735    -2607718.359 5  -1793751.14021
  21053527.9234   -3428089.54247
  20716627.4464  -13341063.12047
  23061829.5794   -3218652.52645  -2191261.20861
 92  9 17 19 40 59.9970000  0  6G20G16G26G17G 3G23
  20829371.017      293302.115 7    264121.06122
  21364183.399      -77429.723 7    -24049.19022
  23087129.1494   -2705736.99645  -1870129.18161
  21038217.5714   -3508552.40247
  20701324.6344  -13421481.68347
  23036676.376    -3350830.120 5  -2294256.63121
 92  9 17 19 41 29.9970000  0  6G20G16G26G17G 3G23
  20837758.579      337388.170 7    298473.79022
  21371762.274      -37621.787 7      6969.94222
  23068517.017    -2803547.869 5  -1946345.32121
  21022953.2904   -3588747.72247
  20686048.7984  -13501750.30547
  23011557.204    -3482823.121 5  -2397108.21121
 92  9 17 19 41 59.9970000  0  6G20G16G26G17G 3G23
  20846231.267      381898.698 7    333157.28922
  21379413.923        2589.602 7     38303.44822
  23049937.501    -2901174.188 5  -2022417.64521
  21007740.571    -3668701.752 7  -2788114.15122
  20670799.259   -13581893.472 7 -10511825.87022
  22986468.095    -3614655.840 5  -2499834.89421
 92  9 17 19 42 29.9970000  0  6G20G16G26G17G 3G23
  20854786.0874     426850.37347    368184.53962
  21387142.860       43221.053 7     69964.28522
  23031400.970    -2998594.033 5  -2098329.10821
  20992576.8144   -3748395.97447  -2850213.51962
  20655574.1814  -13661890.78747 -10574161.42162
  22961417.087    -3746307.269 5  -2602420.31421
 92  9 17 19 42 59.9970000  0  6G20G16G26G17G 3G23
  20863425.454      472238.370 7    403551.84322
  21394952.157       84267.845 7    101948.77322
  23012898.4234   -3095806.45145  -2174078.96261
  20977462.9464   -3827832.54447  -2912112.13162
  20640378.689   -13741742.869 7 -10636383.81522
  22936399.228    -3877777.307 5  -2704864.38321
 92  9 17 19 43 29.9970000  0  6G20G16G26G17G 3G23
  20872138.6574     518057.37747    439254.97962
  21402843.728      125725.209 7    134253.17722
  22994439.814    -3192811.265 5  -2249667.02521
  20962391.3454   -3907014.11947  -2973812.03362
  20625212.4234  -13821450.28647 -10698493.46662
  22911416.009    -4009066.159 5  -2807167.26521
 92  9 17 19 43 59.9970000  0  6G20G16G26G17G 3G23
  20880941.517      564303.833 7    475291.17822
  21410811.751      167589.605 7    166874.75422
  22976022.3924   -3289606.44645  -2325091.72761
  20947372.5714   -3985941.41747  -3035313.81562
  20610071.4624  -13901012.66247 -10760490.10862
  22886465.7514   -4140172.60045  -2909328.01661
 92  9 17 19 44 29.9970000  0  6G20G16G26G17G 3G23
  20889823.5174     610979.69047    511662.00862
  21418856.853      209863.418 7    199815.35422
  22957645.0404   -3386183.88745  -2400346.77661
  20932403.4074   -4064610.05247  -3096614.02462
  20594960.9394  -13980423.71447 -10822368.84662
  22861552.1814   -4271089.70145  -3011341.21461
 92  9 17 19 44 59.9970000  0  6G20G16G26G17G 3G23
  20898783.0644     658063.59147    548350.77362
  21426975.064      252525.534 7    233058.51722
  22939301.493    -3482559.634 5  -2475444.63221
  20917476.7434   -4143039.14447  -3157727.59062
  20579873.0564  -14059700.15647 -10884142.68662
  22836668.931    -4401834.054 5  -3113219.82821
 92  9 17 19 45 29.9970000  0  6G20G16G26G17G 3G23
  20907819.6894     705552.46147    585355.09262
  21435164.5564     295573.36547    266602.25162
  22921003.790    -3578730.786 5  -2550383.09021
  20902595.181    -4221228.961 7  -3218654.69822
  20564815.1894  -14138840.79847 -10945810.71162
  22811829.7284   -4532403.93645  -3214962.47761
 92  9 17 19 45 59.9970000  0  6G20G16G26G17G 3G23
  20916934.9624     753448.90047    622676.98262
  21443429.251      339009.743 7    300448.74622
  22902743.415    -3674689.355 5  -2625155.91721
  20887768.993    -4299174.738 7  -3279391.64122
  20549781.0094  -14217839.00447 -11007367.75062
  22787009.110    -4662792.176 5  -3316563.59821
 92  9 17 19 46 29.9970000  0  6G20G16G26G17G 3G23
  20926127.9154     801755.23147    660318.27862
  21451768.774      382836.951 7    334599.77122
  22884527.868    -3770427.333 5  -2699756.79621
  20872980.8374   -4376871.47347  -3339934.53062
  20534776.8374  -14296687.90047 -11068808.43262
  22762239.110    -4792991.423 5  -3418017.45521
 92  9 17 19 46 59.9970000  0  6G20G16G26G17G 3G23
  20935400.1344     850477.06547    698283.32862
  21460184.314      427060.675 7    369059.76622
  22866350.845    -3865933.656 5  -2774177.21321
  20858243.4624   -4454311.16647  -3400277.12962
  20519803.767   -14375377.784 7 -11130125.21122
  22737502.485    -4922991.102 5  -3519315.79221
 92  9 17 19 47 29.9970000  0  6G20G16G26G17G 3G23
  20944747.3064     899607.09547    736566.47062
  21468674.876      471674.198 7    403823.50722
  22848218.720    -3961209.754 5  -2848418.18321
  20843553.1964   -4531498.64447  -3460423.20162
  20504859.4154  -14453911.48847 -11191320.29262
  22712798.110    -5052794.106 5  -3620460.86921
 92  9 17 19 47 59.9970000  0  6G20G16G26G17G 3G23
  20954176.9544     949144.78347    775167.25762
  21477239.564      516677.527 7    438891.00722
  22830134.7354   -4056250.03645  -2922475.44761
  20828913.8924   -4608431.13647  -3520370.57262
  20489946.548   -14532284.610 7 -11252390.24322
  22688136.618    -5182395.472 5  -3721448.83821
 92  9 17 19 48 29.9970000  0  6G20G16G26G17G 3G23
  20963677.2204     999078.11447    814076.32662
  21485874.821      562057.963 7    474252.33322
  22812092.751    -4151061.155 5  -2996354.14521
  20814319.556    -4685118.937 7  -3580127.26422
  20475062.0324  -14610504.73147 -11313340.96662
  22663509.9704   -5311802.46045  -3822285.34861
 92  9 17 19 48 59.9970000  0  6G20G16G26G17G 3G23
  20973251.3534    1049399.28347    853287.60862
  21494581.5954     607809.02547    509902.48362
  22794094.657    -4245644.889 5  -3070055.63821
  20799772.7354   -4761566.35547  -3639696.66662
  20460204.7904  -14688575.16447 -11374175.06262
  22638923.040    -5441017.962 5  -3922972.63821
 92  9 17 19 49 29.9970000  0  6G20G16G26G17G 3G23
  20982902.3764    1100105.51047    892798.95562
  21503356.462      653928.563 7    545839.74922
  22776139.3994   -4339997.81545  -3143577.31161
  20785273.1264   -4837773.70147  -3699079.00962
  20445376.8374  -14766494.08647 -11434891.09362
  22614370.782    -5570039.501 5  -4023508.79321
 92  9 17 19 49 59.9970000  0  6G20G16G26G17G 3G23
  20992632.5954    1151249.22747    932651.19462
  21512213.212      700468.585 7    582104.67022
  22758238.704    -4434061.981 6  -3216873.95221
  20770828.040    -4913686.226 7  -3758231.59422
  20430588.1264  -14844204.51047 -11495444.65562
  22589865.407    -5698809.723 6  -4123849.11421
 92  9 17 19 50 29.9970000  0  6G20G16G26G17G 3G23
  21002439.9544    1202788.23547    972811.45162
  21521142.907      747387.849 7    618665.10422
  22740386.5404   -4527874.14546  -3289974.23861
  20756433.3294   -4989343.42547  -3817185.23562
  20415830.3844  -14921744.02147 -11555865.04062
  22565404.8534   -5827366.13646  -4224022.82461
 92  9 17 19 50 59.9970000  0  6G20G16G26G17G 3G23
  21012321.4854    1254714.71347   1013273.62662
  21530140.7514     794678.35947    655514.80262
  22722581.3994   -4621436.25146  -3362879.68461
  20742080.1494   -5064750.15447  -3875943.71162
  20401109.3454  -14999115.89547 -11616154.80362
  22540978.9704   -5955711.56946  -4324032.14461
 92  9 17 19 51 29.9970000  0  6G20G16G26G17G 3G23
  21022279.6814    1307039.84247   1054046.43562
  21539214.939      842351.639 7    692662.77122
  22704827.1734   -4714731.23645  -3435576.96361
  20727780.4154   -5139893.21547  -3934496.73162
  20386422.3214  -15076304.69647 -11676301.91262
  22516602.040    -6083829.902 6  -4423864.50821
 92  9 17 19 51 59.9970000  0  6G20G16G26G17G 3G23
  21032308.5874    1359740.18147   1095111.61262
  21548353.2124     890384.66747    730091.05862
  22687121.376    -4807776.782 6  -3508079.87521
  20713530.8144   -5214792.62647  -3992859.90262
  20371762.6184  -15153328.86247 -11736320.72362
  22492258.876    -6211739.454 5  -4523534.19721
 92  9 17 19 52 29.9970000  0  6G20G16G26G17G 3G23
  21042408.899     1412815.294 7   1136468.81722
  21557561.4544     938777.65147    767799.81062
  22669464.056    -4900567.542 5  -3580384.27621
  20699321.4704   -5289446.63547  -4051031.83362
  20357140.3374  -15230184.14647 -11796207.95362
  22467959.571    -6339435.628 5  -4623037.61921
 92  9 17 19 52 59.9970000  0  6G20G16G26G17G 3G23
  21052578.2354    1466258.46147   1178112.77762
  21566838.087      987523.974 7    805783.91222
  22651855.0714   -4993104.45745  -3652490.86861
  20685163.5324   -5363859.70147  -4109016.02362
  20342543.6424  -15306872.98347 -11855965.46962
  22443697.884    -6466920.902 5  -4722376.69121
 92  9 17 19 53 29.9970000  0  6G20G16G26G17G 3G23
  21062813.2124    1520037.43547   1220018.40462
  21576176.462     1036591.262 7    844018.12722
  22634291.345    -5085414.076 6  -3724420.35621
  20671041.6574   -5438061.49647  -4166835.59162
  20327979.5714  -15383422.81547 -11915614.67262
  22419473.689    -6594222.224 5  -4821572.41321
 92  9 17 19 53 59.9970000  0  6G20G16G26G17G 3G23
  21073108.040     1574138.845 7   1262175.30322
  21585571.446     1085966.629 7    882492.39822
  22616762.681    -5177504.087 5  -3796178.72421
  20656963.4234   -5512062.55847  -4224498.74262
  20313433.4624  -15459842.51047 -11975162.47562
  22395286.5014   -6721348.08845  -4920631.40661
 92  9 17 19 54 29.9970000  0  6G20G16G26G17G 3G23
  21083465.5794    1628580.37947   1304597.26762
  21595029.5484    1135668.32847    921220.93762
  22599288.220    -5269350.864 6  -3867747.54121
  20642919.4074   -5585842.66447  -4281989.71162
  20298924.1494  -15536109.63047 -12034591.38762
  22371126.118    -6848275.909 5  -5019536.10321
 92  9 17 19 54 59.9970000  0  6G20G16G26G17G 3G23
  21093893.7284    1683377.34747   1347296.18462
  21604552.9154    1185712.85247    960216.64662
  22581860.454    -5360933.177 5  -3939110.30021
  20628927.3374   -5659383.10547  -4339293.93562
  20284442.4394  -15612203.63347 -12093885.40462
  22347019.0874   -6974984.96545  -5118270.32161
 92  9 17 19 55 29.9970000  0  6G20G16G26G17G 3G23
  21104393.384     1738548.949 7   1390287.01222
  21614146.696     1236119.365 7    999494.39522
  22564487.017    -5452226.315 5  -4010247.72121
  20614983.0484   -5732662.06847  -4396394.42062
  20269997.8604  -15688100.77647 -12153026.02562
  22322953.884    -7101451.042 6  -5216815.22221
 92  9 17 19 55 59.9970000  0  6G20G16G26G17G 3G23
  21114957.9234    1794062.15847   1433543.97962
  21623802.806     1286854.971 7   1039028.58422
  22547163.165    -5543256.978 5  -4081180.63621
  20601080.0094   -5805709.46747  -4453314.45062
  20255588.6494  -15763829.37947 -12212035.31462
  22298926.267    -7227702.442 6  -5315192.84021
 92  9 17 19 56 29.9970000  0  6G20G16G26G17G 3G23
  21125589.6104    1849945.05546   1477089.03662
  21633522.392     1337947.777 7   1078841.12022
  22529896.798    -5633991.461 5  -4151882.73621
  20587229.0094   -5878495.65147  -4510030.94862
  20241218.7044  -15839356.99847 -12270887.99062
  22274951.587    -7353706.437 6  -5413377.67721
 92  9 17 19 56 59.9970000  0  6G20G16G26G17G 3G23
  21136296.6654    1906204.04746   1520927.14962
  21643314.837     1389404.903 7   1118937.54222
  22512690.954    -5724418.235 6  -4222345.07821
  20573431.3144   -5951011.70247  -4566536.95862
  20226884.7434  -15914672.08247 -12329575.05862
  22251023.446    -7479451.488 6  -5511360.74521
 92  9 17 19 57 29.9970000  0  6G20G16G26G17G 3G23
  21147068.954     1962808.034 7   1565034.11522
  21653171.087     1441195.374 7   1159293.70922
  22495535.7744   -5814561.99145  -4292586.87461
  20559679.0644   -6023285.33647  -4622854.06162
  20212586.6344  -15989800.88447 -12388116.97062
  22227134.853    -7604963.675 6  -5609162.35221
 92  9 17 19 57 59.9970000  0  6G20G16G26G17G 3G23
  21157909.0714    2019770.90247   1609420.71462
  21663090.587     1493333.928 6   1199921.10422
  22478442.720    -5904403.279 5  -4362593.00021
  20545976.1494   -6095300.31747  -4678969.61962
  20198329.7434  -16064725.21647 -12446499.55362
  22203299.876    -7730224.145 6  -5706767.81421
 92  9 17 19 58 29.9970000  0  6G20G16G26G17G 3G23
  21168817.353     2077075.955 7   1654073.97122
  21673073.9624    1545804.37746   1240807.11562
  22461397.712    -5993952.792 5  -4432371.76621
  20532318.1264   -6167069.99147  -4734894.03662
  20184108.0014  -16139456.15747 -12504731.45262
  22179505.642    -7855244.548 6  -5804186.21921
 92  9 17 19 58 59.9970000  0  6G20G16G26G17G 3G23
  21179784.142     2134726.448 7   1698996.38722
  21683125.407     1598610.217 6   1281954.47022
  22444416.8994   -6083200.87545  -4501915.63261
  20518709.4394   -6238588.29047  -4790622.56662
  20169926.1814  -16213985.46747 -12562806.23162
  22155767.1964   -7980016.27546  -5901410.86661
 92  9 17 19 59 29.9970000  0  6G20G16G26G17G 3G23
  21190822.0404    2192737.66647   1744199.88062
  21693240.978     1651766.975 6   1323375.28822
  22427494.954    -6172126.936 5  -4571208.56421
  20505148.9464   -6309837.66647  -4846141.55662
  20155786.298   -16288293.189 7 -12620708.33822
  22132076.1034   -8104518.99046  -5998425.89261
 92  9 17 19 59 59.9970000  0  6G20G16G26G17G 3G23
  21201924.368     2251080.256 7   1789661.55222
  21703420.0324    1705245.57546   1365046.86062
  22410632.9544   -6260754.19445  -4640268.69061
  20491636.3374   -6380844.58747  -4901471.60762
  20141683.251   -16362403.835 7 -12678456.88422
  22108430.4234   -8228777.47746  -6095250.62261
 92  9 17 20  0 29.9970000  0  6G20G16G26G17G 3G23
  21213086.6574    2309743.08646   1835372.71362
  21713653.3454    1759036.07046   1406961.48762
  22393819.618    -6349088.410 6  -4709100.46421
  20478172.8844   -6451617.60347  -4956619.40462
  20127615.1814  -16436323.73247 -12736056.79062
  22084826.931    -8352797.993 6  -6191889.89621
 92  9 17 20  0 59.9970000  0  6G20G16G26G17G 3G23
  21224317.4234    2368725.95947   1881333.27662
  21723946.837     1813137.981 6   1449118.77721
  22377064.5014   -6437124.49645  -4777699.92661
  20464748.9934   -6522153.89147  -5011582.73462
  20113586.4314  -16510048.59547 -12793504.72262
  22061271.556    -8476576.110 6  -6288340.28721
 92  9 17 20  1 29.9970000  0  6G20G16G26G17G 3G23
  21235595.0564    2428021.39846   1927537.43062
  21734300.923     1867544.434 7   1491513.35121
  22360371.134    -6524863.548 5  -4846067.93721
  20451369.3454   -6592458.82147  -5066365.78662
  20099594.5794  -16583580.67647 -12850802.42962
  22037767.056    -8600113.833 6  -6384603.37121
 92  9 17 20  1 59.9970000  0  6G20G16G26G17G 3G23
  21246942.9704    2487647.15546   1973999.00162
  21744716.501     1922273.748 6   1534159.53721
  22343737.0484   -6612282.08746  -4914186.19961
  20438037.6574   -6662511.38047  -5120952.18662
  20085644.1424  -16656897.23847 -12907932.21062
  22014305.4934   -8723388.53646  -6480661.49861
 92  9 17 20  2 29.9970000  0  6G20G16G26G17G 3G23
  21258350.6894    2547597.93046   2020713.82861
  21755192.587     1977321.419 6   1577053.77621
  22327161.9234   -6699378.84146  -4982053.73961
  20424751.9854   -6732313.95847  -5175343.79362
  20071734.6344  -16729998.16347 -12964893.95162
  21990894.759    -8846400.432 6  -6576514.84521
 92  9 17 20  2 59.9970000  0  6G20G16G26G17G 3G23
  21269817.1104    2607872.15746   2067680.68962
  21765728.9704    2032685.18046   1620194.30761
  22310649.7204   -6786150.49746  -5049667.95661
  20411516.6964   -6801865.88847  -5229540.09662
  20057865.9934  -16802880.82647 -13021685.63362
  21967539.3064   -8969146.31946  -6672160.91061
 92  9 17 20  3 29.9970000  0  6G20G16G26G17G 3G23
  21281355.8844    2668479.46746   2114907.10762
  21776324.696     2088376.013 6   1663589.71621
  22294202.048    -6872581.278 5  -5117016.52521
  20398332.4934   -6871154.32747  -5283531.07762
  20044038.2514  -16875530.04047 -13078295.39862
  21944237.9784   -9091611.18746  -6767587.99661
 92  9 17 20  3 59.9970000  0  6G20G16G26G17G 3G23
  21292947.0404    2729393.29046   2162372.35762
  21786979.985     2144367.509 6   1707219.41221
  22277817.774    -6958692.083 6  -5184115.78921
  20385195.1814   -6940203.27047  -5337335.44762
  20030253.3604  -16947967.55547 -13134740.20462
  21920980.4934   -9213816.88646  -6862813.14261
 92  9 17 20  4 29.9970000  0  6G20G16G26G17G 3G23
  21304598.6494    2790617.06046   2210079.12362
  21797691.3604    2200663.27146   1751086.18561
  22261491.524    -7044473.566 6  -5250958.42521
  20372102.2984   -7009006.23247  -5390948.13262
  20016511.1814  -17020184.58547 -13191013.21962
  21897777.321    -9335754.919 6  -6957829.71721
 92  9 17 20  4 59.9970000  0  6G20G16G26G17G 3G23
  21316302.3374    2852126.52246   2258008.50562
  21808458.087     2257239.892 6   1795171.82021
  22245225.4624   -7129944.60045  -5317559.14861
  20359049.9074   -7077584.80547  -5444385.97063
  20002809.6344  -17092201.14747 -13247130.01062
  21874621.2984   -9457444.94946  -7052653.04361
 92  9 17 20  5 29.9970000  0  6G20G16G26G17G 3G23
  21328058.8214    2913924.58946   2306162.77462
  21819281.056     2314101.144 6   1839479.24421
  22229023.6814   -7215096.18246  -5383910.95361
  20346044.462    -7145933.632 7  -5497644.78622
  19989144.6894  -17164009.04847 -13303084.20462
  21851510.337    -9578879.020 6  -7147276.92721
 92  9 17 20  5 59.9970000  0  6G20G16G26G17G 3G23
  21339872.2824    2976002.80346   2354535.34061
  21830151.8604    2371238.78146   1884002.02861
  22212881.6494   -7299930.69346  -5450015.68661
  20333084.0794   -7214057.94647  -5550728.66362
  19975517.4314  -17235611.44747 -13358878.27462
  21828452.8374   -9700060.35346  -7241703.86061
 92  9 17 20  6 29.9970000  0  6G20G16G26G17G 3G23
  21351743.0244    3038370.77346   2403133.68661
  21841079.079     2428662.442 6   1928747.68021
  22196798.5874   -7384433.08446  -5515861.64761
  20320162.8374   -7281946.05247  -5603628.47262
  19961933.3764  -17306993.90347 -13414500.95962
  21805442.774    -9820974.821 6  -7335922.84521
 92  9 17 20  6 59.9960000  0  6G20G16G26G17G 3G23
  21363661.5204    3101007.53946   2451941.50261
  21852057.1294    2486351.63946   1973700.23461
  22180776.9264   -7468613.68746  -5581456.84461
  20307285.3954   -7349611.16847  -5656354.52362
  19948392.7384  -17378167.57647 -13469960.95162
  21782485.949    -9941632.228 6  -7429941.55121
 92  9 17 20  7 29.9960000  0  6G20G16G26G17G 3G23
  21375633.8794    3163920.86246   2500964.80361
  21863088.4024    2544315.42646   2018866.77461
  22164824.418    -7552468.693 6  -5646798.34021
  20294452.3484   -7417051.10547  -5708905.11562
  19934887.8634  -17449128.53047 -13525255.19562
  21759571.645   -10062031.953 6  -7523759.47821
 92  9 17 20  7 59.9960000  0  6G20G16G26G17G 3G23
  21387658.0594    3227115.78746   2550207.54761
  21874173.6294    2602559.10146   2064251.37761
  22148931.5124   -7635982.30446  -5711873.81761
  20281667.6214   -7484254.32747  -5761271.26062
  19921425.8714  -17519862.21347 -13580372.33762
  21736711.004   -10182157.701 6  -7617363.93021
 92  9 17 20  8 29.9960000  0  6G20G16G26G17G 3G23
  21399733.0514    3290574.11446   2599655.53061
  21885304.9104    2661064.51846   2109839.94361
  22133102.5434   -7719167.18346  -5776693.14661
  20268918.4964   -7551235.80347  -5813464.60962
  19908008.6214  -17590381.74247 -13635322.61762
  21713902.691   -10302022.817 6  -7710765.25521
 92  9 17 20  8 59.9960000  0  6G20G16G26G17G 3G23
  21411864.1764    3354311.43346   2649320.90961
  21896492.301     2719847.934 6   2155645.13921
  22117337.0204   -7802001.26746  -5841239.10661
  20256217.7544   -7617977.16347  -5865470.85863
  19894635.5514  -17660666.32147 -13690089.81362
  21691147.4884  -10421606.63846  -7803947.40061
 92  9 17 20  9 29.9960000  0  6G20G16G26G17G 3G23
  21424048.8094    3418328.72746   2699204.43862
  21907730.1454    2778911.00246   2201668.24561
  22101644.8714   -7884478.65746  -5905507.14661
  20243565.707    -7684474.587 7  -5917287.02223
  19881303.2624  -17730710.05347 -13744669.33762
  21668444.098   -10540903.528 6  -7896905.95721
 92  9 17 20  9 59.9960000  0  6G20G16G26G17G 3G23
  21436281.7384    3482630.23646   2749309.44961
  21919023.4734    2838258.32946   2247912.85561
  22086016.6914   -7966589.12246  -5969489.26161
  20230959.4414   -7750721.52947  -5968908.01162
  19868024.3874  -17800503.86447 -13799054.11862
  21645799.4654  -10659904.43246  -7989633.82961
 92  9 17 20 10 29.9960000  0  6G20G16G26G17G 3G23
  21448569.6764    3547201.94246   2799625.00761
  21930369.699     2897876.257 6   2294368.34021
  22070461.246    -8048340.981 6  -6033191.94421
  20218394.1214   -7816728.94847  -6020342.35263
  19854790.6914  -17870056.00847 -13853250.58062
  21623209.246   -10778617.891 6  -8082137.70821
 92  9 17 20 10 59.9960000  0  6G20G16G26G17G 3G23
  21460909.9414    3612032.68446   2850142.40061
  21941761.770     2957754.474 6   2341026.62521
  22054970.926    -8129739.922 6  -6096619.62421
  20205881.1524   -7882505.21147  -6071596.57362
  19841597.3324  -17939372.93847 -13907263.76962
  21600673.4814  -10897050.78246  -8174423.00461
 92  9 17 20 11 29.9960000  0  6G20G16G26G17G 3G23
  21473295.9494    3677132.97746   2900869.84161
  21953207.934     3017903.708 6   2387896.12021
  22039552.5904   -8210769.64646  -6159759.61761
  20193411.2464   -7948037.26047  -6122660.50363
  19828453.8014  -18008439.24347 -13961081.66262
  21578193.184   -11015188.031 6  -8266477.92421
 92  9 17 20 11 59.9960000  0  6G20G16G26G17G 3G23
  21485729.6764    3742476.57746   2951786.87861
  21964701.918     3078298.452 6   2434956.91421
  22024200.8244   -8291450.65746  -6222627.88761
  20180982.1684   -8013348.02347  -6173552.00163
  19815357.1374  -18077275.70447 -14014720.45062
  21555762.941   -11133050.319 6  -8358318.57621
 92  9 17 20 12 29.9960000  0  6G20G16G26G17G 3G23
  21498213.0744    3808079.04946   3002905.60861
  21976245.5744    3138954.52146   2482221.31861
  22008914.082    -8371761.490 6  -6285207.71021
  20168597.8014   -8078419.40647  -6224256.96763
  19802304.8094  -18145861.39447 -14068163.83662
  21533391.8874  -11250617.29946  -8449929.07961
 92  9 17 20 12 59.9960000  0  6G20G16G26G17G 3G23
  21510742.4264    3873924.52146   3054213.69661
  21987834.1764    3199856.85046   2529677.58661
  21993703.035    -8451712.494 6  -6347507.14721
  20156261.5044   -8143264.61847  -6274785.69463
  19789295.4814  -18214207.12347 -14121420.25162
  21511072.4264  -11367899.92746  -8541318.04661
 92  9 17 20 13 29.9960000  0  6G20G16G26G17G 3G23
  21523323.9964    3940032.58546   3105726.40261
  21999471.871     3261025.712 6   2577341.56221
  21978560.785    -8531278.680 6  -6409506.72521
  20143968.1134   -8207861.00647  -6325120.53963
  19776342.5274  -18282288.25647 -14174470.46462
  21488814.449   -11484873.969 6  -8632466.57721
 92  9 17 20 13 59.9960000  0  6G20G16G26G17G 3G23
  21535952.0354    4006398.66946   3157440.16361
  22011163.7704    3322457.36846   2625210.31061
  21963494.926    -8610458.237 6  -6471205.02921
  20131718.7074   -8272210.20147  -6375262.76163
  19763438.5984  -18350103.79147 -14227313.73062
  21466614.199   -11601539.134 6  -8723374.46021
 92  9 17 20 14 29.9960000  0  6G20G16G26G17G 3G23
  21548631.8484    4073021.89046   3209354.28461
  22022905.621     3384151.174 6   2673283.33921
  21948503.2074   -8689247.01646  -6532598.82861
  20119522.3794   -8336310.43547  -6425210.99263
  19750584.7384  -18417649.70247 -14279946.90862
  21444469.316   -11717890.956 6  -8814038.17221
 92  9 17 20 14 59.9960000  0  6G20G16G26G17G 3G23
  21561349.027     4139856.423 6   3261433.04921
  22034686.8244    3446061.75246   2721525.31161
  21933573.316    -8767685.006 6  -6593719.30221
  20107367.1454   -8400204.18847  -6474998.33563
  19737772.9264  -18484966.64447 -14332401.66362
  21422379.3794  -11833970.54246  -8904489.72861
 92  9 17 20 15 29.9960000  0  6G20G16G26G17G 3G23
  21574115.449     4206942.318 6   3313707.69321
  22046515.3564    3508229.53946   2769967.69661
  21918725.762    -8845726.257 6  -6654530.62421
  20095257.2624   -8463849.11647  -6524591.78763
  19725015.2774  -18552009.31347 -14384642.70162
  21400354.1134  -11949733.43846  -8994694.51961
 92  9 17 20 15 59.9960000  0  6G20G16G26G17G 3G23
  21586932.6064    4274294.92946   3366190.18161
  22058396.723     3570670.367 6   2818622.78621
  21903951.496    -8923350.101 6  -6715016.69821
  20083192.2464   -8527226.76147  -6573976.95563
  19712315.2544  -18618756.99547 -14436653.87262
  21378390.613   -12065159.227 6  -9084636.64921
 92  9 17 20 16 29.9960000  0  6G20G16G26G17G 3G23
  21599799.1764    4341891.21246   3418862.54061
  22070326.1764    3633361.74846   2867473.14961
  21889256.1764   -9000573.82046  -6775190.96861
  20071177.7544   -8590357.61647  -6623169.81963
  19699668.3874  -18685227.71847 -14488449.23262
  21356483.582   -12180265.885 6  -9174330.10921
 92  9 17 20 16 59.9960000  0  6G20G16G26G17G 3G23
  21612701.9414    4409716.01646   3471712.96061
  22082302.3714    3696289.76546   2916507.88261
  21874635.012    -9077407.209 6  -6835061.11421
  20059210.0274   -8653253.81147  -6672179.84363
  19687068.7384  -18751431.26947 -14540036.41062
  21334637.4884  -12295064.00746  -9263783.17161
 92  9 17 20 17 29.9960000  0  6G20G16G26G17G 3G23
  21625648.2854    4477760.37846   3524734.47161
  22094321.1374    3759445.47446   2965720.05561
  21860086.793    -9153853.411 6  -6894629.54921
  20047287.0274   -8715921.68947  -6721011.95063
  19674517.8164  -18817371.57547 -14591418.46562
  21312850.301   -12409557.698 6  -9352998.99121
 92  9 17 20 17 59.9960000  0  6G20G16G26G17G 3G23
  21638641.207     4546023.697 6   3577926.58721
  22106382.598     3822829.116 6   3015109.81921
  21845616.6914   -9229907.62346  -6953892.54161
  20035405.3014   -8778358.44547  -6769663.96063
  19662020.9884  -18883043.67547 -14642591.52062
  21291123.926   -12523742.496 6  -9441974.12021
 92  9 17 20 18 29.9960000  0  6G20G16G26G17G 3G23
  21651670.676     4614492.053 6   3631278.47821
  22118484.1374    3886427.56846   3064666.99261
  21831216.535    -9305577.956 6  -7012856.39321
  20023565.9264   -8840575.50847  -6818144.78263
  19649573.9024  -18948456.39647 -14693562.46262
  21269449.270   -12637627.575 6  -9530715.69921
 92  9 17 20 18 59.9960000  0  6G20G16G26G17G 3G23
  21664736.6914    4683174.71146   3684797.35461
  22130627.488     3950249.879 6   3114398.56221
  21816888.629    -9380850.115 6  -7071509.98221
  20011772.8874   -8902560.98947  -6866445.15363
  19637177.9264  -19013595.42747 -14744320.14762
  21247838.113   -12751199.278 6  -9619213.08221
 92  9 17 20 19 29.9960000  0  6G20G16G26G17G 3G23
  21677851.106     4752081.457 6   3738490.83221
  22142818.1134    4014307.19346   3164313.26361
  21802648.2154   -9455708.17146  -7129840.90961
  20000024.0434   -8964302.02247  -6914555.04263
  19624835.8094  -19078445.32747 -14794852.52962
  21226288.910   -12864442.679 6  -9707454.66221
 92  9 17 20 19 59.9960000  0  6G20G16G26G17G 3G23
  21691004.7774    4821200.18046   3792349.50561
  22155052.785     4078587.728 6   3214401.93621
  21788480.676    -9530159.023 6  -7187854.52621
  19988319.6914   -9025807.70847  -6962481.54563
  19612549.1214  -19143013.02047 -14845165.01462
  21204800.2384  -12977365.31546  -9795446.29161
 92  9 17 20 20 29.9960000  0  6G20G16G26G17G 3G23
  21704198.059     4890533.852 6   3846375.64921
  22167328.363     4143095.178 6   3264667.41621
  21774391.7544   -9604194.01046  -7245544.10461
  19976660.1914   -9087072.53647  -7010220.36463
  19600319.9494  -19207290.37747 -14895251.26662
  21183375.6454  -13089959.22646  -9883181.78861
 92  9 17 20 20 59.9960000  0  6G20G16G26G17G 3G23
  21717432.504     4960072.316 6   3900561.38621
  22179646.3954    4207819.82546   3315102.11261
  21760382.723    -9677817.921 6  -7302913.34821
  19965045.7624   -9148103.67947  -7057777.09363
  19588141.8094  -19271282.49547 -14945115.25962
  21162011.574   -13202229.992 6  -9970665.45821
 92  9 17 20 21 29.9960000  0  6G20G16G26G17G 3G23
  21730704.5824    5029815.57646   3954906.70461
  22192001.004     4272761.790 6   3365706.16221
  21746453.4494   -9751025.54246  -7359958.22061
  19953476.9494   -9208898.58847  -7105149.75763
  19576019.9024  -19334983.92447 -14994752.73362
  21140708.754   -13314173.099 6 -10057893.84021
 92  9 17 20 21 59.9960000  0  6G20G16G26G17G 3G23
  21744009.8164    5099757.17446   4009406.56261
  22204399.356     4337915.546 6   3416475.22321
  21732602.363    -9823816.823 6  -7416678.67021
  19941949.4654   -9269460.74747  -7152341.04363
  19563954.9024  -19398395.57547 -15044164.40462
  21119468.223   -13425789.689 6 -10144867.76721
 92  9 17 20 22 29.9960000  0  6G20G16G26G17G 3G23
  21757358.848     5169875.935 6   4064044.47121
  22216832.988     4403261.128 6   3467393.77721
  21718825.5204   -9896208.91746  -7473088.04661
  19930466.6134   -9329807.73647  -7199364.66263
  19551939.4884  -19461533.81447 -15093363.03262
  21098288.598   -13537096.578 6 -10231600.35921
 92  9 17 20 22 59.9960000  0  6G20G16G26G17G 3G23
  21770731.246     5240159.751 6   4118810.97421
  22229302.668     4468786.713 6   3518452.57821
  21705123.465    -9968207.474 6  -7529190.77521
  19919025.8564   -9389949.49547  -7246228.37163
  19539974.0204  -19524405.22547 -15142353.74762
  21077160.7854  -13648101.09346 -10318097.33461
 92  9 17 20 23 29.9960000  0  6G20G16G26G17G 3G23
  21784141.887     5310634.822 6   4173726.53021
  22241811.9494    4534519.43046   3569672.78561
  21691503.9264  -10039781.74246  -7584962.89961
  19907623.6994   -9449857.17647  -7292909.67663
  19528067.0044  -19586978.71447 -15191112.30362
  21056102.949   -13758772.664 6 -10404334.89721
 92  9 17 20 23 59.9960000  0  6G20G16G26G17G 3G23
  21797587.527     5381296.664 6   4228787.60921
  22254360.2774    4600455.19946   3621051.22361
  21677961.816   -10110930.259 6  -7640403.28621
  19896266.0434   -9509531.97147  -7339409.51163
  19516219.4964  -19649253.24047 -15239637.90062
  21035107.9574  -13869110.83846 -10490312.67461
 92  9 17 20 24 29.9960000  0  6G20G16G26G17G 3G23
  21811075.3164    5452159.50546   4284005.33161
  22266950.1524    4666608.51146   3672599.14561
  21664508.426   -10181633.631 6  -7695496.78321
  19884959.2854   -9568957.04547  -7385714.75763
  19504428.0744  -19711209.31447 -15287915.35162
  21014175.4884  -13979096.76046 -10576015.97361
 92  9 17 20 24 59.9960000  0  6G20G16G26G17G 3G23
  21824586.863     5523174.786 6   4339341.82021
  22279569.606     4732931.892 6   3724279.61521
  21651132.957   -10251934.489 6  -7750276.62921
  19873690.5204   -9628178.01247  -7431860.96863
  19492690.0354  -19772889.77647 -15335978.04162
  20993306.6524  -14088773.94246 -10661478.70861
 92  9 17 20 25 29.9960000  0  6G20G16G26G17G 3G23
  21838133.137     5594352.674 6   4394805.03121
  22292226.3564    4799435.84546   3776100.81261
  21637831.0664  -10321817.76646  -7804731.09961
  19862459.2934   -9687181.91447  -7477838.03663
  19481010.9494  -19834279.40647 -15383814.10962
  20972496.7624  -14198127.75146 -10746689.43761
 92  9 17 20 25 59.9960000  0  6G20G16G26G17G 3G23
  21851712.0984    5665724.04946   4450418.99961
  22304920.684     4866151.752 6   3828087.16421
  21624622.059   -10391246.896 6  -7858831.70421
  19851282.0274   -9745934.70847  -7523619.42863
  19469386.7854  -19895342.28447 -15431395.56262
  20951758.3874  -14307123.12146 -10831620.88461
 92  9 17 20 26 29.9960000  0  6G20G16G26G17G 3G23
  21865327.1134    5737268.44146   4506167.78261
  22317653.426     4933060.058 6   3880223.41321
  21611494.473   -10460237.671 6  -7912590.70121
  19840144.3564   -9804454.19047  -7569219.02263
  19457828.9104  -19956093.74947 -15478734.37562
  20931078.8874  -14415775.90546 -10916285.35861
 92  9 17 20 26 59.9960000  0  6G20G16G26G17G 3G23
  21878979.918     5809000.179 6   4562062.54321
  22330425.6214    5000175.58046   3932521.12861
  21598448.074   -10528770.242 6  -7965992.67021
  19829057.9884   -9862723.21847  -7614623.46163
  19446330.9344  -20016513.93547 -15525815.02962
  20910473.9494  -14524066.68646 -11000667.74361
 92  9 17 20 27 29.9960000  0  6G20G16G26G17G 3G23
  21892657.184     5880874.000 6   4618068.01121
  22343228.340     5067454.009 6   3984945.77221
  21585490.973   -10596884.719 6  -8019068.85321
  19818010.1374   -9920784.45247  -7659865.97263
  19434887.7154  -20076642.74447 -15572668.64162
  20889928.6454  -14632036.30846 -11084799.92362
 92  9 17 20 27 59.9960000  0  6G20G16G26G17G 3G23
  21906365.4654    5952923.71146   4674210.54561
  22356068.3954    5134929.64746   4037524.08061
  21572613.535   -10664541.541 6  -8071788.42321
  19807006.1844   -9978601.08047  -7704917.88863
  19423511.8094  -20136440.94347 -15619264.64562
  20869448.270   -14739646.235 6 -11168651.79122
 92  9 17 20 28 29.9960000  0  6G20G16G26G17G 3G23
  21920111.051     6025146.029 6   4730487.58321
  22368943.9264    5202599.95446   4090254.10461
  21559825.316   -10731738.824 6  -8124149.89721
  19796050.7774  -10036173.40347  -7749779.44163
  19412195.7704  -20195906.85447 -15665601.70762
  20849040.7854  -14846895.23046 -11252222.41562
 92  9 17 20 28 59.9960000  0  6G20G16G26G17G 3G23
  21933885.293     6097540.394 6   4786898.66021
  22381860.3244    5270464.64846   4143135.60961
  21547129.1214  -10798471.65546  -8176149.48961
  19785142.8324  -10093499.01847  -7794448.74963
  19400940.8014  -20255035.43247 -15711675.91062
  20828703.566   -14953779.300 6 -11335508.67621
 92  9 17 20 29 29.9960000  0  6G20G16G26G17G 3G23
  21947688.7234    6170084.04046   4843426.06061
  22394806.4884    5338501.52946   4196151.27661
  21534513.9184  -10864758.27446  -8227801.36461
  19774279.1294  -10150598.02047  -7838941.47163
  19389750.1764  -20313844.40447 -15757501.07962
  20808426.0984  -15060316.85346 -11418524.95661
 92  9 17 20 29 59.9960000  0  6G20G16G26G17G 3G23
  21961524.332     6242776.411 6   4900069.35321
  22407785.0434    5406711.25146   4249301.61661
  21521982.3954  -10930593.71146  -8279101.66461
  19763457.1604  -10207468.19747  -7883255.90063
  19378618.6064  -20372329.13047 -15803073.59062
  20788220.8404  -15166503.50846 -11501267.77062
 92  9 17 20 30 29.9960000  0  6G20G16G26G17G 3G23
  21975388.441     6315623.476 6   4956833.20221
  22420798.3014    5475100.14546   4302591.55261
  21509545.949   -10995966.866 6  -8330041.74721
  19752679.6844  -10264100.24347  -7927384.77263
  19367552.8484  -20430478.39847 -15848384.70362
  20768083.7854  -15272329.57746 -11583729.61161
 92  9 17 20 30 59.9960000  0  6G20G16G26G17G 3G23
  21989272.332     6388606.253 6   5013702.78821
  22433845.879     5543650.435 6   4356007.23521
  21497189.051   -11060891.595 6  -8380632.41721
  19741945.1454  -10320510.66247  -7971340.93963
  19356550.4104  -20488305.54547 -15893444.80662
  20748012.0664  -15377809.22946 -11665921.53962
 92  9 17 20 31 29.9960000  0  6G20G16G26G17G 3G23
  22003190.762     6461730.201 6   5070682.38521
  22446922.1914    5612368.10746   4409553.34761
  21484925.926   -11125357.408 6  -8430865.47721
  19731251.8014  -10376691.18047  -8015117.96163
  19345609.9814  -20545800.35347 -15938245.95762
  20728006.723   -15482932.065 6 -11747835.41822
 92  9 17 20 31 59.9960000  0  6G20G16G26G17G 3G23
  22017129.621     6534988.792 6   5127766.89121
  22460030.488     5681247.229 6   4463225.27821
  21472742.387   -11189365.438 6  -8480741.83221
  19720602.0514  -10432645.25447  -8058718.53363
  19334734.8484  -20602963.51347 -15982788.67362
  20708071.5124  -15587700.26946 -11829472.96962
 92  9 17 20 32 29.9960000  0  6G20G16G26G17G 3G23
  22031101.910     6608405.540 6   5184974.63921
  22473172.0124    5750311.98846   4517041.89361
  21460653.777   -11252886.970 6  -8530239.10321
  19710006.6454  -10488346.45747  -8102122.07863
  19323922.6524  -20659766.48147 -16027050.71262
  20688204.1134  -15692086.05346 -11910812.52262
 92  9 17 20 32 59.9960000  0  6G20G16G26G17G 3G23
  22045097.8324    6681955.69046   5242286.33461
  22486344.395     5819538.191 6   4570984.34221
  21448656.0354  -11315942.45846  -8579373.22961
  19699451.0434  -10543817.12647  -8145345.97663
  19313177.4734  -20716228.80847 -16071047.32362
  20668412.6604  -15796109.58046 -11991869.78762
 92  9 17 20 33 29.9960000  0  6G20G16G26G17G 3G23
  22059115.441     6755625.479 6   5299691.25021
  22499546.5124    5888912.28845   4625042.01961
  21436743.9104  -11378539.68446  -8628150.23061
  19688934.2074  -10599068.26847  -8188398.81263
  19302501.1914  -20772359.41947 -16114785.45362
  20648686.5204  -15899780.42746 -12072652.26562
 92  9 17 20 33 59.9960000  0  6G20G16G26G17G 3G23
  22073154.941     6829409.862 5   5357185.45221
  22512775.066     5958430.004 5   4679211.60921
  21424918.0984  -11440679.83046  -8676571.09561
  19678465.6134  -10654102.12547  -8231282.33063
  19291878.8094  -20828157.65147 -16158264.58362
  20629022.1524  -16003099.10946 -12153160.32662
 92  9 17 20 34 29.9960000  0  6G20G16G26G17G 3G23
  22087216.9654    6903302.91445   5414764.33261
  22526030.012     6028086.745 5   4733489.47621
  21413181.027   -11502362.877 6  -8724635.76821
  19668031.1994  -10708921.58647  -8273998.80063
  19281326.1844  -20883624.37047 -16201485.39662
  20609427.7384  -16106067.13446 -12233395.11162
 92  9 17 20 34 59.9950000  0  6G20G16G26G17G 3G23
  22101300.2024    6977311.33745   5472433.12061
  22539315.655     6097890.173 6   4787881.60921
  21401529.843   -11563572.597 6  -8772331.62621
  19657641.4764  -10763512.59247  -8316537.24863
  19270836.9914  -20938742.89347 -16244434.89062
  20589905.3584  -16208667.52447 -12313343.46462
 92  9 17 20 35 29.9950000  0  6G20G16G26G17G 3G23
  22115405.3514    7051412.89445   5530174.46961
  22552622.140     6167817.764 6   4842370.51321
  21389968.608   -11624335.946 6  -8819679.66221
  19647295.6554  -10817903.20147  -8358919.53563
  19260407.6714  -20993539.05847 -16287133.19562
  20570444.8434  -16310929.83447 -12393028.36662
 92  9 17 20 35 59.9950000  0  6G20G16G26G17G 3G23
  22129520.4054    7125602.64145   5587984.53561
  22565951.9054    6237865.90846   4896953.36161
  21378492.538   -11684647.719 6  -8866675.81221
  19636982.7804  -10872091.26647  -8401144.00063
  19250040.7494  -21048008.60647 -16329576.99962
  20551047.2104  -16412849.02946 -12472445.91862
 92  9 17 20 36 29.9950000  0  6G20G16G26G17G 3G23
  22143658.3984    7199904.69845   5645882.11361
  22579309.6404    6308059.58946   4951649.70461
  21367107.5304  -11744479.40246  -8913297.88161
  19626714.1324  -10926049.95747
  19239745.0544  -21102121.82747
  20531725.3664  -16514396.32747 -12551573.67762
 92  9 17 20 36 59.9950000  0  6G20G16G26G17G 3G23
  22157817.3044    7274305.57445   5703856.70661
  22592692.4764    6378385.02245   5006448.59961
  21355812.507   -11803839.288 6  -8959552.31421
  19616483.8124  -10979789.86147
  19229515.7414  -21155887.28147
  20512469.7334  -16615581.17246 -12630419.01762
 92  9 17 20 37 29.9950000  0  6G20G16G26G17G 3G23
  22171988.077     7348775.305 5   5761884.94221
  22606093.905     6448814.244 5   5061328.43021
  21344599.819   -11862752.003 6  -9005458.28921
  19606297.5854  -11033337.67047
  19219343.8124  -21209328.98447
  20493278.5854  -16716428.87847 -12709001.65162
 92  9 17 20 37 59.9950000  0  6G20G16G26G17G 3G23
  22186178.1164    7423333.84045   5819982.36561
  22619517.9914    6519367.51245   5116304.88961
  21333479.116   -11921192.651 6  -9050996.42821
  19596149.5774  -11086670.86647  -8568348.88563
  19209239.9764  -21262422.20747 -16496652.50862
  20474159.9604  -16816915.00447 -12787302.53762
 92  9 17 20 38 29.9950000  0  6G20G16G26G17G 3G23
  22200380.8744    7497987.91945   5878154.23661
  22632968.124     6590052.462 5   5171383.91521
  21322454.8984  -11979150.49146  -9096158.35861
  19586039.3904  -11139779.67547  -8609732.36963
  19199204.2964  -21315154.85547 -16537742.86962
  20455107.9214  -16917028.95447 -12865313.38562
 92  9 17 20 38 59.9950000  0  6G20G16G26G17G 3G23
  22214603.241     7572718.918 5   5936386.04521
  22646440.585     6660850.775 5   5226551.33821
  21311511.694   -12036639.403 6  -9140954.87621
  19575972.5694  -11192680.48047  -8650953.77363
  19189239.9054  -21367541.16147 -16578563.36362
  20436124.296   -17016785.733 7 -12943045.91022
 92  9 17 20 39 29.9950000  0  6G20G16G26G17G 3G23
  22228841.874     7647534.616 5   5994683.86421
  22659939.046     6731771.200 6   5281813.93921
  21300664.577   -12093646.511 6  -9185375.96921
  19565951.8664  -11245362.69947  -8692004.85463
  19179336.5774  -21419567.49147 -16619103.35662
  20417211.304   -17116172.406 7 -13020490.04522
 92  9 17 20 39 59.9950000  0  6G20G16G26G17G 3G23
  22243095.2264    7722445.32245   6053055.69361
  22673459.9294    6802824.77846   5337180.24661
  21289908.319   -12150156.637 6  -9229409.79721
  19555967.0544  -11297812.53147  -8732874.85463
  19169510.8044  -21471218.17847 -16659350.63662
  20398372.054   -17215174.402 7 -13097634.42522
 92  9 17 20 40 29.9950000  0  6G20G16G26G17G 3G23
  22257365.5854    7797430.94845   6111485.91661
  22687004.6014    6873991.86146   5392635.04861
  21279251.124   -12206185.281 6  -9273068.45621
  19546028.0154  -11350047.55947  -8773577.46463
  19159747.3434  -21522508.60347 -16699317.18162
  20379603.671   -17313808.112 7 -13174491.82622
 92  9 17 20 40 59.9950000  0  6G20G16G26G17G 3G23
  22271652.9604    7872494.40545   6169976.79061
  22700568.2334    6945276.31245   5448181.28961
  21268680.780   -12261724.735 6  -9316345.93221
  19536132.3744  -11402061.73747  -8814107.99563
  19150057.3434  -21573430.26947 -16738996.39162
  20360904.523   -17412065.942 7 -13251056.32822
 92  9 17 20 41 29.9950000  0  6G20G16G26G17G 3G23
  22285950.0304    7947646.28545   6228536.57261
  22714157.944     7016689.902 5   5503828.14821
  21258206.0304  -12316759.63246  -9359230.24361
  19526276.7574  -11453841.60747  -8854455.94263
  19140443.5074  -21623967.41447 -16778375.99262
  20342280.937   -17509933.465 7 -13327316.70122
 92  9 17 20 41 59.9950000  0  6G20G16G26G17G 3G23
  22300271.585     8022882.373 5   6287161.97221
  22727769.140     7088228.740 5   5559572.60521
  21247828.030   -12371289.849 6  -9401721.28921
  19516466.8354  -11505389.09647  -8894622.81463
  19130900.8354  -21674119.44947 -16817455.49662
  20323732.726   -17607410.787 7 -13403273.01622
 92  9 17 20 42 29.9950000  0  6G20G16G26G17G 3G23
  22314599.3124    8098192.76045   6345845.26061
  22741404.8124    7159883.80745   5615407.66761
  21237548.7574  -12425320.40746  -9443823.00561
  19506699.6714  -11556711.29647  -8934614.13963
  19121429.2884  -21723890.83147 -16856238.39462
  20305256.835   -17704503.472 7 -13478929.61922
 92  9 17 20 42 59.9950000  0  6G20G16G26G17G 3G23
  22328943.085     8173567.862 5   6404579.00121
  22755063.015     7231645.631 5   5671325.77221
  21227358.733   -12478856.224 6  -9485539.18921
  19496978.5694  -11607815.22547  -8974435.38163
  19112028.0544  -21773286.38047 -16894728.42362
  20286852.5624  -17801217.46547 -13554291.14562
 92  9 17 20 43 29.9950000  0  6G20G16G26G17G 3G23
  22343293.562     8248995.336 5   6463353.49721
  22768737.640     7303502.988 5   5727318.31221
  21217267.2804  -12531905.20846  -9526876.06661
  19487292.8274  -11658709.89647  -9014093.56863
  19102697.7024  -21822313.10847 -16932931.07062
  20268517.405   -17897560.732 7 -13629363.78722
 92  9 17 20 43 59.9950000  0  6G20G16G26G17G 3G23
  22357663.351     8324477.535 5   6522170.69621
  22782429.2884    7375459.14245   5783387.98661
  21207268.0074  -12584460.94346  -9567828.57662
  19477647.2184  -11709389.86547  -9053584.44963
  19093438.7334  -21870963.48547 -16970840.46162
  20250257.327   -17993526.635 7 -13704142.38622
 92  9 17 20 44 29.9950000  0  6G20G16G26G17G 3G23
  22372040.4214    8400022.39645   6581036.66661
  22796140.7494    7447522.52445   5839541.19761
  21197358.0624  -12636510.32346  -9608386.51462
  19468045.7734  -11759844.41747  -9092899.68263
  19084257.5934  -21919224.60147 -17008446.52862
  20232069.1164  -18089103.25047 -13778617.63762
 92  9 17 20 44 59.9950000  0  6G20G16G26G17G 3G23
  22386425.835     8475630.744 5   6639952.12021
  22809877.726     7519694.958 5   5895779.34021
  21187556.1324  -12688047.79646  -9648545.56862
  19458488.8984  -11810070.28947  -9132036.73463
  19075144.6324  -21967090.42647 -17045744.57362
  20213956.6324  -18184285.62847 -13852785.69262
 92  9 17 20 45 29.9950000  0  6G20G16G26G17G 3G23
  22400826.9054    8551290.97945   6698908.00661
  22823630.562     7591966.181 5   5952094.49421
  21177843.2494  -12739080.74146  -9688311.50262
  19448974.0694  -11860076.16947  -9171002.35663
  19066111.7804  -22014567.31247 -17082739.54462
  20195916.257   -18279081.507 7 -13926652.58222
 92  9 17 20 45 59.9950000  0  6G20G16G26G17G 3G23
  22415228.069     8627002.160 4   6757903.55821
  22837401.671     7664335.186 5   6008485.86221
  21168224.726   -12789605.526 6  -9727681.42321
  19439497.8984  -11909859.87447  -9209794.84663
  19057157.2574  -22061651.18147 -17119428.27662
  20177953.608   -18373487.848 7 -14000215.93022
 92  9 17 20 46 29.9950000  0  6G20G16G26G17G 3G23
  22429640.046     8702737.695 5   6816918.08821
  22851185.1944    7736776.01545   6064933.24161
  21158701.1554  -12839644.83446  -9766673.07662
  19430063.1324  -11959445.70247  -9248433.16063
  19048266.9994  -22108363.87147 -17155827.78262
  20160057.023   -18467527.306 7 -14073493.40722
 92  9 17 20 46 59.9950000  0  5G20G26G17G 3G23
  22444055.7494    8778481.58545   6875939.12961
  21149271.273   -12889209.730 6
  19420662.5934  -12008847.00047
  19039444.6484  -22154715.90047 -17191946.25062
  20142229.249   -18561211.703 7 -14146494.20422
 92  9 17 20 47 29.9950000  0  5G20G26G17G 3G23
  22458477.616     8854255.936 5   6934983.92421
  21139934.7264  -12938273.88246  -9843526.87262
  19411302.1404  -12058038.31247  -9325258.58863
  19030698.6404  -22200680.46747 -17227762.80062
  20124473.382   -18654514.951 7 -14219198.01222
 92  9 17 20 47 59.9950000  0  5G20G26G17G 3G23
  22472906.3984    8930084.18645   6994070.68361
  21130699.991   -12986809.789 6  -9881347.07422
  19401985.616   -12106993.825 7  -9363405.76623
  19022031.2964  -22246229.20447 -17263255.34362
  20106796.0624  -18747410.13847 -14291583.86362
 92  9 17 20 48 29.9950000  0  5G20G26G17G 3G23
  22487335.6634    9005934.85945   7053174.93961
  21121558.5304  -13034844.04146  -9918776.34462
  19392710.8354  -12155741.93647  -9401391.31663
  19013434.1404  -22291388.24947 -17298444.22162
  20089194.9604  -18839924.47247 -14363672.93962
 92  9 17 20 48 59.9950000  0  5G20G26G17G 3G23
  22501780.437     9081799.376 5   7112289.98421
  21112514.983   -13082381.183 6  -9955818.27122
  19383470.8584  -12204288.29847  -9439219.64463
  19004919.3354  -22336161.03847 -17333332.10762
  20071657.2024  -18932062.84447 -14435469.04663
 92  9 17 20 49 29.9950000  0  5G20G26G17G 3G23
  22516221.4764    9157698.97245   7171432.36261
  21103567.0234  -13129395.81646  -9992453.04562
  19374278.4444  -12252608.89347  -9476872.06063
  18996471.4444  -22380521.66447 -17367898.82762
  20054200.640   -19023799.939 7 -14506952.46323
 92  9 17 20 49 59.9950000  0  5G20G26G17G 3G23
  22530658.5774    9233621.87844   7230592.89461
  21094718.554   -13175895.478 6 -10028686.53122
  19365122.6714  -12300713.10347  -9514355.85563
  18988110.8824  -22424476.88347 -17402149.64662
  20036818.210   -19115143.750 7 -14578129.42623
 92  9 17 20 50 29.9950000  0  5G20G26G17G 3G23
  22545113.6084    9309551.07544   7289758.33761
  21085965.7414  -13221893.13346 -10064528.84562
  19356005.8514  -12348615.22647  -9551682.18463
  18979822.1014  -22468038.86847 -17436094.05262
  20019509.405   -19206107.776 7 -14649010.45422
 92  9 17 20 50 59.9950000  0  5G20G26G17G 3G23
  22559568.874     9385514.090 5   7348950.13321
  21077313.4054  -13267356.95546 -10099955.19262
  19346937.0544  -12396284.80647  -9588827.32163
  18971614.1874  -22511174.82647 -17469706.48462
  20002277.0154  -19296660.20247 -14719570.76562
 92  9 17 20 51 29.9950000  0  5G20G26G17G 3G23
  22574031.1014    9461509.52645   7408167.19661
  21068767.1014  -13312284.01246 -10134963.27162
  19337907.0384  -12443720.28147  -9625790.02263
  18963486.1014  -22553881.17647 -17502984.17662
  19985124.3274  -19386798.74347 -14789808.56063
 92  9 17 20 51 59.9950000  0  5G20G26G17G 3G23
  22588491.991     9537504.796 5   7467384.12821
  21060312.7264  -13356702.48346 -10169575.05462
  19328921.4374  -12490951.23747  -9662593.37063
  18955435.1324  -22596185.92147 -17535948.91862
  19968045.819   -19476552.152 7 -14859746.25123
 92  9 17 20 52 29.9950000  0  5G20G26G17G 3G23
  22602958.3744    9613506.05045   7526605.72861
  21051961.8514  -13400602.16146 -10203782.58162
  19319975.8664  -12537968.38447  -9699230.10663
  18947460.3514  -22638077.11247 -17568591.40162
  19951042.062   -19565910.614 7 -14929376.18823
 92  9 17 20 52 59.9950000  0  5G20G26G17G 3G23
  22617421.812     9689524.486 5   7585840.70121
  21043707.554   -13443968.123 6 -10237574.22122
  19311069.9834  -12584758.66247  -9735690.05663
  18939574.3744  -22679539.15747 -17600899.48762
  19934115.007   -19654859.035 7 -14998686.61523
 92  9 17 20 53 29.9950000  0  5G20G26G17G 3G23
  22631887.8664    9765539.15245   7645072.71661
  21035548.8124  -13486817.05946 -10270962.99562
  19302207.7184  -12631340.01647  -9771987.21463
  18931760.4524  -22720588.24847 -17632885.78162
  19917265.0074  -19743414.56247 -15067690.89763
 92  9 17 20 53 59.9950000  0  5G20G26G17G 3G23
  22646343.554     9841517.120 5   7704276.18421
  21027489.8124  -13529178.42346 -10303971.84562
  19293377.5624  -12677742.26847  -9808144.81163
  18924023.7024  -22761252.47447 -17664572.19362
  19900481.3194  -19831606.88447 -15136412.16663
 92  9 17 20 54 29.9950000  0  5G20G26G17G 3G23
  22660792.3584    9917445.84145   7763441.23961
  21019521.6554  -13571060.54646 -10336607.25762
  19284578.7884  -12723975.10847  -9844170.40163
  18916358.4294  -22801539.67547 -17695964.81062
  19883764.569   -19919444.847 7 -15204857.29823
 92  9 17 20 54 59.9950000  0  6G20G21G26G17G 3G23
  22675238.6084    9993365.33445   7822599.11461
  23019691.6084         -0.75854
  21011649.6324  -13612418.78446 -10368834.44162
  19275820.5694  -12769995.89447  -9880030.75463
  18908772.5154  -22841404.38247 -17727028.21662
  19867126.124   -20006884.666 7 -15272992.19423
 92  9 17 20 55 29.9950000  0  6G20G21G26G17G 3G23
  22689683.2804   10069275.40144   7881749.64161
  22995431.9764    -127469.14844
  21003879.6244  -13653250.20646 -10400651.13362
  19267105.9134  -12815802.45147  -9915724.17463
  18901266.4764  -22880842.72047 -17757759.37262
  19850563.843   -20093923.124 7 -15340814.33923
 92  9 17 20 55 59.9950000  0  6G20G21G26G17G 3G23
  22704131.0234   10145175.53844   7940892.40861
  22971203.890     -254791.991 4
  20996212.2804  -13693551.56746 -10432054.78262
  19258431.1484  -12861392.43047  -9951248.82563
  18893841.1244  -22919849.94847 -17788154.62062
  19834076.0304  -20180556.83247 -15408321.10463
 92  9 17 20 56 29.9950000  0  6G20G21G26G17G 3G23
  22718571.0854   10221072.04244   8000032.37261
  22947009.1484    -381958.83444        -0.24871
  20988646.9684  -13733311.83546 -10463036.80862
  19249795.1244  -12906756.49847  -9986597.45063
  18886506.0384  -22958415.14947 -17818205.42562
  19817671.241   -20266775.750 7 -15475504.65623
 92  9 17 20 56 59.9950000  0  6G20G21G26G17G 3G23
  22733009.7264   10296937.93344   8059148.45561
  22922833.1244    -508992.70044    -98987.58961
  20981179.2804  -13772554.62046 -10493615.60962
  19241203.2264  -12951919.34347 -10021789.28463
  18879245.1324  -22996560.43647 -17847929.02962
  19801338.9834  -20352603.67247 -15542383.53763
 92  9 17 20 57 29.9950000  0  6G20G21G26G17G 3G23
  22747449.483    10372797.802 4   8118259.86421
  22898693.8514    -635864.83444   -197848.87661
  20973813.2494  -13811251.96246 -10523769.37862
  19232653.8984  -12996853.32247 -10056802.77763
  18872073.4444  -23034256.38347 -17877302.49862
  19785086.1634  -20438012.30347 -15608935.69763
 92  9 17 20 57 59.9950000  0  6G20G21G26G17G 3G23
  22761874.9054   10448621.85944   8177343.33561
  22874569.8514    -762600.67143   -296603.96661
  20966549.7884  -13849429.39446 -10553518.03962
  19224139.3824  -13041585.90747 -10091659.34663
  18864980.9834  -23071528.36347 -17906345.61662
  19768910.358   -20523028.298 7 -15675181.90823
 92  9 17 20 58 29.9950000  0  6G20G21G26G17G 3G23
  22776302.9994   10524432.85145   8236416.65161
  22850491.671     -889172.862 5   -395231.51721
  20959388.054   -13887060.413 6 -10582840.90222
  19215669.3584  -13086091.23447 -10126338.82663
  18857976.5694  -23108348.47147 -17935036.61162
  19752810.585   -20607624.947 7 -15741101.35023
 92  9 17 20 58 59.9950000  0  6G20G21G26G17G 3G23
  22790725.085    10600205.178 5   8295459.83821
  22826428.6164   -1015602.82245   -493748.23661
  20952328.7654  -13924166.98246 -10611755.11462
  19207242.2734  -13130391.76047 -10160858.72063
  18851047.7414  -23144737.64747 -17963391.81562
  19736785.7334  -20691824.46647 -15806711.34463
 92  9 17 20 59 29.9950000  0  6G20G21G26G17G 3G23
  22805136.2884   10675933.74745   8354468.95461
  22802400.218    -1141891.264 5   -592154.69321
  20945361.5934  -13960750.28446 -10640261.58062
  19198851.6244  -13174490.17947 -10195221.12363
  18844204.6244  -23180696.09547 -17991411.38362
  19720839.132   -20775628.159 7 -15872012.89223
 92  9 17 20 59 59.9950000  0  5G21G26G17G 3G23
  22778390.819    -1268051.069 5   -690460.95321
  20938499.5234  -13996823.97546 -10668370.95362
  19190492.9134  -13218400.52247 -10229436.97663
  18837446.2574  -23216236.69947 -18019105.36462
  19704964.2334  -20859050.01347 -15937016.91163
 92  9 17 21  0 29.9950000  0  5G21G26G17G 3G23
  22754412.632    -1394058.098 5   -788648.12121
  20931742.2414  -14032364.18346 -10696064.60762
  19182177.2574  -13262100.09447 -10263488.58663
  18830762.8194  -23251334.11047 -18046453.98662
  19689166.796   -20942066.573 7 -16001705.11523
 92  9 17 21  0 59.9950000  0  5G21G26G17G 3G23
  22730465.7804   -1519913.34245   -886717.01161
  20925075.8744  -14067372.53046 -10723343.84662
  19173902.8664  -13305591.36147 -10297377.89063
  18824168.5624  -23285989.35847 -18073458.07662
  19673447.0304  -21024679.38547 -16066078.71363
 92  9 17 21  1 29.9950000  0  5G21G26G17G 3G23
  22706546.3274   -1645588.98345   -984645.87861
  20918521.5074  -14101821.74546 -10750187.38562
  19165669.3044  -13348848.25847 -10331084.57463
  18817666.7804  -23320173.97847 -18100095.43262
  19657807.1714  -21106861.75547 -16130116.90163
 92  9 17 21  1 59.9950000  0  5G21G26G17G 3G23
  22682662.5694   -1771105.46845  -1082450.73461
  20912066.7654  -14135732.77146
  19157478.6554  -13391892.72947 -10364625.73163
  18811245.2734  -23353907.96947
  19642246.304   -21188634.706 7 -16193836.05323
 92  9 17 21  2 29.9950000  0  5G21G26G17G 3G23
  22658807.1484   -1896462.52045  -1180131.52361
  20905715.7804  -14169106.34746
  19149330.7804  -13434725.20447 -10398001.67963
  18804911.7264  -23387189.83047
  19626764.335   -21269998.413 7 -16257236.32423
 92  9 17 21  2 59.9940000  0  5G21G26G17G 3G23
  22634985.2364   -2021647.39645  -1277678.12961
  20899469.541   -14201933.319 6
  19141220.0964  -13477337.53747 -10431206.09463
  18798668.6044  -23420010.70147
  19611358.4554  -21350942.65547 -16320309.73963
 92  9 17 21  3 29.9940000  0  5G21G26G17G 3G23
  22611198.174    -2146639.995 5  -1375074.87821
  20893331.4794  -14234187.88746
  19133158.2214  -13519705.32947 -10464219.95763
  18792514.3154  -23452343.04047
  19596041.2914  -21431445.33747 -16383039.07463
 92  9 17 21  3 59.9940000  0  5G21G26G17G 3G23
  22587442.3074   -2271479.14645  -1472352.06661
  20887294.924   -14265912.956 6 -10878050.62822
  19125130.1584  -13561871.68147 -10497076.85263
  18786449.6584  -23484228.98647 -18227930.47662
  19580799.127   -21511547.670 7 -16445456.45123
 92  9 17 21  4 29.9940000  0  5G21G26G17G 3G23
  22563721.065    -2396161.095 5  -1569506.77621
  20881361.3074  -14297105.42546 -10902356.44262
  19117146.2214  -13603834.22547 -10529774.93664
  18780463.7834  -23515663.74247 -18252425.08162
  19565632.354   -21591246.757 7 -16507559.61223
 92  9 17 21  4 59.9940000  0  5G21G26G17G 3G23
  22540025.627    -2520669.851 5  -1666526.48421
  20875532.3304  -14327749.88146 -10926235.23562
  19109202.2684  -13645578.28347 -10562302.76164
  18774571.0104  -23546631.41447 -18276555.72362
  19550546.424   -21670527.473 7 -16569336.76723
 92  9 17 21  5 29.9940000  0  5G21G26G17G 3G23
  22516364.268    -2645008.612 5  -1763413.68421
  20869801.0254  -14357850.08446 -10949689.92862
  19101301.8304  -13687108.36047 -10594663.85863
  18768768.5574  -23577134.32447 -18300324.21362
  19535540.7524  -21749393.77347 -16630791.00663
 92  9 17 21  5 59.9940000  0  5G21G26G17G 3G23
  22492729.2604   -2769214.20945  -1860197.11561
  20864168.3774  -14387443.75846 -10972749.92262
  19093431.7604  -13728462.78947 -10626888.09264
  18763044.2524  -23607208.88647 -18323758.92862
  19520601.838   -21827883.023 7 -16691951.43223
 92  9 17 21  6 29.9940000  0  5G21G26G17G 3G23
  22469130.9714   -2893237.70545  -1956838.52961
  20858644.9634  -14416483.12446 -10995377.99762
  19085603.3694  -13769594.35147 -10658938.65263
  18757411.0024  -23636806.56047 -18346822.03662
  19505746.658   -21905947.806 7 -16752781.10723
 92  9 17 21  6 59.9940000  0  5G21G26G17G 3G23
  22445557.104    -3017089.090 5  -2053345.98521
  20853221.5024  -14444978.38346 -11017582.07662
  19077817.8224  -13810513.58347 -10690823.75563
  18751868.4084  -23665935.49647 -18369519.90862
  19490969.9634  -21983598.41147 -16813288.05563
 92  9 17 21  7 29.9940000  0  5G21G26G17G 3G23
  22422026.8304   -3140760.60445  -2149713.25961
  20847902.3614  -14472922.70446 -11039356.86562
  19070074.6194  -13851214.31947 -10722538.60963
  18746414.1974  -23694588.55247 -18391846.95162
  19476274.2994  -22060828.25047 -16873467.12663
 92  9 17 21  7 59.9940000  0  5G21G26G17G 3G23
  22398528.275    -3264247.764 5  -2245936.89821
  20842692.455   -14500312.529 6 -11060699.57622
  19062370.7524  -13891693.35947 -10754080.70964
  18741055.7294  -23722760.63247 -18413799.20962
  19461659.947   -22137633.818 7 -16933315.59123
 92  9 17 21  8 29.9940000  0  5G21G26G17G 3G23
  22375055.635    -3387564.959 5  -2342028.11221
  20837581.9164  -14527163.12146 -11081622.11562
  19054708.8224  -13931966.39947 -10785462.29464
  18735780.9324  -23750465.84947 -18435387.69362
  19447118.5804  -22214030.26447 -16992845.27263
 92  9 17 21  8 59.9940000  0  5G21G26G17G 3G23
  22351628.197    -3510697.721 5  -2437975.61421
  20832575.0414  -14553460.88546 -11102113.86262
  19047083.5104  -13972020.23847 -10816673.06364
  18730604.1664  -23777688.94447 -18456600.48262
  19432662.8224  -22290004.32847 -17052045.81963
 92  9 17 21  9 29.9940000  0  5G21G26G17G 3G23
  22328235.143    -3633635.234 5  -2533770.91621
  20827680.0254  -14579196.53146 -11122167.59262
  19039505.6274  -14011845.63947 -10847705.82663
  18725514.1664  -23804419.34747 -18477429.37262
  19418288.0724  -22365545.88947 -17110909.35463
 92  9 17 21  9 59.9940000  0  5G21G26G17G 3G23
  22304866.4164   -3756401.67345  -2629432.98761
  20822886.4554  -14604394.64746 -11141802.49462
  19031963.7834  -14051467.52147 -10878580.01664
  18720518.2364  -23830680.85747 -18497892.89062
  19403989.877   -22440680.303 7 -17169455.62823
 92  9 17 21 10 29.9940000  0  5G21G26G17G 3G23
  22281541.299    -3878986.177 5  -2724953.35021
  20818191.2294  -14629044.68046 -11161010.30062
  19024466.5104  -14090876.49247 -10909288.29464
  18715614.9164  -23856461.69347 -18517981.84362
  19389772.7604  -22515397.12347 -17227676.50363
 92  9 17 21 10 59.9940000  0  5G21G26G17G 3G23
  22258255.1974   -4001377.10345  -2820322.82061
  20813608.0334  -14653136.87746 -11179783.43862
  19017008.9404  -14130062.67047 -10939822.96964
  18710801.4244  -23881750.66147 -18537687.53062
  19375635.9404  -22589686.48247 -17285564.29763
 92  9 17 21 11 29.9940000  0  5G21G26G17G 3G23
  22235000.7754   -4123570.98045  -2915538.63861
  20809132.3934  -14676668.70146 -11198119.92362
  19009595.9164  -14169023.41447 -10970181.98364
  18706081.1824  -23906544.00447 -18557007.01462
  19361578.2294  -22663545.78147 -17343116.98263
 92  9 17 21 11 59.9940000  0  5G21G26G17G 3G23
  22211782.1194   -4245586.08145  -3010615.23761
  20804756.6114  -14699659.02346 -11216034.45862
  19002221.7834  -14207778.12047 -11000380.44964
  18701452.1114  -23930859.13847 -18575953.87062
  19347602.010   -22736993.816 7 -17400349.19123
 92  9 17 21 12 29.9940000  0  5G21G26G17G 3G23
  22188595.971    -4367408.231 5  -3105541.54821
  20800488.8934  -14722094.31146 -11233516.50062
  18994886.6114  -14246313.98247 -11030408.38864
  18696921.7054  -23954681.53947 -18594516.77262
  19333708.2754  -22810017.30047 -17457250.59063
 92  9 17 21 12 59.9940000  0  5G21G26G17G 3G23
  22165452.6044   -4489053.97645  -3200330.39461
  20796321.6274  -14743992.56246 -11250580.07762
  18987594.2914  -14284648.41347 -11060279.37063
  18692476.9794  -23978027.37647 -18612708.33662
  19319889.494   -22882633.871 7 -17513834.91323
 92  9 17 21 13 29.9940000  0  5G21G26G17G 3G23
  22142337.2914   -4610521.15345  -3294980.07461
  20792254.7604  -14765352.61946 -11267224.26562
  18980336.9324  -14322780.84047 -11089992.94264
  18688127.1824  -24000894.38647 -18630526.77562
  19306147.940   -22954842.275 7 -17570101.17223
 92  9 17 21 13 59.9940000  0  5G21G26G17G 3G23
  22119261.213    -4731814.238 5  -3389494.11921
  20788291.4864  -14786179.98346 -11283453.38762
  18973117.9474  -14360716.84547 -11119553.46064
  18683865.7994  -24023286.55147 -18647975.21462
  19292486.2364  -23026648.01347 -17626053.68863
 92  9 17 21 14 29.9940000  0  5G21G26G17G 3G23
  22096216.0574   -4852885.53145  -3483835.30561
  20784440.9404  -14806427.55046 -11299230.71062
  18965942.7524  -14398409.50247 -11148924.35464
  18679704.4634  -24045155.93247 -18665016.29162
  19278905.4864  -23098004.56847 -17681656.18263
 92  9 17 21 14 59.9940000  0  5G21G26G17G 3G23
  22073210.7754   -4973767.61445  -3578029.06261
  20780688.2684  -14826129.32246 -11314582.73862
  18958813.0024  -14435892.85747 -11178132.16164
  18675634.6434  -24066535.35947 -18681675.57862
  19265405.018   -23168945.923 7 -17736935.13323
 92  9 17 21 15 29.9940000  0  5G21G26G17G 3G23
  22050246.6274   -5094449.58945  -3672066.90661
  20777046.5184  -14845275.72046 -11329502.01162
  18951721.3074  -14473157.16747 -11207169.27664
  18671664.2444  -24087413.44147 -18697944.20662
  19251987.4864  -23239461.85047 -17791882.59563
 92  9 17 21 15 59.9940000  0  5G21G26G17G 3G23
  22027317.955    -5214929.827 5  -3765947.54321
  20773507.9474  -14863866.59346 -11343988.40462
  18944671.6744  -14510201.68147 -11236035.12864
  18667787.0654  -24107788.57247 -18713820.92962
  19238648.2444  -23309552.04947 -17846498.31363
 92  9 17 21 16 29.9940000  0  5G21G26G17G 3G23
  22004432.7294   -5335219.89445  -3859679.99561
  20770071.5494  -14881914.19246 -11358051.46362
  18937661.7914  -14547039.81947 -11264740.16664
  18664004.6504  -24127671.87247 -18729314.40462
  19225388.9244  -23379228.84647 -17900791.90763
 92  9 17 21 16 59.9940000  0  5G21G26G17G 3G23
  21981574.6824   -5455326.51345  -3953269.49661
  20766741.2994  -14899426.32646 -11371697.28862
  18930688.0574  -14583678.52647 -11293289.80764
  18660310.7524  -24147069.45447 -18744429.40362
  19212208.0964  -23448499.89647 -17954769.33063
 92  9 17 21 17 29.9940000  0  5G21G26G17G 3G23
  21958757.2914   -5575251.94445  -4046717.82661
  20763510.8774  -14916406.46446 -11384928.55962
  18923754.7754  -14620121.72347 -11321687.10264
  18656709.0654  -24165983.67347 -18759167.75162
  19199104.393   -23517368.632 7 -18008433.26023
 92  9 17 21 17 59.9940000  0  5G21G26G17G 3G23
  21935966.690    -5694997.411 5  -4140025.92321
  20760380.6114  -14932856.98946 -11397747.15962
  18916855.1974  -14656371.33247 -11349933.55364
  18653204.8934  -24184415.56647 -18773530.26262
  19186071.8694  -23585837.24347 -18061785.40263
 92  9 17 21 18 29.9940000  0  5G21G26G17G 3G23
  21913219.0964   -5814544.15545  -4233179.14661
  20757352.4794  -14948760.18046 -11410139.26362
  18909998.1904  -14692409.88947 -11378015.53864
  18649793.8304  -24202346.28247 -18787502.24662
  19173122.5964  -23653888.52947 -18114812.35863
 92  9 17 21 18 59.9940000  0  5G21G26G17G 3G23
  21890505.111    -5933899.393 5  -4326183.14021
  20754427.9324  -14964125.03846 -11422111.88462
  18903178.0334  -14728246.09747 -11405939.86164
  18646473.1664  -24219782.75147 -18801089.09762
  19160250.447   -23721530.442 7 -18167520.32923
 92  9 17 21 19 29.9940000  0  5G21G26G17G 3G23
  21867833.033    -6053053.929 5  -4419030.74421
  20751609.8304  -14978943.13846 -11433658.47562
  18896399.4404  -14763871.30447 -11433699.75764
  18643251.9404  -24236715.41147 -18814283.38462
  19147458.627   -23788754.872 7 -18219902.98123
 92  9 17 21 19 59.9940000  0  5G21G26G17G 3G23
  21845185.3774   -6172044.22445  -4511750.37661
  20748885.9404  -14993252.25246 -11444808.43762
  18889653.2054  -14799322.88547 -11461324.36864
  18640119.4714  -24253180.67647 -18827113.44962
  19134738.9004  -23855599.40647 -18271989.61563
 92  9 17 21 20 29.9940000  0  5G21G26G17G 3G23
  21822578.557    -6290838.147 5  -4604317.04121
  20746270.1044  -15007021.51046 -11455537.74662
  18882945.8074  -14834569.80847 -11488789.50964
  18637078.4634  -24269146.27547 -18839554.17262
  19122097.1504  -23922032.79247 -18323755.87463
 92  9 17 21 20 59.9940000  0  5G21G26G17G 3G23
  21800018.158    -6409431.149 5  -4696727.11821
  20743747.5184  -15020247.66046 -11465843.85162
  18876278.6504  -14869608.72247 -11516092.55564
  18634139.2444  -24284607.65647 -18851602.00362
  19109533.5104  -23988052.05647 -18375199.43763
 92  9 17 21 21 29.9940000  0  5G21G26G17G 3G23
  21777489.916    -6527818.636 5  -4788977.02921
  20741337.3774  -15032927.64646 -11475724.36562
  18869651.7834  -14904436.28047 -11543230.92264
  18631291.3074  -24299560.01247 -18863253.19462
  19097051.650   -24053653.683 7 -18426317.56823
 92  9 17 21 21 59.9940000  0  5G21G26G17G 3G23
  21754998.440    -6645996.354 5  -4881063.45221
  20739027.3154  -15045058.61046 -11485177.08962
  18863065.0654  -14939049.23147 -11570202.03964
  18628545.6044  -24313999.20947 -18874504.52262
  19084645.7054  -24118834.53247 -18477107.82463
 92  9 17 21 22 29.9940000  0  5G21G26G17G 3G23
  21732547.869    -6763974.425 5  -4972994.35021
  20736825.6274  -15056651.97846 -11494210.88462
  18856516.2834  -14973458.72947 -11597014.63764
  18625891.7444  -24327935.24947 -18885363.77462
  19072321.5654  -24183605.74547 -18527578.88463
 92  9 17 21 22 59.9940000  0  5G21G26G17G 3G23
  21710139.846    -6881750.562 5  -5064767.89821
  20734717.721   -15067707.092 6 -11502825.28122
  18850007.4164  -15007663.01847 -11623667.33064
  18623339.6584  -24341365.83947 -18895829.17362
  19060073.0574  -24247966.39947 -18577730.02663
 92  9 17 21 23 29.9940000  0  5G21G26G17G 3G23
  21687759.2444   -6999322.70345  -5156382.49161
  20732718.2604  -15078222.47546 -11511019.10062
  18843537.8774  -15041661.47447 -11650159.62964
  18620878.0804  -24354288.66847 -18905898.90962
  19047905.432   -24311915.474 7 -18627560.45523
 92  9 17 21 23 59.9940000  0  5G21G26G17G 3G23
  21665427.7294   -7116682.23845  -5247831.41561
  20730818.799   -15088191.420 6 -11518787.12422
  18837107.9714  -15075445.98047 -11676485.21864
  18618517.0494  -24366694.83047 -18915566.05062
  19035815.893   -24375445.581 7 -18677064.41923
 92  9 17 21 24 29.9940000  0  5G21G26G17G 3G23
  21643137.736    -7233826.745 5  -5339112.81321
  20729027.0964  -15097612.65146 -11526128.35462
  18830719.9084  -15109014.92947 -11702642.84164
  18616256.3544  -24378582.11747 -18924828.88062
  19023805.1584  -24438555.26947 -18726240.77863
 92  9 17 21 24 59.9940000  0  5G21G26G17G 3G23
  21620887.3934   -7350756.34246  -5430226.70461
  20727340.1434  -15106488.07846 -11533044.28762
  18824372.7054  -15142369.63347 -11728633.51864
  18614091.9864  -24389950.42747 -18933687.30362
  19011877.9794  -24501245.83247 -18775090.55163
 92  9 17 21 25 29.9940000  0  5G21G26G17G 3G23
  21598679.8464   -7467467.63546  -5521170.54861
  20725751.6974  -15114815.53546 -11539533.22862
  18818067.0104  -15175507.32747 -11754455.09864
  18612028.5804  -24400796.14747 -18942138.52562
  19000026.4404  -24563515.37147 -18823612.25363
 92  9 17 21 25 59.9940000  0  5G21G26G17G 3G23
  21576509.213    -7583970.914 5  -5611952.30021
  20724272.9164  -15122606.46846 -11545604.09862
  18811801.2054  -15208439.99747 -11780116.92264
  18610062.1434  -24411129.88247 -18950190.79662
  18988254.8694  -24625375.21847 -18871814.71263
 92  9 17 21 26 29.9940000  0  5G21G26G17G 3G23
  21554381.4474   -7700251.23745  -5702560.32661
  20722894.057   -15129847.604 6 -11551246.56122
  18805576.3074  -15241153.42747 -11805607.90664
  18608194.7754  -24420936.47247 -18957832.30062
  18976563.8384  -24686811.48747 -18919687.12163
 92  9 17 21 26 59.9940000  0  5G21G26G17G 3G23
  21532295.6744   -7816305.72645  -5792992.38261
  20721619.4164  -15136537.45146 -11556459.43562
  18799391.9164  -15273644.88947 -11830925.92464
  18606431.0964  -24430212.99447 -18965060.75962
  18964954.5024  -24747822.28947 -18967227.98663
 92  9 17 21 27 29.9940000  0  5G21G26G17G 3G23
  21510251.760    -7932141.469 5  -5883253.96821
  20720451.268   -15142684.416 6 -11561249.30222
  18793251.5724  -15305922.45847 -11856077.27564
  18604764.4714  -24438966.55847 -18971881.72762
  18953424.3694  -24808415.91847 -19014443.78663
 92  9 17 21 27 59.9940000  0  5G21G26G17G 3G23
  21488249.619    -8047753.742 5  -5973341.42721
  20719385.8074  -15148285.95946 -11565614.14362
  18787149.0104  -15337982.25047 -11881058.93364
  18603198.2524  -24447192.64247 -18978291.66762
  18941974.2524  -24868588.98347 -19061331.87863
 92  9 17 21 28 29.9940000  0  5G21G26G17G 3G23
  21466284.838    -8163162.788 5  -6063270.51921
  20718416.7754  -15153363.43846 -11569570.64362
  18781085.9864  -15369845.79547 -11905887.66864
  18601731.2294  -24454911.28947 -18984306.20062
  18930599.4404  -24928363.28747 -19107909.24463
 92  9 17 21 28 59.9940000  0  5G21G26G17G 3G23
  21444370.471    -8278353.266 5  -6153029.29421
  20717553.6274  -15157903.22346 -11573108.14262
  18775063.5334  -15401498.53247 -11930552.13964
  18600361.0184  -24462107.41247 -18989913.58262
  18919303.0804  -24987724.68147 -19154164.86363
 92  9 17 21 29 29.9940000  0  5G21G26G17G 3G23
  21422490.979    -8393315.511 5  -6242610.22521
  20716795.7054  -15161897.56746 -11576220.63062
  18769082.1504  -15432931.40947 -11955045.28864
  18599092.5804  -24468771.83947 -18995106.64062
  18908086.5574  -25046665.02947 -19200092.39163
 92  9 17 21 29 59.9940000  0  5G21G26G17G 3G23
  21400661.7994   -8508059.01446  -6332020.69561
  20716136.2214  -15165357.18646 -11578916.44862
  18763138.9474  -15464155.32147 -11979375.60364
  18597922.4244  -24474913.96247 -18999892.71862
  18896948.4944  -25105194.81547 -19245700.00163
 92  9 17 21 30 29.9940000  0  5G21G26G17G 3G23
  21378867.697    -8622570.642 5  -6421250.47121
  20715580.7834  -15168270.43746 -11581186.52562
  18757240.2444  -15495157.47047 -12003533.12564
  18596858.7604  -24480520.59647 -19004261.53562
  18885890.7364  -25163301.94547 -19290978.27263
 92  9 17 21 30 59.9930000  0  5G21G26G17G 3G23
  21357119.0134   -8736860.95946  -6510307.81861
  20715126.7394  -15170653.29846 -11583043.31162
  18751380.0214  -15525951.82347 -12027528.72364
  18595890.2784  -24485605.82147 -19008224.06262
  18874911.1534  -25221000.06347 -19335937.82763
 92  9 17 21 31 29.9930000  0  5G21G26G17G 3G23
  21335408.864    -8850953.758 6  -6599211.25321
  20714774.0444  -15172523.87446 -11584500.91662
  18745556.7944  -15556557.79847 -12051377.53264
  18595018.0994  -24490186.52247 -19011793.44262
  18864005.3804  -25278310.74547 -19380595.49463
 92  9 17 21 31 59.9930000  0  5G21G26G17G 3G23
  21313741.7714   -8964812.91546  -6687932.61161
  20714523.2244  -15173851.48546 -11585535.43362
  18739774.3104  -15586942.70647 -12075054.07464
  18594246.4424  -24494230.20747 -19014944.38262
  18853179.2004  -25335200.80247 -19424925.40063
 92  9 17 21 32 29.9930000  0  5G21G26G17G 3G23
  21292115.903    -9078439.308 6  -6776472.60821
  20714369.403   -15174637.914 6 -11586148.25122
  18734034.7944  -15617107.71747 -12098559.27664
  18593581.5134  -24497737.83147 -19017677.60562
  18842433.7474  -25391672.31447 -19468929.16363
 92  9 17 21 32 59.9930000  0  5G21G26G17G 3G23
  21270540.5444   -9191825.36046  -6864825.31061
  20714321.8884  -15174878.12146
  18728336.4744  -15647046.74447 -12121888.38464
  18593017.9424  -24500702.25147 -19019987.55862
  18831766.8174  -25447719.61347 -19512602.37663
 92  9 17 21 33 29.9930000  0  5G21G26G17G 3G23
  21249011.982    -9304969.563 6  -6952989.58321
  20714385.2324  -15174571.99446
  18722682.5214  -15676758.40547 -12145040.32464
  18592555.2714  -24503122.10347 -19021873.16662
  18821182.8024  -25503342.12747 -19555944.58663
 92  9 17 21 33 59.9930000  0  5G21G26G17G 3G23
  21227527.849    -9417884.460 6  -7040975.16521
  20714542.1694  -15173733.48746 -11585443.53462
  18717069.5604  -15706256.13047 -12168025.56564
  18592197.6854  -24505009.86047 -19023344.15762
  18810676.9744  -25558553.33447 -19598966.30063
 92  9 17 21 34 29.9930000  0  5G21G26G17G 3G23
  21206081.778    -9530560.937 6  -7128774.96621
  20714804.0914  -15172355.75346 -11584369.98462
  18711498.2244  -15735531.77147 -12190837.75664
  18591941.3494  -24506356.84247 -19024393.75762
  18800250.8494  -25613345.37847 -19641661.39663
 92  9 17 21 34 59.9930000  0  5G21G26G17G 3G23
  21184685.6464   -9643008.08146  -7216396.03961
  20715164.442   -15170449.663 6 -11582884.73322
  18705967.4194  -15764594.94947 -12213484.38164
  18591784.8414  -24507172.23147 -19025029.14162
  18789902.5444  -25667729.19447 -19684038.38263
 92  9 17 21 35 29.9930000  0  5G21G26G17G 3G23
  21163338.9584   -9755203.69146  -7303821.13361
  20715634.3174  -15167994.73446 -11580971.82062
  18700481.9504  -15793424.03347 -12235948.60864
  18591736.0754  -24507433.88247
  18779634.9664  -25721683.46647 -19726080.66963
 92  9 17 21 35 59.9930000  0  5G21G26G17G 3G23
  21142026.271    -9867170.174 6  -7391067.69021
  20716202.9894  -15165014.39646 -11578649.49362
  18695036.9974  -15822042.60947 -12258248.79164
  18591785.9894  -24507165.01747
  18769445.5214  -25775232.30947 -19767807.03363
 92  9 17 21 36 29.9930000  0  5G21G26G17G 3G23
  21120768.3964   -9978896.39346  -7478127.02861
  20716870.388   -15161499.892 6 -11575910.93422
  18689631.5364  -15850439.42947 -12280376.17864
  18591940.5134  -24506354.31547 -19024391.85262
  18759333.8804  -25828365.85147 -19809209.78563
 92  9 17 21 36 59.9930000  0  5G21G26G17G 3G23
  21099548.669   -10090404.810 6  -7565016.63621
  20717633.1464  -15157475.34446 -11572774.93962
  18684267.1534  -15878638.05747 -12302349.13464
  18592197.1304  -24505024.75947 -19023355.84662
  18749296.6224  -25881107.93447 -19850307.50463
 92  9 17 21 37 29.9930000  0  5G21G26G17G 3G23
  21078376.2944  -10201663.63046  -7651711.76161
  20718505.8884  -15152910.51946 -11569217.94862
  18678943.5214  -15906607.17247 -12324143.24864
  18592552.5914  -24503144.41247 -19021890.64562
  18739340.5284  -25933427.71547 -19891076.15863
 92  9 17 21 37 59.9930000  0  5G21G26G17G 3G23
  21057249.1384  -10312691.74546  -7738227.12061
  20719473.896   -15147826.568 6 -11565256.45922
  18673662.2244  -15934366.36047 -12345773.77864
  18593010.950   -24500733.123 7 -19020011.74222
  18729462.1384  -25985345.87647 -19931531.85863
 92  9 17 21 38 29.9930000  0  5G21G26G17G 3G23
  21036167.8104  -10423479.80146  -7824555.40661
  20720540.732   -15142215.987 6 -11560884.59522
  18668421.2784  -15961906.99847 -12367234.00364
  18593574.7474  -24497781.45447 -19017711.75262
  18719659.3254  -26036854.34347 -19971668.31763
 92  9 17 21 38 59.9930000  0  5G21G26G17G 3G23
  21015128.208   -10534024.672 6  -7910694.18621
  20721706.271   -15136077.337 6 -11556101.26322
  18663222.4194  -15989226.40747 -12388521.86064
  18594238.8414  -24494286.73647 -19014988.61862
  18709934.7474  -26087951.28547 -20011484.10963
 92  9 17 21 39 29.9930000  0  5G21G26G17G 3G23
  20994137.4664  -10644331.69146  -7996647.64461
  20722976.0914  -15129417.94446 -11550912.14662
  18658064.4504  -16016330.72947 -12409642.09664
  18595005.4194  -24490254.53347 -19011846.65662
  18700290.614   -26138643.291 7 -20050984.36023
 92  9 17 21 39 59.9930000  0  5G21G26G17G 3G23
  20973195.403   -10754387.157 6  -8082405.10221
  20724345.747   -15122225.874 6 -11545307.96722
  18652951.2474  -16043206.68547 -12430584.39364
  18595875.9584  -24485671.52447 -19008275.49662
  18690724.2394  -26188917.69247 -20090159.20863
 92  9 17 21 40 29.9930000  0  5G21G26G17G 3G23
  20952306.9584  -10864164.17446  -8167945.61361
  20725817.911   -15114475.805 6 -11539268.97522
  18647884.4744  -16069827.99147 -12451328.25964
  18596860.8884  -24480511.02047 -19004254.32862
  18681240.8964  -26238749.51147 -20128989.19263
 92  9 17 21 40 59.9930000  0  5G21G26G17G 3G23
  20931462.646   -10973689.569 6  -8253290.04621
  20727395.7474  -15106196.60646 -11532817.67262
  18642862.4034  -16096221.63947 -12471894.73064
  18597946.3104  -24474800.47547 -18999804.56762
  18671836.9274  -26288166.92747 -20167496.26363
 92  9 17 21 41 29.9930000  0  5G21G26G17G 3G23
  20910669.474   -11082967.703 6  -8338441.80921
  20729071.489   -15097394.745 6 -11525959.09821
  18637881.8804  -16122392.91547 -12492287.93064
  18599135.8254  -24468544.72447 -18994929.95962
  18662510.7864  -26337175.24547 -20205684.55163
 92  9 17 21 41 59.9930000  0  5G21G26G17G 3G23
  20889925.419   -11191982.677 6  -8423388.50521
  20730845.903   -15088056.152 6 -11518682.30222
  18632946.9974  -16148326.08147 -12512495.58264
  18600433.7634  -24461727.94647 -18989618.18962
  18653265.2474  -26385759.97547 -20243542.77463
 92  9 17 21 42 29.9930000  0  5G21G26G17G 3G23
  20869225.450   -11300752.347 6  -8508144.06821
  20732723.4744  -15078200.18246 -11511002.34462
  18628053.5524  -16174040.22547 -12532532.57464
  18601832.7164  -24454368.68947 -18983883.70962
  18644096.0444  -26433940.60147 -20281086.11063
 92  9 17 21 42 59.9930000  0  5G21G26G17G 3G23
  20848577.6144  -11409257.76346  -8592693.69761
  20734698.888   -15067810.480 6 -11502906.50222
  18623205.8254  -16199516.42547 -12552384.15264
  18603341.2004  -24446448.24547 -18977711.93962
  18635009.0444  -26481699.45747 -20318300.79663
 92  9 17 21 43 29.9930000  0  5G21G26G17G 3G23
  20827976.0524  -11517539.24046  -8677068.81361
  20736770.857   -15056929.068 6 -11494427.51522
  18618395.0674  -16224795.65147 -12572082.24264
  18604948.3724  -24438007.68047 -18971134.88462
  18625991.1924  -26529078.29747 -20355219.36263
 92  9 17 21 43 59.9930000  0  5G21G26G17G 3G23
  20807415.2864  -11625572.90746  -8761250.81561
  20738939.4744  -15045534.10546 -11485548.34262
  18613627.7394  -16249854.41847 -12591608.55664
  18606656.0524  -24429023.56747 -18964134.27362
  18617053.8174  -26576054.89547 -20391824.48763
 92  9 17 21 44 29.9930000  0  6G28G21G26G17G 3G23
  22222889.2714         -0.57954
  20786906.3574  -11733339.20346  -8845224.50761
  20741206.669   -15033607.855 6 -11476255.18022
  18608903.3884  -16274673.35447 -12610947.98464
  18608474.5134  -24419476.78947 -18956695.23762
  18608194.3724  -26622610.81147 -20428101.81963
 92  9 17 21 44 59.9930000  0  6G28G21G26G17G 3G23
  22197246.911     -134774.333 4
  20766450.5134  -11840840.92146  -8928992.03861
  20743579.982   -15021155.062 6 -11466551.73922
  18604225.7864  -16299256.20347 -12630103.44564
  18610396.2554  -24409370.56747 -18948820.25362
  18599413.8254  -26668750.22847 -20464054.59763
 92  9 17 21 45 29.9930000  0  6G28G21G26G17G 3G23
  22171629.857     -269415.007 5        -0.14531
  20746043.911   -11948083.120 6  -9012557.33821
  20746043.3024  -15008183.16746 -11456443.77161
  18599591.5444  -16323608.14847 -12649078.98764
  18612426.2164  -24398710.24747 -18940513.51662
  18590710.7944  -26714479.52847 -20499687.81263
 92  9 17 21 45 59.9930000  0  6G28G21G26G17G 3G23
  22146031.6144    -403918.30444   -104807.83561
  20725684.3494  -12055063.17046  -9095918.38161
  20748615.2324  -14994691.38346 -11445930.72561
  18595001.6614  -16347727.30847 -12667873.14364
  18614559.2944  -24387494.31547 -18931773.83862
  18582088.7084  -26759797.42247 -20535000.44563
 92  9 17 21 46 29.9930000  0  6G28G21G26G17G 3G23
  22120463.5914    -538295.56745   -209517.29761
  20705373.8174  -12161794.43246  -9179085.53961
  20751277.3254  -14980695.02946 -11435024.50761
  18590453.0134  -16371627.03747 -12686496.30264
  18616799.6074  -24375736.04947 -18922611.55862
  18573541.2324  -26804718.87547 -20570004.16363
 92  9 17 21 46 59.9930000  0  6G28G21G26G17G 3G23
  22094918.185     -672528.885 5   -314114.61321
  20685117.2714  -12268260.66946  -9262046.20761
  20754039.8254  -14966179.82646 -11423713.98062
  18585951.9114  -16395292.12647 -12704936.63064
  18619139.4744  -24363419.98547 -18913014.63062
  18565067.9584  -26849229.09747 -20604687.43462
 92  9 17 21 47 29.9930000  0  6G28G21G26G17G 3G23
  22069398.146     -806626.424 5   -418606.11721
  20664902.857   -12374471.913 6  -9344808.16121
  20756897.974   -14951157.671 6 -11412008.42321
  18581490.6614  -16418732.41247 -12723201.78764
  18621589.2164  -24350556.80447 -18902991.38362
  18556676.8804  -26893339.48347 -20639059.15463
 92  9 17 21 47 59.9930000  0  6G28G21G26G17G 3G23
  22043909.966     -940574.518 5   -522981.18821
  20644743.7324  -12480416.06446  -9427361.99161
  20759852.5674  -14935619.16246 -11399900.50461
  18577075.1854  -16441936.61747 -12741282.98164
  18624146.1224  -24337135.25147 -18892533.04062
  18548361.2714  -26937039.32047 -20673110.96563
 92  9 17 21 48 29.9930000  0  6G28G21G26G17G 3G23
  22018445.6464   -1074376.82145   -627242.62161
  20624631.599   -12586099.253 6  -9509712.47221
  20762909.8964  -14919572.05146 -11387396.27761
  18572701.9664  -16464911.31247 -12759185.33964
  18626800.7324  -24323161.95047 -18881644.76362
  18540120.2164  -26980336.25747 -20706848.82963
 92  9 17 21 48 59.9930000  0  6G28G21G26G17G 3G23
  21993013.903    -1208041.047 5   -731396.48421
  20604570.6854  -12691530.48646  -9591866.62561
  20766056.9274  -14903027.92846 -11374504.76161
  18568372.9114  -16487665.55347 -12776915.92664
  18629563.8964  -24308646.69847 -18870334.18962
  18531956.0284  -27023241.00547 -20740281.09063
 92  9 17 21 49 29.9930000  0  6G28G21G26G17G 3G23
  21967605.005    -1341554.630 4   -835432.97921
  20584559.935   -12796699.533 6  -9673816.48321
  20769299.3884  -14885977.95046 -11361219.09061
  18564088.0134  -16510189.72647 -12794467.23264
  18632433.5754  -24293579.43847 -18858593.49162
  18523868.2084  -27065744.40147 -20773400.60863
 92  9 17 21 49 59.9930000  0  6G28G21G26G17G 3G23
  21942225.005    -1474922.270 4   -939355.70721
  20564592.1224  -12901613.24246  -9755567.36161
  20772639.4274  -14868431.35746 -11347546.43561
  18559842.4354  -16532490.70347 -12811844.61764
  18635402.9194  -24277968.06747 -18846428.80162
  18515854.1304  -27107854.90947 -20806213.97863
 92  9 17 21 50 29.9930000  0  6G28G21G26G17G 3G23
  21916877.1924   -1608135.20544  -1043157.91361
  20544679.0284  -13006264.30746  -9837113.58461
  20776076.5834  -14850382.84246 -11333482.67661
  18555642.3964  -16554561.53547 -12829042.67164
  18638476.9274  -24261805.76847 -18833834.82862
  18507918.1384  -27149566.90547 -20838716.82163
 92  9 17 21 50 59.9930000  0  6G28G21G26G17G 3G23
  21891558.278    -1741183.460 4  -1146831.83021
  20524815.2474  -13110644.91846  -9918449.06561
  20779606.1534  -14831827.26346 -11319023.78561
  18551487.8334  -16576395.14247 -12846055.87464
  18641659.427   -24245085.526 7 -18820806.09122
  18500058.4584  -27190873.55747 -20870903.81362
 92  9 17 21 51 29.9930000  0  6G28G21G26G17G 3G23
  21866272.114    -1874066.913 5  -1250377.29121
  20505002.5914  -13214756.68746  -9999575.06461
  20783233.067   -14812768.108 6 -11304172.51121
  18547378.0914  -16597993.15447 -12862885.50264
  18644948.0674  -24227809.68147 -18807344.41062
  18492271.7714  -27231777.99547 -20902777.39063
 92  9 17 21 51 59.9930000  0  6G28G21G26G17G 3G23
  21841023.778    -2006755.000 5  -1353770.52021
  20485246.052   -13318571.665 6 -10080469.79821
  20786959.3414  -14793179.28946 -11288908.52061
  18543318.7084  -16619327.63547 -12879509.78064
  18648345.997   -24209950.836 7 -18793428.45122
  18484569.7474  -27272253.64947 -20934316.85863
 92  9 17 21 52 29.9930000  0  6G28G21G26G17G 3G23
  21815801.232    -2139298.243 5  -1457050.90521
  20465538.1304  -13422142.05746 -10161173.94461
  20790777.4504  -14773114.88846 -11273273.92961
  18539298.4664  -16640451.02547 -12895969.56364
  18651844.8644  -24191562.02347 -18779099.52862
  18476939.7634  -27312354.11447 -20965563.96862
 92  9 17 21 52 59.9930000  0  6G28G21G26G17G 3G23
  21790605.5444   -2271698.51245  -1560219.85661
  20445875.122   -13525471.948 6 -10241690.69421
  20794682.966   -14752581.773 6 -11257274.13021
  18535318.5754  -16661368.35347 -12912268.78764
  18655444.2004  -24172648.01847 -18764361.36762
  18469379.2784  -27352084.99647 -20996523.08862
 92  9 17 21 53 29.9930000  0  6G28G21G26G17G 3G23
  21765443.005    -2403932.968 5  -1663259.61821
  20426264.107   -13628540.530 6 -10322003.82421
  20798685.6924  -14731561.12446 -11240894.41461
  18531381.2394  -16682058.36747 -12928390.86764
  18659148.255   -24153189.008 7 -18749198.52922
  18461891.6774  -27391427.01147 -21027179.20462
 92  9 17 21 53 59.9930000  0  6G28G21G26G17G 3G23
  21740311.8174   -2535986.59145  -1766158.45261
  20406700.802   -13731334.380 6 -10402102.86721
  20802779.466   -14710041.974 6 -11224126.27721
  18527490.7324  -16702508.50347 -12944326.03464
  18662956.0994  -24133172.12447 -18733600.98562
  18454482.5674  -27430368.15247 -21057522.93963
 92  9 17 21 54 29.9930000  0  6G28G21G26G17G 3G23
  21715218.2634   -2667870.94645  -1868925.41361
  20387190.271   -13833867.584 6 -10481998.82021
  20806966.2474  -14688040.28546 -11206982.11461
  18523641.4114  -16722733.08847 -12960085.44364
  18666869.3104  -24112612.43547 -18717580.47662
  18447146.7784  -27468924.22847 -21087566.63562
 92  9 17 21 54 59.9930000  0  6G28G21G26G17G 3G23
  21690153.271    -2799575.956 5  -1971552.61821
  20367730.364   -13936132.278 6 -10561685.55021
  20811245.7864  -14665550.43246 -11189457.56761
  18519836.3804  -16742723.83147 -12975662.64464
  18670887.208   -24091502.548 7 -18701131.23022
  18439883.9424  -27507088.37347 -21117304.92163
 92  9 17 21 55 29.9930000  0  6G28G21G26G17G 3G23
  21665123.708    -2931102.009 5  -2074040.37521
  20348319.950   -14038130.803 6 -10641164.86821
  20815619.0674  -14642576.60746 -11171555.89361
  18516077.1694  -16762483.69547 -12991059.92964
  18675006.6464  -24069845.99247 -18684256.01662
  18432694.8174  -27544864.81947 -21146741.10563
 92  9 17 21 55 59.9930000  0  6G28G21G26G17G 3G23
  21640130.3414   -3062447.50145  -2176387.43561
  20328963.0444  -14139863.98746 -10720437.42961
  20820083.8414  -14619122.30946 -11153279.83061
  18512361.1304  -16782013.08747 -13006277.63164
  18679229.591   -24047644.012 7 -18666955.80722
  18425578.7164  -27582255.34647 -21175876.58062
 92  9 17 21 56 29.9930000  0  6G28G21G26G17G 3G23
  21615166.489    -3193627.857 5  -2278605.81421
  20309647.317   -14241349.283 6 -10799516.83721
  20824632.0674  -14595206.87846 -11134644.44561
  18508684.2164  -16801330.34347 -13021330.03664
  18683556.849   -24024915.002 7 -18649244.90722
  18418535.2394  -27619279.18847 -21204726.32762
 92  9 17 21 56 59.9930000  0  6G28G21G26G17G 3G23
  21590241.458    -3324618.848 5  -2380676.64321
  20290389.544   -14342564.263 6 -10878385.60621
  20829274.0914  -14570810.12246 -11115634.00361
  18505054.8644  -16820413.11447 -13036199.71164
  18687988.2634  -24001637.42547 -18631106.55962
  18411561.8804  -27655915.42047 -21233274.03662
 92  9 17 21 57 29.9930000  0  6G28G21G26G17G 3G23
  21565351.013    -3455422.927 5  -2482601.82821
  20271177.6854  -14443513.59246 -10957047.36961
  20834010.0054  -14545939.13246 -11096254.04061
  18501466.6224  -16839266.21647 -13050890.43364
  18692519.5524  -23977817.00947 -18612545.21962
  18404661.7864  -27692170.04147 -21261524.38362
 92  9 17 21 57 59.9930000  0  6G28G21G26G17G 3G23
  21540495.2244   -3586028.96045  -2584372.67661
  20252021.052   -14544187.800 6 -11035494.76621
  20838834.9424  -14520586.90346 -11076499.07561
  18497923.7084  -16857880.94647 -13065395.41164
  18697158.380   -23953445.390 7 -18593554.35922
  18397838.3414  -27728035.20347 -21289471.25762
 92  9 17 21 58 29.9920000  0  6G28G21G26G17G 3G23
  21515676.1024   -3716445.69245  -2685996.03061
  20232910.149   -14644599.175 6 -11113737.35121
  20843742.820   -14494772.432 6 -11056383.94321
  18494422.6954  -16876272.28647 -13079726.32064
  18701896.4614  -23928539.98547 -18574147.57061
  18391086.5704  -27763527.05447 -21317127.24462
 92  9 17 21 58 59.9920000  0  6G28G21G26G17G 3G23
  21490896.0864   -3846667.85545  -2787467.77661
  20213855.6644  -14744742.92846 -11191771.39861
  20848748.422   -14468484.092 6 -11035899.54421
  18490968.0634  -16894429.50147 -13093874.78864
  18706738.9534  -23903088.30747 -18554315.11562
  18384405.0004  -27798637.49447 -21344486.02462
 92  9 17 21 59 29.9920000  0  6G28G21G26G17G 3G23
  21466158.399    -3976681.405 5  -2888776.98221
  20194849.547   -14844608.324 6 -11269588.54421
  20853840.9924  -14441717.68546 -11015042.62661
  18487558.7974  -16912345.04847 -13107834.94164
  18711690.289   -23877084.727 7 -18534052.61022
  18377796.4454  -27833359.43847 -21371542.07562
 92  9 17 21 59 59.9920000  0  6G28G21G26G17G 3G23
  21441457.8674   -4106479.79445  -2989918.48661
  20175902.4534  -14944191.17146 -11347185.52461
  20859028.3204  -14414471.68246 -10993811.98961
  18484197.4534  -16930014.60447 -13121603.42064
  18716741.3444  -23850525.92247 -18513357.45062
  18371262.4924  -27867690.33447 -21398293.41562
 92  9 17 22  0 29.9920000  0  6G28G21G26G17G 3G23
  21416796.344    -4236074.002 5  -3090900.90921
  20157000.266   -15043504.565 6 -11424572.54221
  20864298.383   -14386761.165 6 -10972219.41321
  18480879.6024  -16947451.16947 -13135190.34564
  18721898.9694  -23823425.96347 -18492240.62462
  18364800.2584  -27901644.64747 -21424751.32062
 92  9 17 22  0 59.9920000  0  6G28G21G26G17G 3G23
  21392172.7584   -4365462.85345  -3191723.30361
  20138155.4774  -15142549.57346 -11501750.42461
  20869661.399   -14358589.622 6 -10950267.59121
  18477603.9304  -16964656.55547 -13148597.13664
  18727160.4384  -23795787.11947 -18470703.86862
  18358413.3994  -27935224.96847 -21450917.79262
 92  9 17 22  1 29.9920000  0  6G28G21G26G17G 3G23
  21367591.609    -4494638.388 5  -3292379.48221
  20119361.938   -15241320.213 6 -11578714.52421
  20875110.758   -14329952.662 6 -10927953.11321
  18474376.5164  -16981624.34847 -13161818.77764
  18732520.6954  -23767604.37147 -18448743.30462
  18352092.4774  -27968426.66247 -21476789.23762
 92  9 17 22  1 59.9920000  0  6G28G21G26G17G 3G23
  21343056.055    -4623586.371 5  -3392858.36321
  20100616.430   -15339804.534 6 -11655455.50521
  20880650.4924  -14300841.54946 -10905269.15161
  18471192.6094  -16998343.08747 -13174846.36564
  18737990.3054  -23738866.67047 -18426350.31562
  18345850.5554  -28001239.39947 -21502357.59162
 92  9 17 22  2 29.9920000  0  6G28G21G26G17G 3G23
  21318558.383    -4752315.549 5  -3493166.75421
  20081931.9384  -15438013.55946 -11731981.97161
  20886276.1254  -14271269.80646 -10882226.29061
  18468058.1724  -17014823.97247 -13187688.60464
  18743563.0554  -23709586.62547 -18403534.71462
  18339676.7114  -28033676.06947 -21527632.90662
 92  9 17 22  2 59.9920000  0  6G28G21G26G17G 3G23
  21294102.102    -4880829.193 5  -3593307.19521
  20063294.0864  -15535953.04646 -11808298.40861
  20891991.727   -14241245.131 6
  18464966.8994  -17031072.54347 -13200349.82664
  18749237.0864  -23679770.67947
  18333574.8364  -28065743.36147 -21552620.40263
 92  9 17 22  3 29.9920000  0  6G28G21G26G17G 3G23
  21269686.586    -5009132.462 5  -3693283.69621
  20044704.945   -15633630.626 6 -11884410.76521
  20897786.930   -14210777.132 6
  18461915.6334  -17047096.66547 -13212836.15064
  18755010.9304  -23649427.67847
  18327541.5164  -28097450.56747 -21577327.30762
 92  9 17 22  3 59.9920000  0  6G28G21G26G17G 3G23
  21245317.8204   -5137216.68345  -3793089.52361
  20026170.422   -15731039.143 6 -11960313.46221
  20903667.4384  -14179862.16746
  18458910.7974  -17062889.67947 -13225142.38764
  18760887.0864  -23618551.71147
  18321577.4144  -28128792.20447 -21601749.35462
 92  9 17 22  4 29.9920000  0  6G28G21G26G17G 3G23
  21220985.875    -5265070.705 5  -3892715.96821
  20007684.383   -15828170.672 6 -12036000.32621
  20909639.9924  -14148493.54246
  18455950.4924  -17078442.97847 -13237261.83864
  18766865.3594  -23587135.52647
  18315685.2344  -28159761.99147 -21625881.65362
 92  9 17 22  4 59.9920000  0  6G28G21G26G17G 3G23
  21196702.1564   -5392677.98745  -3992150.15861
  19989258.9614  -15925011.07146 -12111460.32361
  20915697.469   -14116659.056 6
  18453040.3594  -17093742.24747 -13249183.34264
  18772947.3054  -23555166.00247
  18309863.9534  -28190346.80547 -21649713.96462
 92  9 17 22  5 29.9920000  0  6G28G21G26G17G 3G23
  21172457.7504   -5520071.25145  -4091417.56661
  19970881.1254  -16021594.96646 -12186720.46961
  20921837.219   -14084396.729 6 -10736610.63521
  18450172.1564  -17108822.33247 -13260934.06164
  18779131.766   -23522679.228 7 -18257892.70122
  18304109.1954  -28220582.86847 -21673274.52462
 92  9 17 22  5 59.9920000  0  6G28G21G26G17G 3G23
  21148260.883    -5647232.651 5  -4190504.29421
  19952550.6954  -16117907.23146 -12261768.93361
  20928060.578   -14051693.307 6 -10711127.48621
  18447346.0314  -17123668.33347 -13272502.37364
  18785412.7194  -23489661.05447 -18232164.26762
  18298424.0004  -28250456.31347 -21696552.52262
 92  9 17 22  6 29.9920000  0  6G28G21G26G17G 3G23
  21124107.430    -5774156.030 5  -4289405.55721
  19934277.172   -16213943.884 6 -12336602.65521
  20934370.8834  -14018547.32546 -10685299.46661
  18444564.9384  -17138276.08347 -13283885.03264
  18791797.399   -23456108.961 7 -18206019.79922
  18292810.3594  -28279964.94347 -21719546.24862
 92  9 17 22  6 59.9920000  0  6G28G21G26G17G 3G23
  21100002.0244   -5900839.02645  -4388119.51561
  19916052.117   -16309704.784 6 -12411221.48921
  20940759.0474  -13984960.88646 -10659128.25761
  18441832.5004  -17152645.37247 -13295081.88164
  18798284.6494  -23422023.79647 -18179459.95262
  18287263.5554  -28309110.25447 -21742256.87262
 92  9 17 22  7 29.9920000  0  6G28G21G26G17G 3G23
  21075945.0004   -6027264.97445  -4486633.16861
  19897887.086   -16405175.863 6 -12485614.50422
  20947239.2664  -13950922.54146 -10632604.88861
  18439143.6644  -17166762.16247 -13306081.98563
  18804873.8834  -23387392.73047 -18152474.72662
  18281788.9534  -28337879.48847 -21764674.44662
 92  9 17 22  7 59.9920000  0  6G28G21G26G17G 3G23
  21051930.1174   -6153441.96445  -4584952.83761
  19879769.695   -16500367.336 6 -12559789.62722
  20953798.695   -13916444.738 6 -10605739.11121
  18436504.8524  -17180636.68147 -13316893.29664
  18811563.8364  -23352227.33747 -18125073.13662
  18276382.7664  -28366284.31147 -21786808.07062
 92  9 17 22  8 29.9920000  0  6G28G21G26G17G 3G23
  21027968.4844   -6279374.61245  -4683082.11061
  19861705.828   -16595286.921 6 -12633752.89521
  20960440.344   -13881537.618 6 -10578538.79721
  18433907.6494  -17194276.65747 -13327521.84964
  18818357.1414  -23316536.14347 -18097261.83861
  18271046.7504  -28394333.67947 -21808664.70662
 92  9 17 22  8 59.9920000  0  6G28G21G26G17G 3G23
  21004054.180    -6405049.892 5  -4781010.83321
  19843699.383   -16689923.618 6 -12707495.73621
  20967166.055   -13846192.016 6 -10550996.78921
  18431360.5244  -17207670.55147 -13337958.65064
  18825251.3594  -23280309.47547 -18069033.28761
  18265776.9924  -28422018.16247 -21830237.02462
 92  9 17 22  9 29.9920000  0  6G28G21G26G17G 3G23
  20980188.297    -6530461.849 5  -4878734.36221
  19825744.258   -16784274.319 6 -12781015.72221
  20973977.313   -13810407.524 6 -10523112.81321
  18428859.3134  -17220815.65147 -13348201.58464
  18832247.1644  -23243545.39147 -18040385.97361
  18260577.3444  -28449336.00747 -21851523.65462
 92  9 17 22  9 59.9920000  0  6G28G21G26G17G 3G23
  20956373.2974   -6655603.36145  -4976247.19061
  19807847.688   -16878334.399 6 -12854309.24921
  20980869.156   -13774182.006 6 -10494885.18321
  18426406.3524  -17233706.80247 -13358246.63664
  18839348.4534  -23206240.78047 -18011317.46961
  18255449.3754  -28476284.21047 -21872522.25762
 92  9 17 22 10 29.9920000  0  6G28G21G26G17G 3G23
  20932604.9224   -6780509.58045  -5073576.64561
  19789995.094   -16972141.283 6 -12927405.48222
  20987840.055   -13737555.049 6 -10466344.73221
  18423996.1334  -17246381.62047 -13368123.11464
  18846541.3674  -23168434.04847 -17981857.70061
  18250386.0244  -28502901.45847 -21893262.96762
 92  9 17 22 10 59.9920000  0  6G28G21G26G17G 3G23
  20908885.8284   -6905160.29445  -5170707.01161
  19772195.5314  -17065677.29046 -13000290.65261
  20994889.852   -13700511.590 6 -10437479.74221
  18421627.1884  -17258822.39047 -13377817.22163
  18853832.7744  -23130108.93547 -17951994.01061
  18245385.4454  -28529171.58447 -21913733.19162
 92  9 17 22 11 29.9920000  0  6G28G21G26G17G 3G23
  20885223.2114   -7029503.28645  -5267597.59561
  19754459.469   -17158892.559 6 -13072925.87921
  21002026.070   -13663004.445 6 -10408253.42521
  18419315.2194  -17270979.18947 -13387290.04664
  18861233.664   -23091217.453 7 -17921688.98921
  18240461.8284  -28555046.66947 -21933895.59362
 92  9 17 22 11 59.9920000  0  6G28G21G26G17G 3G23
  20861608.984    -7153584.912 5  -5364284.51521
  19736772.570   -17251835.829 6 -13145349.16821
  21009241.8754  -13625084.57046 -10378705.49961
  18417045.1174  -17282900.74847 -13396579.57764
  18868732.5704  -23051809.19647 -17890981.28862
  18235604.3914  -28580576.64247 -21953789.08462
 92  9 17 22 12 29.9920000  0  6G28G21G26G17G 3G23
  20838051.3524   -7277391.10045  -5460756.78361
  19719138.703   -17344495.527 6 -13217551.49421
  21016540.297   -13586743.009 6 -10348828.99821
  18414823.0394  -17294575.65247 -13405676.89964
  18876331.7344  -23011874.12947 -17859863.07861
  18230814.7664  -28605751.69247 -21973406.00362
 92  9 17 22 12 59.9920000  0  6G28G21G26G17G 3G23
  20814541.5554   -7400929.67545  -5557020.56461
  19701559.000   -17436882.206 6 -13289541.07422
  21023913.774   -13547992.374 6 -10318633.72421
  18412645.5704  -17306013.63147 -13414589.60964
  18884030.336   -22971423.982 7 -17828343.50921
  18226090.3134  -28630583.19947 -21992755.22662
 92  9 17 22 13 29.9920000  0  6G28G21G26G17G 3G23
  20791085.320    -7524200.794 5  -5653075.92421
  19684026.828   -17528998.420 6 -13361319.90722
  21031361.9304  -13508837.87046 -10288123.76761
  18410514.8134  -17317216.95647 -13423319.47663
  18891827.1954  -22930462.54647 -17796425.53062
  18221425.7664  -28655075.62747 -22011840.23462
 92  9 17 22 13 59.9920000  0  6G28G21G26G17G 3G23
  20767677.3594   -7647208.40345  -5748925.95261
  19666548.406   -17620850.875 6 -13432893.20622
  21038887.852   -13469288.642 6 -10257306.22821
  18408424.8134  -17328192.89547 -13431872.14664
  18899716.289   -22888998.256 7 -17764115.72721
  18216831.0944  -28679237.36447 -22030667.56362
 92  9 17 22 14 29.9920000  0  6G28G21G26G17G 3G23
  20744325.1094   -7769935.50146  -5844557.38361
  19649124.406   -17712424.984 6 -13504249.63022
  21046495.281   -13429332.302 6 -10226171.44121
  18406383.6954  -17338926.37247 -13440235.88563
  18907702.7584  -22847018.00647 -17731403.87661
  18212296.8754  -28703054.95547 -22049226.72762
 92  9 17 22 14 59.9920000  0  6G28G21G26G17G 3G23
  20721024.4224   -7892366.83545  -5939958.36361
  19631752.555   -17803708.211 6 -13575379.37922
  21054175.680   -13388958.967 6 -10194711.77321
  18404387.3594  -17349404.74647 -13448400.85263
  18915794.227   -22804510.465 7 -17698281.13921
  18207833.3134  -28726517.63347 -22067509.32762
 92  9 17 22 15 29.9920000  0  6G28G21G26G17G 3G23
  20697778.344    -8014532.957 6  -6035152.68021
  19614430.563   -17894733.997 6 -13646308.53022
  21061932.7894  -13348204.08046 -10162954.72961
  18402437.0864  -17359660.93147 -13456392.68963
  18923975.266   -22761510.354 7 -17664774.58921
  18203429.2274  -28749659.90147 -22085542.26562
 92  9 17 22 15 59.9920000  0  6G28G21G26G17G 3G23
  20674584.8674   -8136418.10946  -6130128.04761
  19597161.219   -17985488.640 6 -13717026.39821
  21069758.391   -13307056.342 6 -10130891.59921
  18400532.0784  -17369681.02647 -13464200.54663
  18932254.734   -22718005.507 7 -17630874.73421
  18199089.7894  -28772469.47647 -22103315.95862
 92  9 17 22 16 29.9920000  0  6G28G21G26G17G 3G23
  20651449.2584   -8257991.10746  -6224860.20061
  19579946.305   -18075943.620 6 -13787510.75621
  21077671.078   -13265490.165 6 -10098502.42021
  18398674.0634  -17379436.63647 -13471802.30863
  18940632.7664  -22673968.68946 -17596560.36761
  18194818.7894  -28794919.38247 -22120809.39262
 92  9 17 22 16 59.9920000  0  6G28G21G26G17G 3G23
  20628372.063    -8379248.795 6  -6319346.64021
  19562792.727   -18166098.158 6 -13857761.01622
  21085660.383   -13223507.185 6 -10065788.43521
  18396867.1024  -17388926.77647 -13479197.22064
  18949114.625   -22629401.062 6 -17561832.37221
  18190613.9844  -28817010.35147 -22138023.13962
 92  9 17 22 17 29.9920000  0  6G28G21G26G17G 3G23
  20605348.3134   -8500262.09946  -6413642.65761
  19545679.742   -18256025.804 6 -13927834.46822
  21093713.5554  -13181183.80946 -10032809.22161
  18395097.7344  -17398225.01747 -13486442.60164
  18957683.375   -22584377.699 7 -17526749.25521
  18186462.9064  -28838817.62847 -22155015.81263
 92  9 17 22 17 59.9920000  0  6G28G21G26G17G 3G23
  20582373.6334   -8620998.60446  -6507722.99361
  19528613.633   -18345697.110 6 -13997708.17322
  21101837.2744  -13138492.68346  -9999543.42561
  18393370.8284  -17407301.62847 -13493515.27564
  18966341.5314  -22538870.32847 -17491289.00661
  18182371.8834  -28860313.04247 -22171765.48962
 92  9 17 22 18 29.9920000  0  6G28G21G26G17G 3G23
  20559457.1334   -8741421.23846  -6601558.74661
  19511609.320   -18435077.344 7 -14067355.08522
  21110038.8754  -13095400.98246  -9965965.54361
  18391692.4924  -17416121.72147 -13500388.07664
  18975098.430   -22492845.766 6 -17455425.73521
  18178348.1024  -28881463.27147 -22188246.18763
 92  9 17 22 18 59.9920000  0  6G28G21G26G17G 3G23
  20536597.5864   -8861535.84546  -6695154.50461
  19494653.391   -18524175.191 6 -14136781.94522
  21118311.977   -13051920.125 6  -9932084.40421
  18390061.8524  -17424693.25947 -13507067.19164
  18983953.945   -22446314.395 6 -17419167.55721
  18174387.1494  -28902278.57247 -22204465.89963
 92  9 17 22 19 29.9920000  0  6G28G21G26G17G 3G23
  20513800.164    -8981348.647 6  -6788515.06121
  19477747.086   -18612999.781 6 -14205995.87122
  21126660.242   -13008061.455 6  -9897908.86021
  18388475.3444  -17433024.52647 -13513559.08264
  18992903.734   -22399286.353 7 -17382522.35921
  18170487.8754  -28922769.02647 -22220432.48562
 92  9 17 22 19 59.9920000  0  6G28G21G26G17G 3G23
  20491054.7274   -9100855.61346  -6881637.29461
  19460898.578   -18701549.532 6 -14274995.64022
  21135076.117   -12963826.604 6  -9863440.18621
  18386934.3364  -17441114.81747 -13519863.20064
  19001946.5704  -22351762.21146 -17345490.58361
  18166651.5084  -28942935.03147 -22236146.25262
 92  9 17 22 20 29.9920000  0  6G28G21G26G17G 3G23
  20468374.2034   -9220047.89846  -6974514.32661
  19444100.906   -18789818.237 6 -14343776.41722
  21143565.117   -12919210.756 6  -9828674.62121
  18385445.3204  -17448957.20447 -13525974.14564
  19011087.602   -22303736.828 6 -17308068.25221
  18162876.0554  -28962771.23447 -22251603.03362
 92  9 17 22 20 59.9920000  0  6G28G21G26G17G 3G23
  20445751.2814   -9338932.10246  -7067151.31361
  19427357.156   -18877815.044 7 -14412345.33422
  21152126.094   -12874226.110 6  -9793621.68821
  18383999.1094  -17456560.91547 -13531899.11064
  19020318.891   -22255221.309 6 -17270263.98621
  18159160.1564  -28982288.56647 -22266811.34462
 92  9 17 22 21 29.9920000  0  6G28G21G26G17G 3G23
  20423194.1724   -9457476.52446  -7159523.53261
  19410668.344   -18965510.696 7 -14480679.57322
  21160763.508   -12828846.023 6  -9758260.63321
  18382601.2424  -17463896.01247 -13537614.77064
  19029648.555   -22206187.813 6 -17232056.10321
  18155514.9844  -29001459.21147 -22281749.50862
 92  9 17 22 21 59.9920000  0  6G28G21G26G17G 3G23
  20400698.8754   -9575695.40946  -7251642.06461
  19394036.203   -19052922.742 7 -14548792.81822
  21169468.781   -12783090.272 6  -9722606.84421
  18381253.4614  -17470980.11947 -13543134.85064
  19039078.024   -22156655.823 7 -17193459.77521
  18151926.8284  -29020302.20447 -22296432.35563
 92  9 17 22 22 29.9920000  0  6G28G21G26G17G 3G23
  20378261.320    -9693597.879 6  -7343514.06121
  19377451.2744  -19140062.37846 -14616693.80462
  21178243.6024  -12736972.70446  -9686671.09361
  18379953.9844  -17477824.15847 -13548467.86963
  19048593.4144  -22106637.72447 -17154484.66061
  18148400.4224  -29038830.12847 -22310869.68762
 92  9 17 22 22 59.9920000  0  6G28G21G26G17G 3G23
  20355889.3524   -9811169.03146  -7435127.87961
  19360924.149   -19226918.038 7 -14684373.50222
  21187091.2664  -12690483.88446  -9650446.08161
  18378695.6024  -17484415.73247 -13553604.16863
  19058204.1724  -22056123.38947 -17115122.86961
  18144938.9924  -29057032.43647 -22325053.29562
 92  9 17 22 23 29.9920000  0  6G28G21G26G17G 3G23
  20333581.399    -9928378.407 6  -7526459.79821
  19344455.242   -19313461.111 7 -14751809.61822
  21196012.6094  -12643597.85046  -9613911.58161
  18377496.9304  -17490725.87747 -13558521.16464
  19067919.516   -22005086.310 7 -17075353.73721
  18141540.8594  -29074882.15047 -22338962.16162
 92  9 17 22 23 59.9920000  0  6G28G21G26G17G 3G23
  20311339.9924  -10045275.59546  -7617548.44161
  19328036.016   -19399744.652 6 -14819043.51922
  21205001.297   -12596369.798 6  -9577110.54621
  18376337.5474  -17496807.72847 -13563260.26764
  19077717.602   -21953581.361 6 -17035220.04421
  18138202.9534  -29092434.06647 -22352638.97163
 92  9 17 22 24 29.9920000  0  6G28G21G26G17G 3G23
  20289160.0944  -10161830.48446  -7708370.37661
  19311671.828   -19485740.842 7 -14886053.50722
  21214058.453   -12548774.724 6  -9540023.51721
  18375230.0944  -17502632.78147 -13567799.27263
  19087613.055   -21901581.693 6 -16994700.84021
  18134922.8364  -29109661.59947 -22366063.02163
 92  9 17 22 24 59.9920000  0  6G28G21G26G17G 3G23
  20267045.3204  -10278034.42946  -7798918.85261
  19295363.820   -19571443.901 7 -14952835.09522
  21223187.688   -12500808.971 6  -9502647.63221
  18374172.6174  -17508195.14447 -13572133.59064
  19097604.7974  -21849083.88546 -16953793.46961
  18131706.9774  -29126560.51647 -22379231.00163
 92  9 17 22 25 29.9920000  0  6G28G21G26G17G 3G23
  20244999.5084  -10393885.03646  -7889191.97861
  19279111.609   -19656853.955 7 -15019388.34322
  21232384.2974  -12452475.49346  -9464985.22761
  18373162.6414  -17513494.61647 -13576263.04663
  19107688.672   -21796089.657 6 -16912499.30221
  18128556.5474  -29143132.10947 -22392143.93362
 92  9 17 22 25 59.9920000  0  6G28G21G26G17G 3G23
  20223023.938   -10509378.938 6  -7979187.17221
  19262912.211   -19741970.803 7 -15085713.11722
  21241651.578   -12403776.249 6  -9427037.80421
  18372204.5784  -17518530.82047 -13580187.35963
  19117868.578   -21742600.287 6 -16870819.30621
  18125463.1724  -29159377.46747 -22404802.65063
 92  9 17 22 26 29.9910000  0  6G28G21G26G17G 3G23
  20201111.058   -10624526.615 6  -8068912.58221
  19246768.6444  -19826808.46847 -15151820.36562
  21250982.3784  -12354732.01245  -9388821.56461
  18371296.3624  -17523319.46747 -13583918.76664
  19128136.573   -21688635.974 6 -16828769.21221
  18122427.6834  -29175314.44847 -22417221.06763
 92  9 17 22 26 59.9910000  0  6G28G21G26G17G 3G23
  20179264.1444  -10739338.49346  -8158376.32161
  19230674.753   -19911378.332 6 -15217718.92222
  21260380.0504  -12305347.79146  -9350340.42661
  18370430.8554  -17527866.72847 -13587462.08263
  19138496.941   -21634200.777 6 -16786352.20521
  18119453.7374  -29190951.09847 -22429405.46563
 92  9 17 22 27 29.9910000  0  6G28G21G26G17G 3G23
  20157484.691   -10853791.668 6  -8247560.56721
  19214638.417   -19995661.021 7 -15283393.71222
  21269846.5034  -12255611.37846  -9311584.83961
  18369612.4484  -17532155.55347 -13590804.02063
  19148946.0264  -21579281.55646 -16743558.06061
  18116540.9804  -29206271.85747 -22441343.72363
 92  9 17 22 27 59.9910000  0  6G28G21G26G17G 3G23
  20135774.417   -10967887.307 6  -8336466.20521
  19198651.886   -20079660.094 7 -15348847.49722
  21279374.0814  -12205528.82946  -9272559.51761
  18368844.8474  -17536189.12647 -13593947.05364
  19159489.5734  -21523883.84846 -16700391.03661
  18113683.3704  -29221281.73447 -22453039.73263
 92  9 17 22 28 29.9910000  0  6G28G21G26G17G 3G23
  20114127.4094  -11081646.13546  -8425109.40461
  19182718.5424  -20163399.35647 -15414098.84962
  21288966.566   -12155126.430 6  -9233285.00321
  18368120.6674  -17539990.30347 -13596909.00864
  19170114.644   -21468033.123 6 -16656871.03221
  18110883.2924  -29236005.68547 -22464512.93563
 92  9 17 22 28 59.9910000  0  6G28G21G26G17G 3G23
  20092538.9254  -11195080.80146  -8513500.00361
  19166830.2454  -20246894.25947 -15479159.78562
  21298615.6284  -12104422.07246  -9193775.18761
  18367438.6754  -17543574.69047 -13599702.03764
  19180828.456   -21411746.822 6 -16613011.61221
  18108132.0034  -29250460.78147 -22475776.64863
 92  9 17 22 29 29.9910000  0  6G28G21G26G17G 3G23
  20071019.7144  -11308172.89646  -8601623.65761
  19150989.144   -20330129.103 7 -15544018.06322
  21308324.3624  -12053402.20346  -9154019.51861
  18366800.0194  -17546926.30447 -13602313.68263
  19191624.331   -21355010.907 6 -16568801.84621
  18105434.0664  -29264632.74147 -22486819.73662
 92  9 17 22 29 59.9910000  0  6G28G21G26G17G 3G23
  20049571.784   -11420874.102 6  -8689442.72721
  19135211.003   -20413058.005 7 -15608637.95322
  21318100.144   -12002023.580 5  -9113984.28321
  18366217.5194  -17549999.00847 -13604707.99364
  19202514.1444  -21297780.91246 -16524207.08461
  18102799.5114  -29278476.83547 -22497607.34263
 92  9 17 22 30 29.9910000  0  6G28G21G26G17G 3G23
  20028199.339   -11533185.405 6  -8776957.98821
  19119486.089   -20495685.289 7 -15673022.82922
  21327946.2144  -11950292.88846  -9073674.73861
  18365684.5814  -17552796.24247 -13606887.65264
  19213496.722   -21240063.386 6 -16479232.42921
  18100227.1984  -29291998.60047 -22508143.78163
 92  9 17 22 30 59.9910000  0  6G28G21G26G17G 3G23
  20006901.964   -11645094.846 6  -8864160.11921
  19103821.2614  -20578001.03547 -15737164.94662
  21337860.3554  -11898202.81046  -9033085.10661
  18365205.7844  -17555308.18947 -13608845.01064
  19224575.284   -21181850.316 6 -16433871.64321
  18097717.7454  -29305189.89047 -22518422.71363
 92  9 17 22 31 29.9910000  0  6G28G21G26G17G 3G23
  19985684.3704  -11756599.91646  -8951047.13061
  19088216.917   -20660006.063 7 -15801064.93122
  21347840.3234  -11845756.47346  -8992217.92561
  18364782.0424  -17557534.61947 -13610579.89263
  19235745.886   -21123144.365 6 -16388126.78621
  18095269.6754  -29318052.74347 -22528445.71163
 92  9 17 22 31 59.9910000  0  6G28G21G26G17G 3G23
  19964541.276   -11867714.374 6  -9037629.78821
  19072669.394   -20741716.633 7 -15864735.47422
  21357884.4644  -11792972.48246  -8951087.60161
  18364410.6444  -17559491.67147 -13612104.86964
  19247008.355   -21063963.517 6 -16342011.87721
  18092880.6364  -29330604.47447 -22538226.28263
 92  9 17 22 32 29.9910000  0  6G28G21G26G17G 3G23
  19943464.839   -11978467.822 6  -9123931.13321
  19057169.0814  -20823165.31147 -15928201.95962
  21367984.0894  -11739885.82346  -8909721.43761
  18364084.2064  -17561211.44547 -13613444.94864
  19258355.558   -21004341.940 6 -16295553.54921
  18090542.7064  -29342879.08747 -22547790.91363
 92  9 17 22 32 59.9910000  0  6G28G21G26G17G 3G23
  19922458.089   -12088848.862 6  -9209942.28221
  19041719.612   -20904343.219 7 -15991457.45222
  21378147.2224  -11686490.40245  -8868114.67261
  18363805.5734  -17562684.70847 -13614592.95264
  19269784.370   -20944273.161 6 -16248746.76021
  18088261.1364  -29354869.38747 -22557134.00563
 92  9 17 22 33 29.9910000  0  6G28G21G26G17G 3G23
  19901529.870   -12198845.135 6  -9295653.62221
  19026324.761   -20985240.446 6 -16054494.21622
  21388366.1834  -11632778.67245  -8826261.43361
  18363570.6444  -17563901.17047 -13615540.84664
  19281302.3704  -20883749.12646 -16201585.23361
  18086034.6754  -29366567.03047 -22566249.06063
 92  9 17 22 33 59.9910000  0  6G28G21G26G17G 3G23
  19880686.5974  -12308379.63546  -9381005.13161
  19011000.362   -21065783.060 7 -16117254.67322
  21398660.987   -11578678.895 5  -8784105.82421
  18363404.4254  -17564786.34847 -13616230.59863
  19292918.6594  -20822697.59346 -16154012.66161
  18083881.6444  -29377899.13047 -22575079.26763
 92  9 17 22 34 29.9910000  0  6G28G21G26G17G 3G23
  19859920.753   -12417509.669 6  -9466041.49521
  18995727.9644  -21146031.28547 -16179785.74462
  21409018.339   -11524253.926 5  -8741696.79721
  18363285.9724  -17565400.05847 -13616708.81563
  19304627.0814  -20761180.67246 -16106077.44361
  18081783.6444  -29388927.11847 -22583672.51263
 92  9 17 22 34 59.9910000  0  6G28G21G26G17G 3G23
  19839226.5114  -12526250.68446  -9550774.69761
  18980510.308   -21226003.721 7 -16242101.90322
  21419434.1124  -11469524.59845  -8699050.62361
  18363218.4874  -17565760.35447
  19316416.722   -20699218.752 6 -16057795.47721
  18079735.7694  -29399670.84647 -22592044.25663
 92  9 17 22 35 29.9910000  0  6G28G21G26G17G 3G23
  19818606.925   -12634601.654 6  -9635203.98121
  18965346.230   -21305701.496 7 -16304204.04222
  21429904.8554  -11414494.66845  -8656170.23061
  18363195.7304  -17565868.21147
  19328292.5734  -20636815.11846 -16009169.32061
  18077747.0424  -29410132.48347 -22600196.18663
 92  9 17 22 35 59.9910000  0  6G28G21G26G17G 3G23
  19798064.6984  -12742554.41046  -9719322.96261
  18950231.3394  -21385119.49947 -16366088.17662
  21440435.2224  -11359161.29345  -8613053.39261
  18363226.2144  -17565717.56547
  19340251.706   -20573966.156 6 -15960196.14721
  18075810.4874  -29420308.47047 -22608125.52663
 92  9 17 22 36 29.9910000  0  6G28G21G26G17G 3G23
  19777597.9804  -12850106.54346  -9803129.77161
  18935171.8314  -21464257.92547 -16427754.45962
  21451023.3474  -11303527.04746  -8569702.09861
  18363304.0424  -17565307.97547
  19352296.5504  -20510674.29246 -15910877.87161
  18073927.5734  -29430200.28547 -22615833.44463
 92  9 17 22 36 59.9910000  0  6G28G21G26G17G 3G23
  19757208.706   -12957250.468 6  -9886618.50421
  18920167.347   -21543112.262 7 -16489199.37922
  21461665.284   -11247589.866 5  -8526114.72121
  18363433.4334  -17564635.02147 -13616112.69964
  19364424.730   -20446937.039 6 -15861212.51621
  18072098.4954  -29439804.83347 -22623317.51363
 92  9 17 22 37 29.9910000  0  6G28G21G26G17G 3G23
  19736898.1444  -13063977.21446  -9969782.15761
  18905215.6364  -21621676.46447 -16550418.22262
  21472370.472   -11191345.826 5  -8482288.26521
  18363610.0734  -17563691.74747 -13615377.67663
  19376639.6834  -20382750.38046 -15811197.00261
  18070330.4094  -29449117.21347 -22630573.91863
 92  9 17 22 37 59.9910000  0  6G28G21G26G17G 3G23
  19716677.503   -13170248.919 6 -10052591.23721
  18890327.0034  -21699914.73147 -16611383.08662
  21483137.4414  -11134762.08645  -8438197.11361
  18363851.3554  -17562442.15147 -13614403.96963
  19388945.112   -20318080.265 6 -15760804.74921
  18068616.8704  -29458102.87447 -22637575.73363
 92  9 17 22 38 29.9910000  0  6G28G21G26G17G 3G23
  19696530.4094  -13276116.55346 -10135085.44461
  18875492.339   -21777881.205 7 -16672136.16222
  21493958.3474  -11077895.14346  -8393885.29061
  18364136.3234  -17560939.77547 -13613233.28163
  19401335.0034  -20252982.94746 -15710079.62261
  18066958.6284  -29466817.46147 -22644366.32663
 92  9 17 22 38 59.9910000  0  6G28G21G26G17G 3G23
  19676460.042   -13381589.458 6 -10217272.07821
  18860703.9334  -21855588.32347 -16732687.13862
  21504834.026   -11020759.258 6  -8349363.87221
  18364468.0504  -17559196.67447 -13611875.02963
  19413799.886   -20187473.068 6 -15659033.02821
  18065350.0814  -29475274.65947 -22650956.35963
 92  9 17 22 39 29.9910000  0  6G28G21G26G17G 3G23
  19656466.878   -13486641.159 6 -10299130.51121
  18845971.2144  -21933012.08847 -16793017.32262
  21515759.4014  -10963333.23445  -8304616.38561
  18364849.0194  -17557188.10447 -13610309.91363
  19426349.8784  -20121528.16246 -15607647.44961
  18063791.6914  -29483451.52147 -22657327.94463
 92  9 17 22 39 59.9910000  0  6G28G21G26G17G 3G23
  19636557.034   -13591277.326 6 -10380665.13521
  18831290.855   -22010160.475 7 -16853132.92522
  21526739.9564  -10905627.40445  -8259650.85961
  18365280.5114  -17554921.70047 -13608543.88063
  19438978.808   -20055158.522 6 -15555930.87921
  18062289.6124  -29491357.49547 -22663488.43963
 92  9 17 22 40 29.9910000  0  6G28G21G26G17G 3G23
  19616726.862   -13695480.304 6 -10461862.22421
  18816665.409   -22087018.992 7 -16913022.66122
  21537775.8234  -10847630.12145  -8214458.24061
  18365763.2534  -17552382.11247 -13606564.98863
  19451693.3944  -19988351.54146 -15503873.55761
  18060838.8164  -29498979.36247 -22669427.57063
 92  9 17 22 40 59.9910000  0  6G28G21G26G17G 3G23
  19596986.526   -13799232.463 6 -10542708.01521
  18802098.6754  -22163572.91147 -16972675.05162
  21548869.081   -10789328.333 5  -8169028.33221
  18366303.5504  -17549554.65447 -13604361.77663
  19464490.2844  -19921094.47546 -15451465.50961
  18059444.5264  -29506303.43047 -22675134.63563
 92  9 17 22 41 29.9910000  0  6G28G21G26G17G 3G23
  19577326.691   -13902545.240 6 -10623211.44721
  18787585.339   -22239836.161 7 -17032100.94022
  21560020.870   -10730738.848 5  -8123374.25221
  18366891.3394  -17546452.33047 -13601944.38863
  19477372.230   -19853403.599 6 -15398719.42621
  18058105.2694  -29513345.00447 -22680621.58063
 92  9 17 22 41 59.9910000  0  6G28G21G26G17G 3G23
  19557753.753   -14005392.328 6 -10703351.98921
  18773132.7694  -22315785.44547 -17091282.17162
  21571229.4874  -10671840.53645  -8077479.51761
  18367540.8394  -17543051.37547 -13599294.29763
  19490339.2224  -19785257.48246 -15345618.61261
  18056821.8474  -29520082.12747 -22685871.28563
 92  9 17 22 42 29.9910000  0  6G28G21G26G17G 3G23
  19538264.136   -14107810.492 6 -10783158.31321
  18758731.816   -22391460.308 7 -17150249.57722
  21582487.050   -10612675.339 5  -8031376.84021
  18368234.6834  -17539391.11147 -13596442.14563
  19503385.769   -19716697.637 6 -15292195.40921
  18055593.1284  -29526555.10947 -22690915.17963
 92  9 17 22 42 59.9910000  0  6G28G21G26G17G 3G23
  19518856.8394  -14209795.88446 -10862627.39862
  18744384.3394  -22466859.55247 -17209002.21962
  21593796.4094  -10553244.20345  -7985066.93561
  18368983.7764  -17535469.17547 -13593386.09263
  19516510.769   -19647725.002 6 -15238450.55021
  18054410.5034  -29532764.01347 -22695753.29463
 92  9 17 22 43 29.9910000  0  6G28G21G26G17G 3G23
  19499533.769   -14311341.804 6 -10941754.05321
  18730088.5734  -22541979.20047 -17267536.99562
  21605155.0734  -10493545.81245  -7938548.76261
  18369778.0114  -17531282.09947 -13590123.44463
  19529716.7764  -19578337.92846 -15184382.73961
  18053280.0584  -29538706.92647 -22700384.13663
 92  9 17 22 43 59.9910000  0  6G28G21G26G17G 3G23
  19480293.5664  -14412447.29646 -11020537.51261
  18715848.339   -22616820.714 7 -17325855.03322
  21616566.441   -10433584.117 5  -7891825.43921
  18370625.3864  -17526830.29047 -13586654.50163
  19542996.901   -19508539.852 6 -15129994.69021
  18052200.7764  -29544386.18547 -22704809.53963
 92  9 17 22 44 29.9910000  0  6G28G21G26G17G 3G23
  19461136.847   -14513107.635 6 -11098974.10521
  18701657.5974  -22691382.69247 -17383955.26462
  21628028.034   -10373360.184 5  -7844897.75721
  18371525.0264  -17522111.90247 -13582977.84163
  19556358.323   -19438331.626 6 -15075287.02821
  18051166.5344  -29549801.21847 -22709029.05063
 92  9 17 22 44 59.9910000  0  6G28G21G26G17G 3G23
  19442064.245   -14613333.303 6 -11177071.98321
  18687520.3394  -22765678.29547 -17441847.92262
  21639534.308   -10312888.904 5  -7797777.36221
  18372469.5504  -17517139.49747 -13579103.24163
  19569793.237   -19367728.328 6 -15020271.52721
  18050186.5734  -29554966.79147 -22713054.16863
 92  9 17 22 45 29.9910000  0  6G28G21G26G17G 3G23
  19423079.316   -14713102.769 6 -11254814.39322
  18673436.136   -22839688.698 7 -17499518.34622
  21651092.0584  -10252154.04245  -7750451.57561
  18373469.6054  -17511892.84047 -13575014.93663
  19583307.355   -19296713.048 6 -14964934.99321
  18049252.5034  -29559865.03047 -22716870.98863
 92  9 17 22 45 59.9910000  0  6G28G21G26G17G 3G23
  19404186.987   -14812398.505 6 -11332187.65021
  18659410.620   -22913398.911 7 -17556954.85422
  21662703.722   -10191142.928 5  -7702910.52721
  18374521.5584  -17506357.20647 -13570701.46163
  19596898.987   -19225272.933 6 -14909267.42621
  18048373.6984  -29564481.87347 -22720468.53463
 92  9 17 22 46 29.9910000  0  6G28G21G26G17G 3G23
  19385373.987   -14911246.950 6 -11409212.37521
  18645433.612   -22986837.954 7 -17614180.05822
  21674358.5114  -10129887.06545  -7655178.76161
  18375625.4414  -17500561.20247 -13566185.09763
  19610571.3394  -19153439.45846 -14853293.35061
  18047544.1284  -29568847.84347 -22723870.59263
 92  9 17 22 46 59.9910000  0  6G28G21G26G17G 3G23
  19366649.644   -15009638.046 6 -11485880.72921
  18631512.9334  -23059998.60647 -17671188.34262
  21686065.144   -10068381.951 5  -7607252.73321
  18376778.8004  -17494496.78147 -13561459.58663
  19624316.1594  -19081207.56446 -14797008.81261
  18046760.7534  -29572956.94447 -22727072.49763
 92  9 17 22 47 29.9910000  0  6G28G21G26G17G 3G23
  19348024.378   -15107526.112 6 -11562157.10722
  18617651.1594  -23132837.79247 -17727946.12862
  21697823.1514  -10006586.14545  -7559100.20961
  18377991.9804  -17488120.32447 -13556490.91663
  19638142.5344  -19008536.29546 -14740381.91761
  18046038.6204  -29576767.50647 -22730041.77263
 92  9 17 22 47 59.9910000  0  6G28G21G26G17G 3G23
  19329487.4804  -15204935.09646 -11638060.19661
  18603845.503   -23205382.618 7 -17784474.54422
  21709632.6754   -9944529.43745  -7510744.41461
  18379262.1444  -17481458.43547 -13551299.83663
  19652052.159   -18935454.727 6 -14683435.28421
  18045362.2764  -29580307.46447 -22732800.18063
 92  9 17 22 48 29.9910000  0  6G28G21G26G17G 3G23
  19311042.823   -15301867.283 6 -11713591.72922
  18590098.737   -23277637.602 7 -17840777.09922
  21721489.2064   -9882218.54845  -7462190.54461
  18380582.4484  -17474515.34747 -13545889.65163
  19666033.058   -18861969.747 6 -14626174.32521
  18044739.2064  -29583582.73447 -22735352.34863
 92  9 17 22 48 59.9910000  0  6G28G21G26G17G 3G23
  19292688.495   -15398319.390 6 -11788749.17922
  18576402.7374  -23349602.55547 -17896853.67962
  21733396.191    -9819655.877 5  -7413440.49321
  18381955.0814  -17467290.15347 -13540259.63963
  19680096.948   -18788083.218 6 -14568600.45921
  18044168.8084  -29586594.37847 -22737699.09063
 92  9 17 22 49 29.9910000  0  6G28G21G26G17G 3G23
  19274424.870   -15494299.025 6 -11863538.47422
  18562760.456   -23421287.336 7 -17952711.92722
  21745345.066    -9756853.439 5  -7364503.61421
  18383384.0344  -17459792.08847 -13534416.99163
  19694229.511   -18713807.091 6 -14510723.02021
  18043641.0264  -29589353.20747 -22739848.83263
 92  9 17 22 49 59.9910000  0  6G28G21G26G17G 3G23
  19256252.253   -15589785.138 6 -11937943.19922
  18549177.9874  -23492673.97447 -18008337.85362
  21757345.2844   -9693795.51845  -7315367.63161
  18384865.7694  -17452002.66447 -13528347.31463
  19708441.769   -18639125.648 6 -14452529.74121
  18043169.2304  -29591842.11247 -22741788.24663
 92  9 17 22 50 29.9910000  0  5G28G21G17G 3G23
  19238177.003   -15684778.280 6 -12011963.79622
  18535648.3084  -23563765.30647 -18063733.68262
  18386401.7144  -17443924.05447 -13522052.30463
  19722731.120   -18564043.979 6 -14394024.62121
  18042745.2454  -29594064.94247 -22743520.33063
 92  9 17 22 50 59.9910000  0  5G28G21G17G 3G23
  19220191.034   -15779294.006 6 -12085612.37822
  18522172.5264  -23634580.12647 -18118914.03762
  18387992.8864  -17435574.26247 -13515545.97663
  19737088.2764  -18488582.94846 -14335223.87161
  18042369.4954  -29596041.97247 -22745060.88163
 92  9 17 22 51 29.9910000  0  5G28G21G17G 3G23
  19202295.612   -15873329.869 6 -12158887.04922
  18508749.8314  -23705118.30247 -18173878.83262
  18389634.2454  -17426952.79647 -13508827.95963
  19751520.237   -18412744.709 6 -14276129.20121
  18042040.1514  -29597774.22547 -22746410.68763
 92  9 17 22 51 59.9910000  0  5G28G21G17G 3G23
  19184495.448   -15966874.878 6 -12231779.22722
  18495382.4564  -23775371.25547 -18228621.38062
  18391325.9334  -17418051.00447 -13501891.50463
  19766022.6914  -18336523.06646 -14216735.77261
  18041757.7534  -29599254.65547 -22747564.27163
 92  9 17 22 52 29.9910000  0  5G28G21G17G 3G23
  19166787.636   -16059932.758 6 -12304291.82022
  18482066.6754  -23845345.53247 -18283146.76662
  18393073.2534  -17408874.08247 -13494740.65663
  19780599.183   -18259926.734 6 -14157050.37321
  18041524.7844  -29600490.50147 -22748527.27363
 92  9 17 22 52 59.9910000  0  5G28G21G17G 3G23
  19149173.573   -16152487.273 6 -12376412.19222
  18468805.3314  -23915027.81047 -18337444.62662
  18394875.6594  -17399408.01547 -13487364.51163
  19795250.3314  -18182944.35646 -14097064.16661
  18041337.5584  -29601469.09447 -22749289.81863
 92  9 17 22 53 29.9910000  0  5G28G21G17G 3G23
  19131662.7614  -16244506.14347 -12448115.18262
  18455607.4954  -23984388.26247 -18391491.72062
  18396736.6204  -17389622.97047 -13479739.80363
  19809978.4174  -18105548.32146 -14036755.62361
  18041203.2304  -29602161.88947 -22749829.65963
 92  9 17 22 53 59.9910000  0  5G28G21G17G 3G23
  19114248.151   -16336024.365 7 -12519428.04322
  18442461.2694  -24053464.43847 -18445317.30362
  18398651.2224  -17379555.67547 -13471895.17663
  19824775.878   -18027778.713 6 -13976156.00321
  18041119.1984  -29602607.67047 -22750177.02763
 92  9 17 22 54 29.9900000  0  5G28G21G17G 3G23
  19096930.576   -16427024.533 6 -12590337.24222
  18429373.9984  -24122242.14247 -18498910.29162
  18400622.0454  -17369194.68447 -13463821.68163
  19839646.0924  -17949628.66046 -13915259.91661
  18041085.6474  -29602795.85047
 92  9 17 22 54 59.9900000  0  5G28G21G17G 3G23
  19079709.795   -16517518.667 6 -12660852.11222
  18416341.2404  -24190734.81147 -18552281.19462
  18402647.3114  -17358546.39947 -13455524.32163
  19854592.6154  -17871103.79146 -13854071.76761
  18041095.9824  -29602736.22747
 92  9 17 22 55 29.9900000  0  5G28G21G17G 3G23
  19062586.2564  -16607517.75947 -12730981.24662
  18403358.0454  -24258956.61147 -18605441.02162
  18404727.3344  -17347627.52747 -13447016.10763
  19869602.3734  -17792225.44246 -13792608.18461
  18041151.1934  -29602446.25647
 92  9 17 22 55 59.9900000  0  5G28G21G17G 3G23
  19045555.0294  -16697004.59546 -12800711.21262
  18390430.8034  -24326893.03247 -18658378.47662
  18406858.4594  -17336423.30947 -13438285.56363
  19884683.514   -17712981.331 6 -13730859.59421
  18041251.0764  -29601912.37347 -22749635.26463
 92  9 17 22 56 29.9900000  0  5G28G21G17G 3G23
  19028625.170   -16785976.403 7 -12870039.85922
  18377556.217   -24394544.073 7 -18711093.55622
  18409044.6004  -17324932.54347 -13429331.73263
  19899829.4674  -17633373.59546 -13668827.65861
  18041398.9514  -29601135.87247 -22749030.20463
 92  9 17 22 56 59.9900000  0  5G28G21G17G 3G23
  19011796.248   -16874418.516 7 -12938955.76322
  18364739.2874  -24461897.22947 -18763576.51862
  18411289.5764  -17313142.27947 -13420144.51463
  19915049.5224  -17553392.31146 -13606504.63561
  18041597.1314  -29600105.11947 -22748227.02963
 92  9 17 22 57 29.9900000  0  5G28G21G17G 3G23
  18995059.092   -16962361.720 7 -13007482.91222
  18351972.8894  -24528985.67747 -18815853.22162
  18413583.5224  -17301085.76747 -13410749.84163
  19930336.0224  -17473073.10346 -13543918.31061
  18041832.7014  -29598854.54147 -22747252.56063
 92  9 17 22 57 59.9900000  0  5G28G21G17G 3G23
  18978422.225   -17049793.015 7 -13075611.16022
  18339259.834   -24595799.200 7 -18867915.69022
  18415930.7874  -17288752.12647 -13401139.22163
  19945684.6154  -17392407.82946 -13481062.32061
  18042116.3894  -29597374.85347 -22746099.57363
 92  9 17 22 58 29.9900000  0  5G28G21G17G 3G23
  18961882.639   -17136695.517 6 -13143327.36622
  18326599.2404  -24662323.41347 -18919752.72062
  18418332.3424  -17276125.98447 -13391300.67463
  19961100.717   -17311384.531 6 -13417927.35121
  18042445.0144  -29595652.68047 -22744757.62463
 92  9 17 22 58 59.9900000  0  5G28G21G17G 3G23
  18945451.7564  -17223054.52947 -13210620.08062
  18313998.4364  -24728546.18647 -18971354.87862
  18420792.6624  -17263194.63347 -13381224.30363
  19976588.0924  -17229993.27745 -13354505.66361
  18042818.7324  -29593676.96547 -22743218.11163
 92  9 17 22 59 29.9900000  0  5G28G21G17G 3G23
  18929114.9434  -17308898.13447 -13277511.16462
  18301448.928   -24794498.102 7 -19022745.96922
  18423306.2324  -17249987.96447 -13370933.40763
  19992142.412   -17148267.056 6 -13290822.96921
  18043236.5064  -29591479.03447 -22741505.44463
 92  9 17 22 59 59.9900000  0  5G28G21G17G 3G23
  18912875.162   -17394244.201 7 -13344014.56222
  18288947.6394  -24860199.49347 -19073941.83762
  18425870.1864  -17236526.09247 -13360443.64663
  20007752.7254  -17066228.28345 -13226896.71161
  18043692.7174  -29589080.51747 -22739636.47863
 92  9 17 23  0 29.9900000  0  5G28G21G17G 3G23
  18896735.100   -17479065.286 7 -13410108.88422
  18276494.8424  -24925625.80547 -19124923.37062
  18428485.8894  -17222784.02047 -13349735.54663
  20023431.2644  -16983855.00946 -13162709.83061
  18044192.6544  -29586457.81647 -22737592.82263
 92  9 17 23  0 59.9900000  0  5G28G21G17G 3G23
  18880695.107   -17563350.983 7 -13475786.02022
  18264098.9674  -24990768.30947 -19175683.75662
  18431154.3344  -17208752.25447 -13338801.70863
  20039167.850   -16901140.948 5 -13098257.36721
  18044737.5224  -29583603.12447 -22735368.39763
 92  9 17 23  1 29.9900000  0  5G28G21G17G 3G23
  18864761.8574  -17647076.34547 -13541026.54162
  18251759.3574  -25055604.83147 -19226205.70063
  18433883.1474  -17194407.52647 -13327624.00763
  20054977.7254  -16818066.05545 -13033523.76661
  18045327.8034  -29580495.35147 -22732946.75963
 92  9 17 23  1 59.9900000  0  5G28G21G17G 3G23
  18848924.053   -17730313.459 7 -13605886.59922
  18239465.2014  -25120209.73847 -19276547.17663
  18436660.9044  -17179824.30247 -13316260.46663
  20070839.8574  -16734706.94345 -12968568.68961
  18045950.9514  -29577209.77947 -22730386.57263
 92  9 17 23  2 29.9900000  0  5G28G21G17G 3G23
  18833176.443   -17813058.753 7 -13670363.42822
  18227216.4904  -25184582.08747 -19326707.43462
  18439479.3264  -17165000.74247 -13304709.64063
  20086754.8504  -16651065.19645 -12903393.37761
  18046611.2794  -29573746.33447 -22727687.79363
 92  9 17 23  2 59.9900000  0  5G28G21G17G 3G23
  18817533.717   -17895268.123 7 -13734422.64122
  18215019.8034  -25248680.64947 -19376654.35362
  18442354.9904  -17149894.81747 -13292938.79963
  20102734.5294  -16567101.67445 -12837967.34261
  18047310.6624  -29570064.57447 -22724818.89763
 92  9 17 23  3 29.9900000  0  5G28G21G17G 3G23
  18801993.8814  -17976937.26747 -13798060.90262
  18202873.6004  -25312502.73447 -19426385.83363
  18445283.8894  -17134503.60647 -13280945.65763
  20118776.9284  -16482816.22445 -12772290.43561
  18048055.1784  -29566163.06347 -22721778.76863
 92  9 17 23  3 59.9900000  0  5G28G21G17G 3G23
  18786554.514   -18058056.446 7 -13861270.63022
  18190783.2324  -25376041.20547 -19475896.31563
  18448267.5614  -17118819.28347 -13268724.11463
  20134874.264   -16398204.043 5 -12706358.94621
  18048839.9594  -29562035.50747 -22718562.49363
 92  9 17 23  4 29.9900000  0  5G28G21G17G 3G23
  18771216.8894  -18138650.87447 -13924071.45662
  18178740.4984  -25439323.62647 -19525207.28062
  18451303.0224  -17102869.12547 -13256295.42763
  20151035.3504  -16313295.22646 -12640196.31361
  18049662.7724  -29557710.36947 -22715192.27163
 92  9 17 23  4 59.9900000  0  5G28G21G17G 3G23
  18755980.998   -18218721.789 7 -13986464.35222
  18166746.3184  -25502353.85847 -19574321.73262
  18454389.7174  -17086656.10447 -13243661.91063
  20167242.7794  -16228095.72145 -12573807.16661
  18050521.8264  -29553192.81347 -22711672.09863
 92  9 17 23  5 29.9900000  0  5G28G21G17G 3G23
  18740843.107   -18298268.729 7 -14048448.95522
  18154800.3344  -25565133.65447 -19623241.03963
  18457522.4824  -17070181.34447 -13230824.44963
  20183515.092   -16142609.985 6 -12507194.96521
  18051419.6314  -29548485.20247 -22708003.83663
 92  9 17 23  5 59.9900000  0  5G28G21G17G 3G23
  18725809.068   -18377287.134 7 -14110021.71422
  18142900.0294  -25627660.64247 -19671963.35362
  18460708.0614  -17053442.30947 -13217781.05463
  20199835.0064  -16056837.80445 -12440359.58061
  18052351.7564  -29543586.19947 -22704186.43863
 92  9 17 23  6 29.9900000  0  5G28G21G17G 3G23
  18710877.162   -18455747.580 7 -14171159.70422
  18131057.0454  -25689907.77847 -19720467.59662
  18463948.9124  -17036411.22447 -13204510.08963
  20216215.1004  -15970754.56945 -12373281.80161
  18053323.6004  -29538469.57147 -22700199.45363
 92  9 17 23  6 59.9900000  0  5G28G21G17G 3G23
  18696054.5764  -18533648.66747 -14231861.82862
  18119263.3654  -25751876.40447 -19768754.82462
  18467246.1314  -17019088.52047 -13191011.88763
  20232657.467   -15884363.885 5 -12305964.46821
  18054338.0534  -29533137.21647 -22696044.36763
 92  9 17 23  7 29.9900000  0  5G28G21G17G 3G23
  18681337.5454  -18610983.41947 -14292122.65862
  18107526.8894  -25813561.01547 -19816820.74362
  18470599.0844  -17001468.69947 -13177282.16063
  20249156.967   -15797663.280 5 -12238405.62621
  18055397.2644  -29527585.43547 -22691718.31063
 92  9 17 23  7 59.9900000  0  5G28G21G17G 3G23
  18666725.1544  -18687769.87347 -14351956.23162
  18095838.1784  -25874982.04647 -19864681.27262
  18474003.6864  -16983571.19947 -13163336.06363
  20265709.5684  -15710674.97545 -12170622.62061
  18056491.2874  -29521834.80047 -22687237.30263
 92  9 17 23  8 29.9900000  0  5G28G21G17G 3G23
  18652222.662   -18763991.714 7 -14411349.85022
  18084202.2014  -25936125.73747 -19912325.69162
  18477464.9984  -16965381.55647 -13149162.32263
  20282317.279   -15623387.863 5 -12102606.76221
  18057623.9824  -29515872.68347 -22682591.49763
 92  9 17 23  8 59.9900000  0  5G28G21G17G 3G23
  18637819.2404  -18839663.42047 -14470314.79162
  18072617.5844  -25997008.86747 -19959767.08263
  18480979.7014  -16946916.32947 -13134773.83863
  20298981.5224  -15535820.94545 -12034372.86061
  18058796.6474  -29509716.85347 -22677794.75063
 92  9 17 23  9 29.9900000  0  5G28G21G17G 3G23
  18623526.8814  -18914773.23747 -14528841.89862
  18061080.7174  -26057621.95147 -20006998.04763
  18484547.647   -16928165.393 7 -13120162.73423
  20315699.9904  -15447967.13345 -11965915.40761
  18060006.9364  -29503358.46847 -22672840.17063
 92  9 17 23  9 59.9900000  0  5G28G21G17G 3G23
  18609336.826   -18989347.598 7 -14586951.76622
  18049592.1934  -26117993.22847 -20054040.59163
  18488164.8654  -16909156.73247 -13105350.78963
  20332466.428   -15359857.339 5 -11897258.52821
  18061249.5844  -29496826.64947 -22667750.44363
 92  9 17 23 10 29.9900000  0  5G28G21G17G 3G23
  18595260.0614  -19063322.76747 -14644594.72562
  18038162.1474  -26178061.10047 -20100846.71163
  18491841.5764  -16889827.91947 -13090289.38263
  20349292.6474  -15271432.26045 -11828355.93761
  18062536.3654  -29490060.58747 -22662478.19363
 92  9 17 23 10 59.9900000  0  5G28G21G17G 3G23
  18581295.2174  -19136707.59447 -14701777.68262
  18026790.2874  -26237836.78147 -20147425.16163
  18495580.7564  -16870189.70947 -13074986.88362
  20366177.170   -15182705.482 5 -11759218.25221
  18063864.3034  -29483072.47047 -22657032.90663
 92  9 17 23 11 29.9900000  0  5G28G21G17G 3G23
  18567436.389   -19209534.115 7 -14758525.59822
  18015465.0144  -26297354.26847 -20193802.41263
  18499371.2644  -16850275.78047 -13059469.54163
  20383112.3504  -15093713.76145 -11689874.13361
  18065231.0294  -29475897.20947 -22651441.79863
 92  9 17 23 11 59.9900000  0  5G28G21G17G 3G23
  18553682.850   -19281811.834 7 -14814845.87922
  18004183.0764  -26356625.42047 -20239987.71163
  18503209.7484  -16830097.15147 -13043745.94562
  20400097.0144  -15004471.06645 -11620334.45561
  18066630.7254  -29468547.45847 -22645714.71663
 92  9 17 23 12 29.9900000  0  5G28G21G17G 3G23
  18540035.1704  -19353524.77047 -14870726.05362
  17992955.0614  -26415636.12247 -20285970.06763
  18507103.8034  -16809639.28147 -13027804.75063
  20417129.607   -14914965.735 5 -11550590.11821
  18068062.9364  -29461009.85447 -22639841.26363
 92  9 17 23 12 59.9900000  0  5G28G21G17G 3G23
  18526494.756   -19424677.348 7 -14926169.58322
  17981775.9044  -26474393.05847 -20331754.67363
  18511046.4904  -16788908.32147 -13011650.76163
  20434210.7724  -14825206.84245 -11480648.21261
  18069533.9674  -29453292.06847 -22633827.40663
 92  9 17 23 13 29.9900000  0  5G28G21G17G 3G23
  18513062.256   -19495259.006 7 -14981168.24822
  17970642.0684  -26532887.54447 -20377334.78063
  18515046.0224  -16767894.70547 -12995276.51963
  20451341.7094  -14735188.25045 -11410503.94261
  18071035.9514  -29445385.85247 -22627666.71163
 92  9 17 23 13 59.9900000  0  5G28G21G17G 3G23
  18499748.5764  -19565253.70647 -15035709.54962
  17959563.5534  -26591105.71847 -20422699.57863
  18519102.1864  -16746584.49147 -12978671.15462
  20468521.350   -14644898.615 5 -11340148.43821
  18072580.9824  -29437278.43047 -22621349.24863
 92  9 17 23 14 29.9900000  0  5G28G21G17G 3G23
  18486530.5374  -19634692.58047 -15089817.73862
  17948532.350   -26649080.572 7 -20467874.77423
  18523208.4984  -16725009.83747 -12961859.74962
  20485748.162   -14554373.087 5 -11269609.16221
  18074154.2564  -29429003.32847 -22614901.11863
 92  9 17 23 14 59.9900000  0  5G28G21G17G 3G23
  18473427.287   -19703552.092 7 -15143474.47022
  17937551.381   -26706790.771 7 -20512843.74623
  18527366.3654  -16703149.15147 -12944825.45063
  20503020.7794  -14463592.90845 -11198871.42461
  18075765.7794  -29420540.11147 -22608306.41563
 92  9 17 23 15 29.9900000  0  5G28G21G17G 3G23
  18460435.647   -19771820.194 7 -15196670.36922
  17926619.7484  -26764226.25047 -20557598.64763
  18531582.7014  -16680992.07147 -12927560.20062
  20520343.9674  -14372550.71345 -11127929.52861
  18077413.6624  -29411879.74447 -22601558.08063
 92  9 17 23 15 59.9900000  0  5G28G21G17G 3G23
  18447557.5764  -19839486.69147 -15249397.48462
  17915745.6544  -26821378.91647 -20602133.18163
  18535859.7324  -16658529.41847 -12910056.84362
  20537722.7324  -14281240.83645 -11056779.04161
  18079101.8574  -29403014.76647 -22594650.31063
 92  9 17 23 16 29.9900000  0  5G28G21G17G 3G23
  18434792.412   -19906581.865 7 -15301679.41422
  17904916.1234  -26878280.71747 -20646472.23663
  18540184.6474  -16635792.64847 -12892339.88962
  20555139.4514  -14189697.51945 -10985446.68161
  18080820.2174  -29393977.91347 -22587608.60663
 92  9 17 23 16 59.9900000  0  6G28G21G11G17G 3G23
  18422138.584   -19973070.338 7 -15353488.59322
  17894143.7094  -26934897.95247 -20690589.54763
  21567807.6234         -0.80555
  18544569.9434  -16612748.11747 -12874383.12062
  20572613.748   -14097889.716 5 -10913908.20821
  18082579.8184  -29384736.26747 -22580407.32763
 92  9 17 23 17 29.9900000  0  6G28G21G11G17G 3G23
  18409601.475   -20038960.857 7 -15404831.83222
  17883422.1004  -26991241.70447 -20734493.75963
  21541128.6234    -140207.87445
  18549012.4204  -16589406.04247 -12856194.49262
  20590129.7484  -14005830.83145 -10842174.09261
  18084374.3264  -29375301.40247 -22573055.49063
 92  9 17 23 17 59.9900000  0  6G28G21G11G17G 3G23
  18397170.920   -20104287.341 7 -15455735.55322
  17872743.4124  -27047347.60447 -20778212.62863
  21514457.826     -280354.091 5        -0.28031
  18553502.0534  -16565802.02847 -12837801.76762
  20607687.5294  -13913559.21945 -10770274.20261
  18086199.8734  -29365710.30047 -22565581.89963
 92  9 17 23 18 29.9900000  0  6G28G21G11G17G 3G23
  18384847.0454  -20169036.21347 -15506189.19662
  17862116.8504  -27103203.58747 -20821736.75463
  21487804.5454    -420423.62245   -109145.26161
  18558047.4514  -16541922.85447 -12819194.60962
  20625291.295   -13821064.943 5 -10698200.82021
  18088057.2644  -29355951.15047 -22557977.38063
 92  9 17 23 18 59.9900000  0  6G28G21G11G17G 3G23
  18372636.248   -20233214.478 7 -15556198.21222
  17851530.5534  -27158819.00347 -20865073.43363
  21461165.865     -560422.599 5   -218235.29021
  18562640.7724  -16517777.73647 -12800380.25562
  20642936.186   -13728359.906 5 -10625963.21121
  18089943.7254  -29346033.95847 -22550249.69963
 92  9 17 23 19 29.9900000  0  6G28G21G11G17G 3G23
  18360530.865   -20296829.633 7 -15605768.43922
  17840993.5064  -27214203.12247 -20908229.88263
  21434536.998     -700357.020 5   -327274.99121
  18567286.0144  -16493375.65047 -12781365.64962
  20660612.647   -13635455.860 5 -10553570.51421
  18091858.2484  -29335968.82647 -22542406.73963
 92  9 17 23 19 59.9900000  0  6G28G21G11G17G 3G23
  18348537.4044  -20359842.43547 -15654869.29362
  17830504.4514  -27269318.02247 -20951176.54063
  21407925.475     -840185.691 5   -436232.31021
  18571984.6544  -16468677.97947 -12762120.71962
  20678334.600   -13542317.593 5 -10480995.32421
  18093810.2724  -29325718.64347 -22534419.59163
 92  9 17 23 20 29.9900000  0  6G28G21G11G17G 3G23
  18336659.451   -20422260.072 7 -15703506.39322
  17820066.6394  -27324172.72947 -20993920.45363
  21381333.4984    -979914.49245   -545111.78761
  18576740.5614  -16443693.45047 -12742652.27162
  20696103.6864  -13448956.31845 -10408246.38561
  18095792.9364  -29315293.09547 -22526295.79363
 92  9 17 23 20 59.9900000  0  6G28G21G11G17G 3G23
  18324896.787   -20484085.318 7 -15751681.88722
  17809675.936   -27378772.288 7 -21036465.55323
  21354765.8734   -1119544.66245   -653914.41961
  18581547.4284  -16418426.48047 -12722963.72962
  20713910.4204  -13355379.68245 -10335329.61361
  18097810.7954  -29304698.05547 -22518039.92563
 92  9 17 23 21 29.9900000  0  6G28G21G11G17G 3G23
  18313240.397   -20545331.568 7 -15799406.21622
  17799334.1004  -27433131.43747 -21078823.32663
  21328212.201    -1259087.783 5   -762649.19721
  18586407.2324  -16392891.55347 -12703066.39462
  20731750.2014  -13261604.95244 -10262258.46261
  18099855.3894  -29293948.82047 -22509663.90463
 92  9 17 23 21 59.9890000  0  6G28G21G11G17G 3G23
  18301689.5094  -20606049.45747 -15846718.84862
  17789021.8064  -27487303.14147 -21121035.03863
  21301664.407    -1398590.585 5   -871352.58221
  18591308.048   -16367143.516 7 -12683003.00622
  20749625.4464  -13167692.33544 -10189079.88561
  18101919.5564  -29283100.93247 -22501211.01263
 92  9 17 23 22 29.9890000  0  6G28G21G11G17G 3G23
  18290242.4854  -20666200.41347 -15893589.70362
  17778754.6184  -27541249.42047 -21163071.08163
  21275131.8844   -1538017.42945   -979996.79561
  18596255.2434  -16341138.60047 -12662739.45262
  20767527.5954  -13073596.74644 -10115758.74061
  18104010.1654  -29272113.15047 -22492649.10863
 92  9 17 23 22 59.9890000  0  6G28G21G11G17G 3G23
  18278911.743   -20725730.785 7 -15939976.99122
  17768545.2824  -27594918.67747 -21204891.26963
  21248626.040    -1677310.549 5  -1088536.78921
  18601262.9854  -16314827.95147 -12642237.65362
  20785474.9154  -12979273.90545 -10042260.53261
  18106136.2354  -29260936.87847 -22483940.33663
 92  9 17 23 23 29.9890000  0  6G28G21G11G17G 3G23
  18267706.6034  -20784625.56947 -15985869.01262
  17758385.2124  -27648297.65947 -21246485.27063
  21222147.337    -1816453.151 5  -1196959.48221
  18606330.2204  -16288197.60347 -12621486.74762
  20803474.595   -12884713.069 5  -9968576.84421
  18108302.4784  -29249559.03247 -22475074.48463
 92  9 17 23 23 59.9890000  0  6G28G21G11G17G 3G23
  18256613.540   -20842910.518 7 -16031285.82822
  17748280.7674  -27701413.83747 -21287874.49363
  21195692.220    -1955469.303 4  -1305283.65421
  18611455.1574  -16261274.53247 -12600507.73662
  20821506.712   -12789944.193 5  -9894731.06421
  18110499.4394  -29238008.09047 -22466073.75863
 92  9 17 23 24 29.9890000  0  6G28G21G11G17G 3G23
  18245641.7824  -20900575.87347 -16076219.86062
  17738223.6034  -27754258.95347 -21329052.49863
  21169263.829    -2094347.476 5  -1413500.29621
  18616635.0324  -16234049.71147 -12579293.60562
  20839579.4074  -12694961.62145  -9820718.76361
  18112732.7904  -29226276.16847 -22456932.00363
 92  9 17 23 24 59.9890000  0  6G28G21G11G17G 3G23
  18234776.5484  -20957664.07347 -16120704.15662
  17728209.5954  -27806876.59947 -21370053.25563
  21142857.251    -2233127.562 5  -1521640.55421
  18621863.6104  -16206566.99147 -12557878.51562
  20857687.8064  -12599811.18245  -9746575.63461
  18114991.8764  -29214407.58147 -22447683.75963
 92  9 17 23 25 29.9890000  0  6G28G21G11G17G 3G23
  18224020.6654  -21014185.75547 -16164747.00562
  17718239.2674  -27859279.27047 -21410886.49763
  21116465.985    -2371818.735 5  -1629711.50121
  18627140.9704  -16178838.19647 -12536271.66662
  20875822.985   -12504508.085 5  -9672313.58221
  18117272.8144  -29202415.48947 -22438339.28663
 92  9 17 23 25 59.9890000  0  6G28G21G11G17G 3G23
  18213386.3994  -21070083.66047 -16208303.79062
  17708318.0644  -27911410.89347 -21451508.53463
  21090102.142    -2510361.465 5  -1737666.77121
  18632476.8144  -16150806.89547 -12514429.11162
  20893996.790   -12408998.756 5  -9597890.81121
  18119589.0954  -29190244.71547 -22428855.57163
 92  9 17 23 26 29.9890000  0  6G28G21G11G17G 3G23
  18202856.9154  -21125415.40847 -16251419.42962
  17698434.6034  -27963330.72047 -21491965.53263
  21063755.9934   -2648811.60545  -1845549.90961
  18637854.8534  -16122531.92347 -12492396.67962
  20912203.415   -12313345.063 5  -9523355.53921
  18121929.0324  -29177954.72347 -22419278.95563
 92  9 17 23 26 59.9890000  0  6G28G21G11G17G 3G23
  18192437.3764  -21180172.43547 -16294087.22962
  17688598.2984  -28015031.69647 -21532252.00163
  21037430.0324   -2787158.57645  -1953352.65461
  18643283.9074  -16094005.66347 -12470168.43662
  20930429.681   -12217542.586 5  -9448704.38021
  18124290.6184  -29165539.43247 -22409604.71463
 92  9 17 23 27 29.9890000  0  6G28G21G11G17G 3G23
  18182139.0484  -21234280.92547 -16336249.67262
  17678816.4394  -28066441.45747 -21572311.55363
  21011135.181    -2925326.515 5  -2061015.89921
  18648772.6104  -16065155.81547 -12447688.04162
  20948703.5874  -12121521.07145  -9373882.48361
  18126689.6034  -29152926.93747 -22399776.79663
 92  9 17 23 27 59.9890000  0  6G28G21G11G17G 3G23
  18171965.2594  -21287738.56147 -16377904.96362
  17669090.0094  -28117559.11847 -21612143.49363
  20984879.759    -3063310.775 5  -2168536.00921
  18654326.4854  -16035980.45247 -12424954.01162
  20967019.1734  -12025282.04945  -9298891.15161
  18129126.5174  -29140116.83847 -22389794.90763
 92  9 17 23 28 29.9890000  0  6G28G21G11G17G 3G23
  18161915.3064  -21340552.08547 -16419058.34862
  17659416.6574  -28168392.63547 -21651754.01363
  20958655.821    -3201116.245 5  -2275916.79121
  18659938.1964  -16006487.64747 -12401972.61362
  20985365.571   -11928836.089 4  -9223738.53221
  18131602.3454  -29127117.60947 -22379665.64463
 92  9 17 23 28 59.9890000  0  6G28G21G11G17G 3G23
  18151980.5874  -21392762.18747 -16459741.53862
  17649791.1104  -28218984.31847 -21691176.08963
  20932459.298    -3338781.520 5  -2383188.35621
  18665603.1814  -15976719.41747 -12378776.59362
  21003755.103   -11832228.246 4  -9148459.78921
  18134105.4544  -29113972.56547 -22369422.76363
 92  9 17 23 29 29.9890000  0  6G28G21G11G17G 3G23
  18142159.5094  -21444363.11847 -16499950.04362
  17640208.8924  -28269329.52647 -21730406.12063
  20906290.5714   -3476298.48045  -2490344.32261
  18671320.8764  -15946670.67247 -12355361.99862
  21022170.040   -11735456.490 4  -9073053.35021
  18136634.1734  -29100677.50047 -22359062.97963
 92  9 17 23 29 59.9890000  0  6G28G21G11G17G 3G23
  18132460.8764  -21495348.71947 -16539679.06762
  17630674.6734  -28319423.23847 -21769440.17763
  20880149.0324   -3613658.62645  -2597378.11861
  18677094.6104  -15916336.29347 -12331724.83362
  21040617.189   -11638518.286 4  -8997517.17321
  18139192.7984  -29087227.85047 -22348582.73863
 92  9 17 23 30 29.9890000  0  6G28G21G11G17G 3G23
  18122870.1344  -21545731.83747 -16578938.62862
  17621188.4154  -28369279.43947 -21808289.15463
  20854039.5324   -3750872.35545  -2704297.81761
  18682918.1344  -15885729.51947 -12307875.40662
  21059090.1344  -11541430.06043  -8921864.14261
  18141778.5094  -29073638.66647 -22337993.76962
 92  9 17 23 30 59.9890000  0  6G28G21G11G17G 3G23
  18113395.782   -21595511.394 7
  17611748.2904  -28418898.92547
  20827955.017    -3887936.804 5  -2811101.16421
  18688793.1494  -15854851.01047 -12283814.25662
  21077591.7204  -11444195.08243  -8846096.71461
  18144391.7904  -29059910.78247 -22327296.72562
 92  9 17 23 31 29.9890000  0  6G28G21G11G17G 3G23
  18104040.4934  -21644688.36747 -16656047.59062
  17602348.7044  -28468283.14847 -21885434.89363
  20801904.5954   -4024850.18645  -2917786.85361
  18694720.4464  -15823702.11847 -12259542.39362
  21096126.3764  -11346817.16843  -8770217.93061
  18147028.1574  -29046046.21647 -22316493.17263
 92  9 17 23 31 59.9890000  0  5G28G21G11G17G23
  18094797.142   -21693265.291 7 -16693899.72522
  17592993.1264  -28517436.15747 -21923735.93263
  20775876.407    -4161612.849 5  -3024355.08021
  18700698.9624  -15792286.16747 -12235062.45262
  18149693.0714  -29032049.81847 -22305586.88963
 92  9 17 23 32 29.9890000  0  5G28G21G11G17G23
  18085670.6964  -21741226.88647 -16731272.39062
  17583686.5794  -28566344.01047 -21961845.93863
  20749885.603    -4298207.005 5  -3130791.98321
  18706730.6424  -15760588.66847 -12210363.10962
  18152384.3844  -29017908.06947 -22294567.34763
 92  9 17 23 32 59.9890000  0  5G28G21G11G17G23
  18076655.2434  -21788585.34647 -16768175.08162
  17574427.9394  -28615019.43947 -21999774.83163
  20723918.423    -4434642.248 5  -3237105.10321
  18712814.2744  -15728622.68446 -12185454.56462
  18155099.7204  -29003634.05447 -22283444.75063
 92  9 17 23 33 29.9890000  0  5G28G21G11G17G23
  18067763.3604  -21835326.72647 -16804596.92362
  17565210.1574  -28663450.20547 -22037513.08563
  20697989.6424   -4570902.29245  -3343281.67161
  18718949.9074  -15696375.41446 -12160326.82862
  18157844.6734  -28989215.81747 -22272209.75862
 92  9 17 23 33 59.9890000  0  5G28G21G11G17G23
  18058989.7514  -21881449.93847 -16840537.08262
  17556038.1344  -28711636.30747 -22075060.68563
  20672096.720    -4706983.648 5  -3449319.01521
  18725141.2824  -15663845.96046 -12134979.21562
  18160614.4314  -28974654.55947 -22260863.33563
 92  9 17 23 34 29.9890000  0  5G28G21G11G17G23
  18050322.9934  -21926967.07347 -16876004.97062
  17546915.2284  -28759590.57547 -22112427.64163
  20646233.8374   -4842895.54745  -3555224.31761
  18731382.1104  -15631047.49047 -12109421.98162
  18163409.6034  -28959963.39947 -22249415.68063
 92  9 17 23 34 59.9890000  0  5G28G21G11G17G23
  18041782.4464  -21971859.70047 -16910986.22062
  17537836.7204  -28807295.66447 -22149600.42663
  20620408.0484   -4978617.18345  -3660981.34661
  18737676.5564  -15597962.37746 -12083641.39262
  18166233.5954  -28945125.43247 -22237853.62862
 92  9 17 23 35 29.9890000  0  5G28G21G11G17G23
  18033351.6494  -22016148.47447 -16945496.93863
  17528803.9464  -28854773.03947 -22186595.77263
  20594613.7204   -5114166.14345  -3766603.83261
  18744023.8214  -15564611.77747 -12057653.90762
  18169080.8374  -28930162.39147 -22226194.12062
 92  9 17 23 35 59.9890000  0  5G28G21G11G17G23
  18025041.8764  -22059831.67147 -16979535.78662
  17519809.7124  -28902022.43747 -22223413.48363
  20568852.7594   -5249538.75245  -3872088.91361
  18750419.282   -15530995.649 6 -12031459.54222
  18171953.4784  -28915074.52247 -22214437.34062
 92  9 17 23 36 29.9890000  0  5G28G21G11G17G23
  18016851.2514  -22102867.12647 -17013069.90162
  17510872.2124  -28949002.42947 -22260021.26463
  20543131.454    -5384689.954 5  -3977401.44321
  18756875.1264  -15497072.05546 -12005025.59362
  18174854.7824  -28899821.31747 -22202551.73362
 92  9 17 23 36 59.9890000  0  5G28G21G11G17G23
  18008782.0874  -22145280.96547 -17046119.63462
  17501975.9934  -28995739.70447 -22296439.91063
  20517449.9154   -5519642.80145  -4082559.42161
  18763384.8144  -15462867.06446 -11978372.36162
  18177784.6034  -28884429.82647 -22190558.36462
 92  9 17 23 37 29.9890000  0  5G28G21G11G17G23
  18000828.8454  -22187078.46847 -17078689.10762
  17493127.1344  -29042240.84347 -22332674.55563
  20491808.196    -5654400.229 5  -4187565.12321
  18769947.0484  -15428386.77246 -11951504.61462
  18180738.9704  -28868907.01247 -22178462.66063
 92  9 17 23 37 59.9890000  0  5G28G21G11G17G23
  17992987.5094  -22228267.25547 -17110784.25862
  17484323.0564  -29088513.96547 -22368731.53263
  20466201.6574   -5788966.66345  -4292422.00761
  18776559.1344  -15393639.82446 -11924429.09862
  18183715.7594  -28853261.51647 -22166271.37262
 92  9 17 23 38 29.9890000  0  5G28G21G11G17G23
  17985266.8844  -22268859.12247 -17142414.27762
  17475556.8924  -29134571.88747 -22404620.80863
  20440629.6734   -5923351.32945  -4397137.25161
  18783220.634   -15358638.447 6 -11897155.31122
  18186714.1184  -28837506.52147 -22153994.75162
 92  9 17 23 38 59.9890000  0  5G28G21G11G17G23
  17977656.4544  -22308836.74047 -17173565.65662
  17466837.8534  -29180397.91047 -22440329.38363
  20415098.017    -6057533.786 5  -4501694.92021
  18789932.3994  -15323365.77946 -11869670.12862
  18189733.9704  -28821625.85047 -22141620.20062
 92  9 17 23 39 29.9890000  0  5G28G21G11G17G23
  17970168.5484  -22348185.14147 -17204226.74762
  17458164.3374  -29225977.80347 -22475846.17963
  20389604.493    -6191496.564 5  -4606081.41521
  18796698.6654  -15287807.87146 -11841962.67862
  18192783.8214  -28805605.96647 -22129137.17562
 92  9 17 23 39 59.9890000  0  5G28G21G11G17G23
  17962800.4464  -22386912.47347 -17234403.87962
  17449535.2514  -29271320.71647 -22511178.31163
  20364152.5874   -6325244.57246  -4710300.57161
  18803516.8214  -15251973.42946 -11814039.75462
  18195857.1654  -28789456.21147 -22116552.95462
 92  9 17 23 40 29.9890000  0  5G28G21G11G17G23
  17955547.9854  -22425020.81047 -17264098.68062
  17440952.0324  -29316429.11647 -22546327.70463
  20338742.181    -6458776.522 6  -4814351.36421
  18810390.9704  -15215864.31346 -11785902.79762
  18198954.6814  -28773179.15647 -22103869.52662
 92  9 17 23 40 59.9890000  0  5G28G21G11G17G23
  17948415.6964  -22462499.29247 -17293302.68262
  17432415.9314  -29361292.90147 -22581286.48163
  20313374.0794   -6592079.08946  -4918223.40461
  18817314.8374  -15179470.03146 -11757543.62562
  18202079.0324  -28756765.35047 -22091079.55062
 92  9 17 23 41 29.9890000  0  5G28G21G11G17G23
  17941403.8604  -22499342.09547 -17322011.35363
  17423927.3374  -29405906.78047 -22616050.53563
  20288052.1184   -6725143.08846  -5021909.57661
  18824294.353   -15142785.864 6 -11728958.58422
  18205228.0484  -28740210.08747 -22078179.35262
 92  9 17 23 41 59.9890000  0  5G28G21G11G17G23
  17934513.0644  -22535563.09147 -17350235.50262
  17415478.8534  -29450285.37247 -22650631.25063
  20262775.3534   -6857979.49846  -5125418.37861
  18831327.7514  -15105825.91346 -11700158.63562
  18208402.1574  -28723528.39947 -22065180.63262
 92  9 17 23 42 29.9890000  0  5G28G21G11G17G23
  17927740.5014  -22571151.85447 -17377966.98962
  17407080.6814  -29494418.93047 -22685021.02263
  20237541.3144   -6990574.76446  -5228739.30161
  18838415.1654  -15068580.04346 -11671135.90562
  18211601.4394  -28706710.86047 -22052076.05362
 92  9 17 23 42 59.9890000  0  5G28G21G11G17G23
  17921085.4234  -22606117.74447 -17405213.13163
  17398726.7354  -29538317.03647 -22719227.31963
  20212355.0484   -7122935.10046  -5331877.14361
  18845556.5644  -15031058.42346 -11641898.29461
  18214826.6734  -28689767.53647 -22038873.46162
 92  9 17 23 43 29.9890000  0  5G28G21G11G17G23
  17914553.2204  -22640459.98847 -17431973.30862
  17390420.2514  -29581979.70547 -22753250.16963
  20187213.399    -7255056.525 6  -5434828.81721
  18852749.7674  -14993260.22146 -11612445.16461
  18218074.5794  -28672698.82547 -22025573.16562
 92  9 17 23 43 59.9890000  0  5G28G21G11G17G23
  17908130.9784  -22674195.99147 -17458261.09562
  17382151.7354  -29625424.70747 -22787103.40863
  20162113.3994   -7386953.24046  -5537605.40761
  18859992.8144  -14955203.96946 -11582790.96462
  18221343.5954  -28655523.02847 -22012189.43262
 92  9 17 23 44 29.9890000  0  5G28G21G11G17G23
  17901833.4394  -22707299.77247 -17484056.24062
  17373929.6574  -29668626.67547 -22820767.27263
  20137062.6964   -7518595.89746  -5640184.03261
  18867288.4234  -14916863.29146 -11552915.12761
  18224635.9544  -28638214.93047 -21998702.60862
 92  9 17 23 44 59.9890000  0  5G28G21G11G17G23
  17895650.1734  -22739780.52047 -17509365.91263
  17365752.6344  -29711595.39847 -22854249.38363
  20112057.8994   -7649990.60746  -5742569.46161
  18874634.8064  -14878247.88546 -11522825.21962
  18227954.2434  -28620784.47147 -21985120.44062
 92  9 17 23 45 29.9890000  0  5G28G21G11G17G23
  17889590.4934  -22771639.86247 -17534191.36663
  17357619.7594  -29754332.75347 -22887551.19963
  20087101.1734   -7781135.89546  -5844760.51161
  18882034.712   -14839359.930 6 -11492522.95021
  18231294.3844  -28603234.27147 -21971444.95362
 92  9 17 23 45 59.9890000  0  5G28G21G11G17G23
  17883644.4234  -22802877.57847 -17558532.44162
  17349533.0564  -29796838.38747 -22920672.47063
  20062194.649    -7912027.550 6  -5946753.92421
  18889486.6104  -14800199.33146 -11462008.20662
  18234657.2824  -28585564.86547 -21957676.59262
 92  9 17 23 46 29.9890000  0  5G28G21G11G17G23
  17877817.8764  -22833498.24247 -17582392.69463
  17341486.0174  -29839117.34847 -22953617.09563
  20037336.5874   -8042666.94546  -6048550.79761
  18896990.735   -14760770.879 6 -11431284.76021
  18238040.0564  -28567781.07347 -21943819.08662
 92  9 17 23 46 59.9890000  0  5G28G21G11G17G23
  17872106.1424  -22863517.83547 -17605784.58063
  17333483.0794  -29881186.19047 -22986398.00063
  20012520.2904   -8173066.95946  -6150161.12461
  18904540.181   -14721090.764 6 -11400365.21121
  18241442.7284  -28549900.02747 -21929885.81262
 92  9 17 23 47 29.9890000  0  5G28G21G11G17G23
  17866513.9854  -22892902.12847 -17628681.43062
  17325522.5564  -29923010.94647 -23018988.71163
  19987760.3064   -8303189.84646  -6251555.51761
  18912146.8684  -14681125.18146 -11369223.21661
  18244871.1574  -28531888.00747 -21915850.47462
 92  9 17 23 47 59.9890000  0  5G28G21G11G17G23
  17861043.3144  -22921657.19447 -17651087.96663
  17317609.3764  -29964597.91047 -23051394.12363
  19963048.0954   -8433038.11246  -6352735.91761
  18919805.267   -14640880.346 6 -11337863.63121
  18248321.6734  -28513751.49547 -21901718.14162
 92  9 17 23 48 29.9890000  0  5G28G21G11G17G23
  17855690.0874  -22949781.37647 -17673002.90163
  17309740.4784  -30005945.68247 -23083613.15463
  19938393.5644   -8562606.65546  -6453698.34761
  18927516.3374  -14600354.87146 -11306285.36561
  18251798.1814  -28495489.63247 -21887488.12062
 92  9 17 23 48 59.9880000  0  5G28G21G11G17G23
  17850452.6684  -22977288.02947 -17694436.66562
  17301915.7854  -30047067.13047 -23115655.83463
  19913791.465    -8691901.718 6  -6554447.68221
  18935278.9574  -14559564.58646 -11274500.74361
  18255292.2314  -28477117.74447 -21873172.37562
 92  9 17 23 49 29.9880000  0  5G28G21G11G17G23
  17845338.3634  -23004175.49047 -17715387.92062
  17294133.5984  -30087961.44247 -23147521.52463
  19889237.5354   -8820924.70046  -6654984.99061
  18943091.590   -14518502.689 6 -11242504.48521
  18258810.4574  -28458631.30747 -21858767.35662
 92  9 17 23 49 59.9880000  0  5G28G21G11G17G23
  17840341.3564  -23030443.34247 -17735856.37262
  17286392.785   -30128628.120 7 -23179209.82323
  19864739.3484   -8949668.44546  -6755304.72561
  18950957.3794  -14477171.86846 -11210298.66661
  18262350.0434  -28440031.84947 -21844274.27162
 92  9 17 23 50 29.9880000  0  5G28G21G11G17G23
  17835460.2854  -23056089.20247 -17755840.15163
  17278701.4494  -30169064.96347 -23210719.05063
  19840295.0594   -9078127.01646  -6855402.25061
  18958872.8954  -14435569.46846 -11177881.23761
  18265909.7774  -28421317.95647 -21829692.01562
 92  9 17 23 50 59.9880000  0  5G28G21G11G17G23
  17830698.6524  -23081108.36647 -17775335.59962
  17271051.5744  -30209267.26647 -23242045.50763
  19815906.2384   -9206291.89546  -6955270.92061
  18966843.8874  -14393690.90646 -11145248.59861
  18269493.6374  -28402484.76847 -21815016.80562
 92  9 17 23 51 29.9880000  0  5G28G21G11G17G23
  17826053.9104  -23105513.73247 -17794352.76263
  17263442.4734  -30249248.16747 -23273199.44863
  19791568.1374   -9334172.34446  -7054917.94961
  18974862.910   -14351549.892 6 -11112411.47721
  18273098.5434  -28383545.77947 -21800259.14462
 92  9 17 23 51 59.9880000  0  5G28G21G11G17G23
  17821527.0204  -23129309.10147 -17812894.59863
  17255873.4574  -30289011.04347 -23304183.49463
  19767288.4344   -9461768.43946  -7154343.40261
  18982930.2074  -14309149.39746 -11079372.14861
  18276722.5354  -28364505.09747 -21785422.25062
 92  9 17 23 52 29.9880000  0  5G28G21G11G17G23
  17817119.9814  -23152466.34647 -17830939.19862
  17248355.2544  -30328527.99947 -23334975.90963
  19743070.3484   -9589048.16746  -7253522.33061
  18991054.426   -14266461.167 6 -11046108.62621
  18280369.8954  -28345334.56147 -21770484.17162
 92  9 17 23 52 59.9880000  0  5G28G21G11G17G23
  17812825.5674  -23175021.26247 -17848514.45462
  17240875.6374  -30367834.90847 -23365604.65863
  19718904.8094   -9716043.75046  -7352479.85361
  18999224.9814  -14223521.34846 -11012649.05561
  18284035.5904  -28326070.81747 -21755473.45762
 92  9 17 23 53 29.9880000  0  5G28G21G11G17G23
  17808649.4344  -23196969.08347 -17865616.65762
  17233436.0124  -30406926.90947 -23396065.94763
  19694793.6844   -9842746.69346  -7451209.35561
  19007443.996   -14180325.736 6 -10978990.16321
  18287719.9654  -28306709.18247 -21740386.46262
 92  9 17 23 53 59.9880000  0  5G28G21G11G17G23
  17804591.1684  -23218308.67847 -17882244.90862
  17226038.527   -30445802.366 7 -23426358.50323
  19670737.1994   -9969151.38146  -7549706.45961
  19015714.074   -14136872.326 6 -10945130.39221
  18291424.0984  -28287248.15947 -21725222.02862
 92  9 17 23 54 29.9880000  0  5G28G21G11G17G23
  17800649.2704  -23239025.31247 -17898387.73263
  17218684.5124  -30484446.71447 -23456470.97163
  19646744.9344  -10095239.66046  -7647957.00061
  19024036.254   -14093146.869 6 -10911058.62521
  18295148.2314  -28267673.53647 -21709969.06762
 92  9 17 23 54 59.9880000  0  5G28G21G11G17G23
  17796823.6064  -23259130.65747 -17914054.22962
  17211373.6684  -30522871.35847 -23486412.23663
  19622809.535   -10221019.265 6  -7745967.01321
  19032403.6924  -14049159.90546 -10876783.10161
  18298892.8094  -28247996.97947 -21694636.69262
 92  9 17 23 55 29.9880000  0  5G28G21G11G17G23
  17793111.2464  -23278631.08447 -17929249.36362
  17204102.6924  -30561082.16147 -23516186.87463
  19598932.0824  -10346492.30546  -7843738.13661
  19040826.043   -14004918.416 6 -10842309.23321
  18302656.8874  -28228224.55047 -21679229.59662
 92  9 17 23 55 59.9880000  0  5G28G21G11G17G23
  17789521.4734  -23297504.85747 -17943956.20362
  17196874.0594  -30599057.36847 -23545777.93363
  19575119.551   -10471633.657 6  -7941250.81621
  19049295.488   -13960401.428 6 -10807620.69721
  18306440.6604  -28208334.82947 -21663731.12062
 92  9 17 23 56 29.9880000  0  5G28G21G11G17G23
  17786045.9884  -23315766.12047 -17958185.75662
  17189690.7774  -30636810.84047 -23575196.21263
  19551366.301   -10596453.047 6  -8038512.62621
  19057816.668   -13915622.046 6 -10772727.70621
  18310244.7074  -28188341.89547 -21648152.20862
 92  9 17 23 56 59.9880000  0  5G28G21G11G17G23
  17782690.8564  -23333399.20447 -17971925.80962
  17182551.9814  -30674326.52847 -23604429.19663
  19527679.8174  -10720930.78046  -8135508.20061
  19066390.942   -13870564.401 6 -10737617.87421
  18314071.8874  -28168230.20747 -21632480.76762
 92  9 17 23 57 29.9880000  0  5G28G21G11G17G23
  17779448.1374  -23350433.95047 -17985199.64763
  17175453.4344  -30711633.39847 -23633499.47063
  19504051.3874  -10845092.79246  -8232257.76161
  19075012.2384  -13825258.20046 -10702314.36961
  18317915.7154  -28148029.25047 -21616739.76062
 92  9 17 23 57 59.9880000  0  5G28G21G11G17G23
  17776326.1214  -23366840.04947 -17997983.61462
  17168398.0674  -30748701.45647 -23662383.66663
  19480491.395   -10968904.686 6  -8328734.50121
  19083686.512   -13779672.825 6 -10666793.33221
  18321781.2854  -28127708.97547 -21600905.77062
 92  9 17 23 58 29.9880000  0  5G28G21G11G17G23
  17773320.3564  -23382632.26247 -18010289.23062
  17161388.1994  -30785545.17247 -23691093.03663
  19456994.7854  -11092377.07546  -8424946.69761
  19092411.7154  -13733823.26246 -10631066.40561
  18325669.9184  -28107283.76147 -21584990.02062
 92  9 17 23 58 59.9880000  0  5G28G21G11G17G23
  17770435.0904  -23397806.07747 -18022112.97362
  17154420.0434  -30822159.08447 -23719623.34463
  19433563.582   -11215501.236 6  -8520887.55921
  19101188.793   -13687704.753 6 -10595129.95121
  18329578.3874  -28086748.53947 -21568988.54562
